[[{"header":{"parameterUnit":"m.s-1","parameterCategory":1,"la1":30.6,"la2":29.2853,"lo1":-89.7004,"lo2":-87.6739,"dy":0.0162,"dx":0.0183,"nx":112,"ny":82,"refTime":"2024-07-12T00:00:00:Z","depth":0,"parameterNumber":2,"parameterNumberName":"U-component_of_WINDS"},"data":[0.0,0.0,0.0,0.0,0.0,0.0,0.0,0.0,0.0,0.0,0.0,0.0,0.0,0.0,0.0,0.0,0.0,0.0,0.0,0.0,0.0,0.0,0.0,0.0,0.0,0.0,0.0,0.0,0.0,0.0,0.0,0.0,0.0,0.0,0.0,0.0,0.0,0.0,0.0,0.0,0.0,0.0,0.0,0.0,0.0,0.0,0.0,0.0,0.0,0.0,0.0,0.0,0.0,0.0,0.0,0.0,0.0,0.0,0.0,0.0,0.0,0.0,0.0,0.0,0.0,0.0,0.0,0.0,0.0,0.0,0.0,0.0,0.0,0.0,0.0,0.0,0.0,0.0,0.0,0.0,0.0,0.0,0.0,0.0,0.0,0.0,0.0,0.0,0.0,0.0,0.0,-3.1869,-3.4628,-3.6249,-3.6146,-3.5439,-3.4042,-3.173,0.0,0.0,0.0,0.0,0.0,0.0,0.0,0.0,0.0,0.0,0.0,0.0,0.0,0.0,0.0,0.0,0.0,0.0,0.0,0.0,0.0,0.0,0.0,0.0,0.0,0.0,0.0,0.0,0.0,0.0,0.0,0.0,0.0,0.0,0.0,0.0,0.0,0.0,0.0,0.0,0.0,0.0,0.0,0.0,0.0,0.0,0.0,0.0,0.0,0.0,0.0,0.0,0.0,0.0,0.0,0.0,0.0,0.0,0.0,0.0,0.0,0.0,0.0,0.0,0.0,0.0,0.0,0.0,0.0,0.0,0.0,0.0,0.0,0.0,0.0,0.0,0.0,0.0,0.0,0.0,0.0,0.0,0.0,0.0,0.0,0.0,0.0,0.0,0.0,0.0,0.0,0.0,0.0,0.0,0.0,0.0,0.0,0.0,0.0,0.0,0.0,0.0,0.0,0.0,-2.9075,-3.3302,-3.5283,-3.6042,-3.5421,-3.47,-3.3246,-3.0847,0.0,0.0,0.0,0.0,0.0,0.0,0.0,0.0,0.0,0.0,0.0,0.0,0.0,0.0,0.0,0.0,0.0,0.0,0.0,0.0,0.0,0.0,0.0,0.0,0.0,0.0,0.0,0.0,0.0,0.0,0.0,0.0,0.0,0.0,0.0,0.0,0.0,0.0,0.0,0.0,0.0,0.0,0.0,0.0,0.0,0.0,0.0,0.0,0.0,0.0,0.0,0.0,0.0,0.0,0.0,0.0,0.0,0.0,0.0,0.0,0.0,0.0,0.0,0.0,0.0,0.0,0.0,0.0,0.0,0.0,0.0,0.0,0.0,0.0,0.0,0.0,0.0,0.0,0.0,0.0,0.0,0.0,0.0,0.0,0.0,0.0,0.0,0.0,0.0,0.0,0.0,0.0,0.0,0.0,0.0,0.0,0.0,0.0,0.0,0.0,0.0,0.0,0.0,-2.8437,-3.0421,-3.3751,-3.5421,-3.6008,-3.5249,-3.4527,-3.3074,-3.0657,-2.8354,0.0,0.0,0.0,0.0,0.0,0.0,0.0,0.0,0.0,0.0,0.0,0.0,0.0,0.0,0.0,0.0,0.0,0.0,0.0,0.0,0.0,0.0,0.0,0.0,0.0,0.0,0.0,0.0,0.0,0.0,0.0,0.0,0.0,0.0,0.0,0.0,0.0,0.0,0.0,0.0,0.0,0.0,0.0,0.0,0.0,0.0,0.0,0.0,0.0,0.0,0.0,0.0,0.0,0.0,0.0,0.0,0.0,0.0,0.0,0.0,0.0,0.0,0.0,0.0,0.0,0.0,0.0,0.0,0.0,0.0,0.0,0.0,0.0,0.0,0.0,0.0,0.0,0.0,0.0,0.0,0.0,0.0,0.0,0.0,0.0,0.0,0.0,0.0,0.0,0.0,0.0,0.0,0.0,0.0,0.0,0.0,0.0,0.0,0.0,0.0,0.0,0.0,-3.0144,-3.1784,-3.3889,-3.5111,-3.5542,-3.4953,-3.3901,-3.2312,-3.0053,-2.7176,0.0,0.0,0.0,0.0,0.0,0.0,0.0,0.0,0.0,0.0,0.0,0.0,0.0,0.0,0.0,0.0,0.0,0.0,0.0,0.0,0.0,0.0,0.0,0.0,0.0,0.0,0.0,0.0,0.0,0.0,0.0,0.0,0.0,0.0,0.0,0.0,0.0,0.0,0.0,0.0,0.0,0.0,0.0,0.0,0.0,0.0,0.0,0.0,0.0,0.0,0.0,0.0,0.0,0.0,0.0,0.0,0.0,0.0,0.0,0.0,0.0,0.0,0.0,0.0,0.0,0.0,0.0,0.0,0.0,0.0,0.0,0.0,0.0,0.0,0.0,0.0,0.0,0.0,0.0,0.0,0.0,0.0,0.0,0.0,0.0,0.0,0.0,0.0,0.0,0.0,0.0,0.0,0.0,0.0,0.0,0.0,0.0,0.0,0.0,0.0,0.0,0.0,-2.9955,-3.2317,-3.3941,-3.4199,-3.4174,-3.4006,-3.2049,-3.0088,-2.8288,-2.5747,0.0,0.0,0.0,0.0,0.0,0.0,0.0,0.0,0.0,0.0,0.0,0.0,0.0,0.0,0.0,0.0,0.0,0.0,0.0,0.0,0.0,0.0,0.0,0.0,0.0,0.0,0.0,0.0,0.0,0.0,0.0,0.0,0.0,0.0,0.0,0.0,0.0,0.0,0.0,0.0,0.0,0.0,0.0,0.0,0.0,0.0,0.0,0.0,0.0,0.0,0.0,0.0,0.0,0.0,0.0,0.0,0.0,0.0,0.0,0.0,0.0,0.0,0.0,0.0,0.0,0.0,0.0,0.0,0.0,0.0,0.0,0.0,0.0,0.0,0.0,0.0,0.0,0.0,0.0,0.0,0.0,0.0,0.0,0.0,0.0,0.0,0.0,0.0,0.0,0.0,0.0,0.0,0.0,0.0,0.0,0.0,0.0,0.0,0.0,0.0,0.0,0.0,-2.9092,-3.1127,0.0,-3.3783,-3.3677,-3.2616,-3.1757,-3.0156,-2.747,0.0,0.0,0.0,0.0,0.0,0.0,0.0,0.0,0.0,0.0,0.0,0.0,0.0,0.0,0.0,0.0,0.0,0.0,0.0,0.0,0.0,0.0,0.0,0.0,0.0,0.0,0.0,0.0,0.0,0.0,0.0,0.0,0.0,0.0,0.0,0.0,0.0,0.0,0.0,0.0,0.0,0.0,0.0,0.0,0.0,0.0,0.0,0.0,0.0,0.0,0.0,0.0,0.0,0.0,0.0,0.0,0.0,0.0,0.0,0.0,0.0,0.0,0.0,0.0,0.0,0.0,0.0,0.0,0.0,0.0,0.0,0.0,0.0,0.0,0.0,0.0,0.0,0.0,0.0,0.0,0.0,0.0,0.0,0.0,0.0,0.0,0.0,0.0,0.0,0.0,0.0,0.0,0.0,0.0,0.0,0.0,0.0,0.0,0.0,0.0,0.0,0.0,-2.6613,-2.8197,-2.9903,0.0,-3.2417,-3.2225,-3.1305,-3.0567,-2.8989,-2.62,0.0,0.0,0.0,0.0,0.0,0.0,0.0,0.0,0.0,0.0,0.0,0.0,0.0,0.0,0.0,0.0,0.0,0.0,0.0,0.0,0.0,0.0,0.0,0.0,0.0,0.0,0.0,0.0,0.0,0.0,0.0,0.0,0.0,0.0,0.0,0.0,0.0,0.0,0.0,0.0,0.0,0.0,0.0,0.0,0.0,0.0,0.0,0.0,0.0,0.0,0.0,0.0,0.0,0.0,0.0,0.0,0.0,0.0,0.0,0.0,0.0,0.0,0.0,0.0,0.0,0.0,0.0,0.0,0.0,0.0,0.0,0.0,0.0,0.0,0.0,0.0,0.0,0.0,0.0,0.0,0.0,0.0,0.0,0.0,0.0,0.0,0.0,0.0,0.0,0.0,0.0,0.0,0.0,0.0,0.0,0.0,0.0,0.0,0.0,0.0,0.0,0.0,-2.5781,-2.7342,-2.8853,-3.033,-2.9832,-2.9607,-3.0127,-2.8151,-2.6099,0.0,0.0,0.0,0.0,0.0,0.0,0.0,0.0,0.0,0.0,0.0,0.0,0.0,0.0,0.0,0.0,0.0,0.0,0.0,0.0,0.0,0.0,0.0,0.0,0.0,0.0,0.0,0.0,0.0,0.0,0.0,0.0,0.0,0.0,0.0,0.0,0.0,0.0,0.0,0.0,0.0,0.0,0.0,0.0,0.0,0.0,0.0,0.0,0.0,0.0,0.0,0.0,0.0,0.0,0.0,0.0,0.0,0.0,0.0,0.0,0.0,0.0,0.0,0.0,0.0,0.0,0.0,0.0,0.0,0.0,0.0,0.0,0.0,0.0,0.0,0.0,0.0,0.0,0.0,0.0,0.0,0.0,0.0,0.0,0.0,0.0,0.0,0.0,0.0,0.0,0.0,0.0,0.0,0.0,0.0,0.0,0.0,0.0,0.0,0.0,0.0,0.0,0.0,-2.502,-2.6919,-2.8545,-2.9555,-2.947,-2.9143,-2.8696,-2.7573,-2.5879,-2.3479,0.0,0.0,0.0,0.0,0.0,0.0,0.0,0.0,0.0,0.0,0.0,0.0,0.0,0.0,0.0,0.0,0.0,0.0,0.0,0.0,0.0,0.0,0.0,0.0,0.0,0.0,0.0,0.0,0.0,0.0,0.0,0.0,0.0,0.0,0.0,0.0,0.0,0.0,0.0,0.0,0.0,0.0,0.0,0.0,0.0,0.0,0.0,0.0,0.0,0.0,0.0,0.0,0.0,0.0,0.0,0.0,0.0,0.0,0.0,0.0,0.0,0.0,0.0,0.0,0.0,0.0,0.0,0.0,0.0,0.0,0.0,0.0,0.0,0.0,0.0,0.0,0.0,0.0,0.0,0.0,0.0,0.0,0.0,0.0,0.0,0.0,0.0,0.0,0.0,0.0,0.0,0.0,0.0,0.0,0.0,0.0,0.0,0.0,0.0,0.0,0.0,0.0,-2.4179,-2.6242,-2.7811,-2.8305,-2.8339,-2.8117,-2.7521,-2.6809,-2.5478,-2.3324,0.0,0.0,0.0,0.0,0.0,0.0,0.0,0.0,0.0,0.0,0.0,0.0,0.0,0.0,0.0,0.0,0.0,0.0,0.0,0.0,0.0,0.0,0.0,0.0,0.0,0.0,0.0,0.0,0.0,0.0,0.0,0.0,0.0,0.0,0.0,0.0,0.0,0.0,0.0,0.0,0.0,0.0,0.0,0.0,0.0,0.0,0.0,0.0,0.0,0.0,0.0,0.0,0.0,0.0,0.0,0.0,0.0,0.0,0.0,0.0,0.0,0.0,0.0,0.0,0.0,0.0,0.0,0.0,0.0,0.0,0.0,0.0,0.0,0.0,0.0,0.0,0.0,0.0,0.0,0.0,0.0,0.0,0.0,0.0,0.0,0.0,0.0,0.0,0.0,0.0,0.0,0.0,0.0,0.0,0.0,0.0,0.0,0.0,0.0,0.0,0.0,0.0,-2.3376,-2.5431,-2.6808,-2.6876,-2.6944,-2.6894,-2.6657,-2.5965,-2.4912,-2.3435,0.0,0.0,0.0,0.0,0.0,0.0,0.0,0.0,0.0,0.0,0.0,0.0,0.0,0.0,0.0,0.0,0.0,0.0,0.0,0.0,0.0,0.0,0.0,0.0,0.0,0.0,0.0,0.0,0.0,0.0,0.0,0.0,0.0,0.0,0.0,0.0,0.0,0.0,0.0,0.0,0.0,0.0,0.0,0.0,0.0,0.0,0.0,0.0,0.0,0.0,0.0,0.0,0.0,0.0,0.0,0.0,0.0,0.0,0.0,0.0,-2.4634,0.0,0.0,0.0,0.0,0.0,0.0,0.0,0.0,0.0,0.0,0.0,0.0,0.0,0.0,0.0,0.0,0.0,0.0,0.0,0.0,0.0,0.0,0.0,0.0,0.0,0.0,0.0,0.0,0.0,0.0,0.0,0.0,0.0,0.0,0.0,0.0,0.0,0.0,0.0,0.0,0.0,-2.3224,-2.4862,-2.6115,-2.6674,-2.725,-2.723,-2.6313,-2.5596,-2.4364,-2.2367,0.0,0.0,0.0,0.0,0.0,0.0,0.0,0.0,0.0,0.0,0.0,0.0,0.0,0.0,0.0,0.0,0.0,0.0,0.0,0.0,0.0,0.0,0.0,0.0,0.0,0.0,0.0,0.0,0.0,0.0,0.0,0.0,0.0,0.0,0.0,0.0,0.0,0.0,0.0,0.0,0.0,0.0,0.0,0.0,0.0,0.0,0.0,0.0,0.0,0.0,0.0,0.0,0.0,0.0,0.0,0.0,0.0,0.0,0.0,0.0,0.0,-2.5474,0.0,0.0,0.0,0.0,0.0,0.0,0.0,0.0,0.0,0.0,0.0,0.0,0.0,0.0,0.0,0.0,0.0,0.0,0.0,0.0,0.0,0.0,0.0,0.0,0.0,0.0,0.0,0.0,0.0,0.0,0.0,0.0,0.0,0.0,0.0,0.0,0.0,0.0,0.0,0.0,-2.3001,-2.4585,-2.5879,-2.6623,-2.6875,-2.6617,-2.5692,-2.4792,-2.3728,-2.2466,-2.0765,0.0,0.0,0.0,0.0,0.0,0.0,0.0,0.0,0.0,0.0,0.0,0.0,0.0,0.0,0.0,0.0,0.0,0.0,0.0,0.0,0.0,0.0,0.0,0.0,0.0,0.0,0.0,0.0,0.0,0.0,0.0,0.0,0.0,0.0,0.0,0.0,0.0,0.0,0.0,0.0,0.0,0.0,0.0,0.0,0.0,0.0,0.0,0.0,0.0,0.0,0.0,0.0,0.0,0.0,-3.1738,-3.0036,-3.0798,-3.0576,-2.9555,-2.8761,-2.7805,-2.6796,0.0,0.0,0.0,0.0,0.0,0.0,0.0,0.0,0.0,0.0,0.0,0.0,0.0,0.0,0.0,0.0,0.0,0.0,0.0,0.0,0.0,0.0,0.0,0.0,0.0,-2.5747,-2.5572,0.0,0.0,0.0,0.0,0.0,0.0,0.0,0.0,0.0,0.0,0.0,0.0,-2.2971,-2.4439,-2.5695,-2.6506,-2.6415,-2.5903,-2.4974,-2.4038,-2.3252,-2.2657,-2.0902,-1.9953,0.0,0.0,0.0,0.0,0.0,0.0,0.0,0.0,0.0,0.0,0.0,0.0,0.0,0.0,0.0,0.0,0.0,0.0,0.0,0.0,0.0,0.0,0.0,0.0,0.0,0.0,0.0,0.0,0.0,0.0,0.0,0.0,-2.4026,-2.495,0.0,0.0,0.0,0.0,0.0,0.0,0.0,0.0,0.0,0.0,0.0,0.0,0.0,0.0,-3.0208,-3.2434,-3.3169,-3.2388,-3.4878,-3.4785,-3.2462,-3.3253,-3.2742,-3.1194,-3.0999,0.0,-2.7585,-2.6888,0.0,0.0,0.0,0.0,0.0,0.0,0.0,0.0,0.0,0.0,0.0,0.0,0.0,0.0,0.0,0.0,0.0,0.0,0.0,0.0,0.0,0.0,-2.6689,-2.6792,-2.6833,-2.6753,0.0,-2.5212,-2.3998,-2.3255,0.0,0.0,0.0,0.0,0.0,0.0,0.0,0.0,-2.3569,-2.4321,-2.504,-2.606,-2.6703,-2.6229,-2.4233,-2.3968,-2.3243,-2.1616,-2.0713,-2.0,-1.9441,-1.9256,0.0,0.0,0.0,0.0,0.0,0.0,0.0,0.0,0.0,0.0,0.0,0.0,0.0,0.0,0.0,0.0,0.0,0.0,0.0,0.0,0.0,0.0,0.0,0.0,0.0,0.0,0.0,0.0,0.0,-2.4022,-2.558,-2.5367,-2.5106,-2.4736,0.0,0.0,0.0,0.0,0.0,0.0,0.0,0.0,0.0,-3.0148,-3.1082,-3.2182,-3.3478,-3.489,-3.5436,-3.5101,-3.6179,-3.6116,-3.5051,-3.5364,-3.4818,-3.364,-3.355,-3.2377,-3.0411,-2.9145,-2.8466,-2.8165,0.0,0.0,0.0,0.0,0.0,-2.742,-2.731,-2.7108,0.0,0.0,0.0,0.0,0.0,0.0,0.0,0.0,0.0,0.0,0.0,0.0,0.0,-2.6936,-2.6991,-2.6942,-2.6909,-2.6283,-2.5523,0.0,-2.4218,-2.3459,-2.2157,0.0,0.0,0.0,0.0,0.0,-2.3752,-2.4096,-2.4663,-2.5956,-2.5985,-2.5217,-2.3475,-2.3158,-2.2375,-2.0828,-2.0474,-2.0165,-1.9873,-1.9502,-1.9194,0.0,0.0,0.0,0.0,0.0,0.0,0.0,0.0,0.0,0.0,0.0,0.0,0.0,0.0,0.0,0.0,0.0,0.0,0.0,0.0,0.0,0.0,0.0,0.0,0.0,0.0,0.0,0.0,-2.5292,-2.6423,-2.5441,-2.6078,-2.625,0.0,0.0,0.0,0.0,0.0,0.0,-2.8832,-2.9558,-3.0902,-3.2943,-3.3875,-3.4938,-3.6174,-3.6948,-3.7312,-3.7312,-3.7312,-3.7206,-3.6976,-3.6914,-3.6421,-3.5578,-3.5515,-3.4619,-3.3096,-3.1482,-3.0925,-3.0962,-2.9757,-2.9537,-2.9769,-2.8778,-2.8796,-2.9244,-2.8851,-2.8851,-2.8817,-2.7659,0.0,-2.62,-2.4694,0.0,0.0,0.0,0.0,-2.5352,-2.6074,0.0,-2.6293,-2.6839,-2.6909,-2.6842,-2.6842,-2.6758,-2.6539,0.0,-2.553,-2.4846,-2.3666,0.0,0.0,0.0,0.0,-2.2358,-2.3935,-2.4066,-2.4492,-2.5668,-2.5096,-2.4141,-2.2852,-2.2322,-2.155,-2.0381,-2.0304,-2.0287,-2.0252,-1.9794,-1.9686,-1.9991,0.0,0.0,0.0,0.0,0.0,0.0,0.0,0.0,0.0,0.0,0.0,0.0,0.0,0.0,0.0,0.0,0.0,0.0,0.0,0.0,0.0,0.0,0.0,0.0,0.0,0.0,0.0,0.0,0.0,-2.5511,-2.6116,0.0,0.0,0.0,0.0,-2.778,-2.9269,-3.0596,-3.1468,-3.2855,-3.4034,-3.4939,-3.6901,-3.7989,-3.8052,-3.8665,-3.8971,-3.8971,-3.8971,-3.854,-3.7734,-3.7683,-3.7169,-3.6343,-3.6272,-3.5734,-3.4747,-3.3133,-3.1604,-3.0246,-3.0173,-2.9702,-2.9133,-2.9843,-3.0099,-3.0246,-3.0974,-3.0246,-2.9115,-2.9794,-2.8633,-2.685,-2.6188,-2.55,0.0,0.0,-2.5934,-2.6109,-2.6767,-2.6891,-2.6858,-2.6909,-2.6809,-2.6708,-2.6708,-2.6691,-2.6691,0.0,-2.6066,-2.5444,-2.5063,0.0,-2.2622,-2.3289,-2.2481,-2.2456,-2.4243,-2.4419,-2.4528,-2.4921,-2.4356,-2.3507,-2.2408,-2.1738,-2.1042,-2.0333,-2.0304,-2.0252,-2.0133,-2.0189,-1.9914,-1.9168,-1.9191,0.0,0.0,0.0,0.0,0.0,0.0,0.0,0.0,0.0,0.0,0.0,0.0,0.0,0.0,0.0,0.0,0.0,0.0,0.0,0.0,0.0,0.0,0.0,0.0,0.0,0.0,0.0,0.0,-2.7774,-2.8527,0.0,0.0,-2.966,-3.0564,-3.1083,-3.2712,-3.3991,-3.468,-3.5585,-3.6406,-3.7074,-3.7697,-3.8249,-3.8771,-3.8994,-3.9101,-3.9101,-3.9101,-3.8911,-3.8567,-3.8496,-3.7999,-3.7172,-3.7099,-3.6597,-3.5789,-3.522,-3.4009,-3.2467,-3.194,-3.1574,-3.128,-3.1054,-3.1292,-3.1715,-3.1476,-3.1366,-3.1163,-3.0232,-2.9268,-2.8318,-2.7408,-2.7248,-2.7296,-2.6822,-2.6988,-2.723,-2.701,-2.6842,-2.6758,-2.6758,-2.6742,-2.6691,-2.6691,-2.6691,-2.6691,-2.6691,-2.6488,-2.6117,-2.5513,-2.4663,-2.4,-2.3802,-2.3188,-2.3174,-2.4301,-2.4193,-2.4239,-2.4839,-2.4069,-2.3185,-2.2366,-2.1599,-2.0888,-2.0214,-2.0131,-2.0093,-2.0043,-2.0078,-2.017,-2.0317,-1.9514,-1.8843,0.0,0.0,0.0,0.0,0.0,0.0,0.0,0.0,0.0,0.0,0.0,0.0,0.0,0.0,0.0,0.0,0.0,0.0,0.0,0.0,0.0,0.0,0.0,0.0,0.0,0.0,-2.9064,-2.949,-3.0814,-3.1558,-3.1269,-3.2538,-3.3622,-3.4141,-3.5519,-3.6485,-3.6797,-3.7395,-3.788,-3.8201,-3.8268,-3.8562,-3.9082,-3.9101,-3.9101,-3.9101,-3.9101,-3.9059,-3.9011,-3.8921,-3.8571,-3.8,-3.7926,-3.7456,-3.6703,-3.6703,-3.5881,-3.4559,-3.372,-3.3243,-3.2931,-3.2412,-3.254,-3.2863,-3.196,-3.1994,-3.2146,-3.044,-2.9726,-2.9369,-2.8555,-2.8592,-2.8776,-2.8012,-2.7896,-2.7879,-2.7352,-2.6962,-2.6691,-2.6691,-2.6691,-2.6691,-2.6691,-2.6691,-2.6691,-2.6691,-2.659,-2.6336,-2.5849,-2.5141,-2.4599,-2.4457,-2.3794,-2.3617,-2.4449,-2.422,-2.4155,-2.4652,-2.3867,-2.3025,-2.2325,-2.1596,-2.0852,-2.0109,-2.0043,-2.0008,-1.9937,-1.9988,-2.0185,-2.0588,-1.9531,-1.8987,-1.897,0.0,0.0,0.0,0.0,0.0,0.0,0.0,0.0,0.0,0.0,0.0,0.0,0.0,0.0,0.0,0.0,0.0,0.0,0.0,0.0,0.0,0.0,0.0,-2.8088,-2.9496,-3.0534,-3.0512,-3.2718,-3.3917,-3.3103,-3.5276,-3.675,-3.6769,-3.7558,-3.7924,-3.7675,-3.8268,-3.8501,-3.8245,-3.8809,-3.9101,-3.9138,-3.9101,-3.9101,-3.9138,-3.9101,-3.9059,-3.9011,-3.8921,-3.8848,-3.8807,-3.8719,-3.8267,-3.7529,-3.7511,-3.7052,-3.6248,-3.5353,-3.4509,-3.3825,-3.3807,-3.3807,-3.3638,-3.2514,-3.2129,-3.1888,-3.0488,-3.0039,-2.9957,-2.9608,-2.9455,-2.9402,-2.9246,-2.8646,-2.8014,-2.7841,-2.7283,-2.6725,-2.6725,-2.6691,-2.6691,-2.6691,-2.6691,-2.6691,-2.6691,-2.6367,-2.6104,-2.6104,-2.4899,-2.4264,-2.5314,-2.4256,0.0,-2.4745,-2.4533,-2.4302,-2.4302,-2.3702,-2.3001,-2.2263,-2.1649,-2.0921,-2.0036,-2.0045,-2.001,-1.9797,-1.9919,-1.9919,-1.9797,-1.9269,-1.8968,-1.8918,0.0,0.0,0.0,0.0,0.0,0.0,0.0,0.0,0.0,0.0,0.0,0.0,0.0,0.0,0.0,0.0,0.0,0.0,0.0,0.0,0.0,0.0,-2.9851,-2.9881,-3.0771,-3.1865,-3.3019,-3.4334,-3.5269,-3.5615,-3.6853,-3.7892,-3.8546,-3.8621,-3.8811,-3.9171,-3.9229,-3.912,-3.8856,-3.9012,-3.9398,-4.003,-3.9417,-3.9417,-4.003,-3.9398,-3.9059,-3.9011,-3.8921,-3.8848,-3.8807,-3.8719,-3.8579,-3.8322,-3.7749,-3.7364,-3.7033,-3.5573,-3.4857,-3.4601,-3.4027,-3.3807,-3.3711,-3.3168,-3.2814,-3.2411,-3.1254,-3.0695,-3.037,-2.9661,-2.9744,-2.9997,-2.9326,-2.9321,-2.9247,-2.8094,-2.7655,-2.735,-2.6826,-2.6691,-2.6691,-2.6691,-2.6691,-2.6607,-2.6315,-2.5944,-2.5762,-2.605,-2.5285,-2.472,-2.5028,0.0,0.0,-2.4436,-2.4364,-2.4302,-2.4302,-2.3605,-2.2906,-2.2244,-2.1409,-2.0615,0.0,-1.9833,-1.9797,-1.9726,-1.9762,-1.9762,-1.9726,-1.9116,-1.9011,0.0,0.0,0.0,0.0,0.0,0.0,0.0,0.0,0.0,0.0,0.0,0.0,0.0,0.0,0.0,0.0,0.0,0.0,0.0,0.0,0.0,0.0,-3.066,-3.1669,-3.2095,-3.2526,-3.3401,-3.5052,-3.6026,-3.6873,-3.7719,-3.8546,-3.9265,-3.9765,-3.9902,-4.0062,-4.0339,-4.0445,-4.0405,-4.0155,-4.0141,-4.0383,-4.0903,-4.0401,-4.0234,-4.0383,-3.9881,-3.9412,-3.9011,-3.8921,-3.8848,0.0,-3.8719,-3.8707,-3.867,-3.8193,-3.7991,0.0,0.0,0.0,0.0,0.0,-3.3807,-3.3734,-3.3258,-3.2952,-3.2643,-3.1758,-3.1306,-3.1058,-3.0485,-3.0564,-3.0745,-3.0175,-3.0065,-2.9886,-2.899,-2.828,-2.7689,-2.7249,-2.6911,-2.6691,-2.6691,-2.6691,-2.6573,-2.6192,0.0,0.0,-2.5596,-2.5079,-2.4639,-2.4639,-2.4451,-2.4302,0.0,-2.4302,-2.4302,-2.4302,-2.3887,-2.33,-2.2598,-2.1816,0.0,0.0,0.0,-1.9726,-1.9708,-1.9708,0.0,0.0,0.0,0.0,0.0,0.0,0.0,0.0,-2.0573,-2.0909,0.0,0.0,0.0,0.0,0.0,0.0,0.0,0.0,0.0,0.0,0.0,0.0,0.0,0.0,0.0,0.0,-3.2648,-3.3499,-3.4326,-3.4468,-3.5033,-3.6519,-3.7565,-3.845,-3.9227,-4.0131,-4.065,-4.065,-4.1215,-4.1462,-4.1256,0.0,0.0,0.0,0.0,-4.1627,-4.172,-4.1646,-4.1293,-4.0661,-4.049,-3.995,-3.9141,-3.8976,-3.8848,-3.8807,-3.8719,-3.8707,-3.8689,-3.8597,-3.856,-3.8414,-3.689,-3.5771,-3.4912,-3.41,-3.3807,0.0,0.0,0.0,0.0,-3.2002,-3.1781,-3.1746,-3.1598,-3.1521,-3.1443,-3.1332,-3.0758,-3.0192,-3.0023,-2.8956,-2.7891,-2.7722,-2.7182,-2.6691,-2.6691,-2.6674,-2.6505,-2.6105,-2.5707,-2.5294,-2.4902,-2.4533,-2.4302,-2.4302,-2.4302,0.0,-2.4302,-2.4302,-2.4302,-2.4302,0.0,0.0,-2.3061,-2.2528,-2.1842,-2.0857,-2.0314,-1.9987,-1.9932,-1.9932,-1.9932,-1.9932,-2.0513,-2.0818,-2.0835,-2.2017,-2.2073,-2.1038,-2.1164,-2.1729,0.0,0.0,0.0,0.0,0.0,0.0,0.0,0.0,0.0,0.0,0.0,0.0,0.0,0.0,0.0,-3.2579,-3.4067,-3.5142,-3.5314,-3.5894,-3.6394,-3.6661,-3.8084,-3.9111,-3.9284,-4.0662,-4.1546,-4.1546,-4.2105,-4.234,-4.2071,-4.2002,0.0,-4.1605,-4.159,-4.1906,-4.2556,-4.1924,-4.185,-4.2314,0.0,0.0,-3.9937,-3.9235,-3.8848,-3.8807,-3.8719,-3.8707,-3.8652,-3.7991,-3.7731,-3.7639,-3.667,-3.5771,-3.4912,-3.41,-3.3807,-3.3707,-3.3029,-3.2795,-3.2666,-3.1877,-3.1635,-3.1598,-3.1428,-3.1351,0.0,-3.1232,-3.1108,-3.07,-2.9534,-2.8993,-2.845,-2.7199,-2.6793,-2.6691,-2.6691,-2.6453,-2.6104,-2.5689,-2.5294,-2.4883,-2.4492,-2.4343,-2.4302,-2.4302,-2.4302,-2.4302,-2.4302,-2.4302,-2.4302,-2.4302,-2.4135,-2.3772,-2.3061,-2.2768,-2.2284,-2.1545,-2.14,-2.1325,-2.1306,-2.1306,-2.1306,-2.1306,-2.144,-2.1574,-2.1668,-2.1937,-2.1982,-2.1868,-2.2019,-2.1636,0.0,0.0,0.0,0.0,0.0,0.0,0.0,0.0,0.0,0.0,0.0,-2.9846,-3.0356,0.0,-3.2954,-3.4633,-3.5636,-3.6344,-3.6794,-3.7539,-3.7884,-3.742,-3.8118,-3.8969,-3.9823,-4.1046,-4.1788,-4.1788,-4.2737,-4.3169,-4.2905,-4.3095,-4.3077,-4.2813,-4.2797,-4.2983,-4.3392,-4.3002,-4.2797,-4.2797,-4.1571,-4.0696,-4.0133,-3.9276,-3.8851,-3.875,-3.8704,-3.8707,-3.867,-3.8267,-3.786,-3.7419,-3.6611,-3.6028,-3.5514,-3.4266,-3.3807,-3.3707,-3.3029,-3.2795,-3.2666,-3.1859,-3.1598,-3.156,-3.1353,-3.1295,-3.1293,-3.123,-3.119,-3.1021,-3.0296,-2.9551,-2.8807,-2.8028,-2.7249,-2.6691,-2.6691,-2.6385,-2.598,-2.5577,-2.5195,-2.4764,-2.4364,-2.4302,-2.4302,-2.4302,-2.4302,-2.4302,-2.4302,-2.4302,-2.4302,-2.4302,-2.4172,-2.3945,-2.3532,-2.3007,-2.2418,-2.1739,-2.1695,-2.1695,-2.1695,-2.1695,-2.1695,-2.1695,-2.2044,-2.2097,-2.1903,-2.2243,-2.2189,-2.1756,-2.1827,-2.1519,0.0,0.0,0.0,0.0,0.0,0.0,0.0,0.0,-2.7996,-2.8358,-2.9768,-3.1431,-3.2976,-3.3525,-3.4438,-3.6484,-3.7102,-3.752,-3.8028,-3.8805,-3.9068,-3.8348,-3.8402,-3.9008,-4.0362,-4.1431,-4.2038,-4.2038,-4.3416,-4.4088,-4.3758,-4.4208,-4.4332,-4.402,-4.4005,-4.4005,-4.4005,-4.4005,-4.367,-4.302,-4.2222,-4.1404,-4.0535,-3.9575,-3.9061,-3.8927,-3.8781,-3.8707,-3.8689,-3.8524,-3.8065,-3.7401,-3.6431,-3.6046,-3.5862,-3.4357,-3.3858,-3.3826,-3.3052,-3.2747,-3.2551,-3.1821,-3.156,-3.1523,-3.1315,-3.1293,-3.1274,-3.123,-3.119,-3.1157,-3.1021,-3.0008,-2.8959,-2.8807,-2.7706,-2.6691,-2.6691,-2.6385,-2.5998,-2.5689,-2.5218,-2.4799,-2.4472,-2.4343,-2.4302,-2.4302,-2.4302,-2.4297,-2.4276,-2.4276,-2.4276,-2.424,-2.4172,-2.4082,-2.394,-2.3288,-2.2643,-2.2099,-2.2069,-2.2069,-2.2069,-2.2069,-2.2069,-2.2069,-2.2613,-2.2558,-2.1945,-2.2494,-2.2249,-2.1253,-2.1253,-2.132,-2.2804,-2.2443,-2.288,-2.5192,-2.539,-2.5773,0.0,0.0,-2.9905,-3.0877,-3.2453,-3.3763,-3.4091,-3.5425,-3.6563,-3.6833,-3.8193,-3.8966,-3.8278,-3.8891,-3.9354,-3.9258,-3.9825,-4.0285,-4.0477,-4.1989,-4.2951,-4.2951,-4.4472,-4.5198,-4.4692,-4.4726,-4.4506,-4.402,-4.4005,-4.4005,-4.4005,-4.4005,-4.3949,-4.3856,-4.3039,-4.2536,-4.2269,-4.0683,-3.989,-3.9717,-3.9019,-3.8707,-3.8652,-3.7933,-3.7584,-3.7345,-3.5756,-3.5151,-3.5041,-3.4137,-3.4063,-3.4277,-3.3187,-3.2569,-3.2179,-3.1671,-3.1426,-3.1315,-3.1232,-3.121,-3.121,-3.121,-3.119,-3.1055,-3.0395,-2.96,-2.8824,-2.8094,-2.73,-2.6691,-2.6691,-2.6385,-2.6104,-2.6034,-2.5427,-2.4883,-2.4843,-2.4533,-2.4302,-2.4302,-2.4302,-2.4276,-2.4208,-2.4208,-2.4166,-2.4046,-2.3903,-2.3797,-2.3674,-2.3556,-2.346,-2.3385,-2.3385,-2.3385,-2.3385,-2.3385,-2.3385,-2.3385,-2.346,-2.304,-2.2076,-2.2221,-2.1769,-2.0774,-2.0774,-2.1025,-2.3652,-2.4337,0.0,0.0,-2.6372,-2.7259,-2.8638,-2.9351,-3.0155,-3.1665,-3.3043,-3.418,-3.4822,-3.6014,-3.7077,0.0,-3.8682,-3.9533,-3.9638,-3.9509,-3.9393,-3.9393,-3.968,-4.0037,-4.0506,-4.2098,-4.3094,-4.3107,-4.4641,-4.5381,-4.4825,-4.4788,-4.4546,-4.402,-4.4005,-4.4005,-4.4005,-4.4005,-4.4005,-4.3986,-4.3141,-4.2693,-4.2564,-4.1301,-4.0175,-3.9166,-3.834,-3.7991,-3.7936,-3.7144,-3.6813,-3.667,-3.5463,-3.5004,-3.4912,-3.41,-3.3909,-3.3978,-3.3091,-3.2668,-3.2369,-3.1709,-3.1406,-3.1293,-3.123,-3.119,-3.119,-3.119,-3.119,-3.1021,-3.0294,-2.955,-2.8807,-2.7993,-2.7249,-2.6691,-2.6691,-2.6385,-2.6034,-2.5799,-2.5294,-2.4839,-2.4578,-2.441,-2.4302,-2.4302,-2.4255,-2.4193,-2.4103,-2.4082,-2.4024,-2.3903,-2.3839,-2.3739,-2.3595,-2.3595,-2.3595,-2.3595,-2.3595,-2.3595,-2.3595,-2.3595,-2.3595,-2.3595,-2.3334,-2.283,-2.2105,-2.1851,-2.1375,-2.0712,-2.1027,-2.1459,-2.4733,0.0,0.0,-2.6522,-2.7409,-2.8372,-2.8568,-2.9307,-3.0377,-3.1975,-3.3141,-3.4209,-3.5198,-3.6221,0.0,-3.8057,-3.8721,-3.9508,-4.0585,-3.9767,-3.9251,-3.9727,-3.956,-3.9733,-4.0564,-4.1932,-4.2856,-4.3076,-4.4446,-4.5141,-4.4825,-4.4788,-4.4546,-4.402,-4.4005,-4.4005,-4.4005,-4.4005,-4.3989,-4.3974,-4.3336,-4.2979,-4.283,-4.1682,-4.026,-3.867,-3.786,-3.7364,-3.7125,-3.6541,-3.6156,-3.5881,-3.5261,-3.4857,-3.4601,-3.3982,-3.3854,-3.386,-3.3135,-3.27,-3.2386,-3.1802,-3.1464,-3.1254,-3.121,-3.119,-3.119,-3.119,-3.119,-3.1072,-3.0548,-2.9721,-2.8857,-2.8281,-2.7402,-2.6691,-2.6691,-2.647,-2.6192,-2.589,-2.5408,-2.4981,-2.4679,-2.4426,-2.4255,-2.4219,-2.4151,-2.4082,-2.4003,-2.394,-2.3861,-2.376,-2.3739,-2.3717,-2.3595,-2.3595,-2.3595,-2.3595,-2.3595,-2.3595,-2.3595,-2.3595,-2.3595,-2.3595,-2.3135,-2.2626,-2.2105,-2.1612,-2.1155,-2.0725,-2.125,-2.1812,0.0,0.0,-2.6224,-2.782,-2.826,-2.8493,-2.9297,-3.014,-3.1072,-3.208,-3.3141,-3.4209,-3.5198,-3.6221,-3.7193,-3.8057,-3.8212,-3.8837,-4.0558,-3.9321,-3.885,-4.0558,-3.9947,-3.9767,0.0,-4.1491,-4.226,-4.3036,-4.3926,-4.4547,-4.4787,-4.4788,-4.4546,-4.402,-4.4005,-4.4005,-4.4005,-4.4005,-4.3958,-4.3897,-4.3878,-4.3763,-4.3507,-4.186,-4.023,-3.867,-3.786,-3.707,-3.6321,-3.6303,-3.5807,-3.5041,-3.5023,-3.4509,-3.383,-3.3744,-3.3989,-3.4264,-3.3384,-3.257,-3.1912,-3.1894,-3.1579,-3.121,-3.119,-3.119,-3.119,-3.119,-3.119,-3.119,-3.1157,-3.0093,-2.8993,-2.8976,-2.7808,-2.6691,-2.6691,-2.6691,-2.6674,-2.6674,-2.6016,-2.5484,-2.5465,-2.4759,-2.4145,-2.4024,-2.3903,-2.3861,-2.3982,-2.376,-2.3595,-2.3595,-2.3595,-2.3595,-2.3595,-2.3595,-2.3595,-2.3595,-2.3595,-2.3595,-2.3595,-2.3595,-2.3595,-2.3595,-2.3135,-2.2626,-2.2105,-2.1612,-2.1155,-2.0725,-2.125,-2.1838,0.0,0.0,-2.7659,-2.8221,-2.8811,-2.9308,-2.9561,-2.9851,-3.0321,-3.1177,-3.1849,-3.2507,-3.3381,-3.4956,-3.6361,-3.7193,-3.7825,-3.8605,-3.9771,-3.9423,-3.9069,-3.9069,-3.9817,0.0,0.0,0.0,0.0,-4.3108,-4.3896,-4.4461,-4.4787,-4.4788,-4.4546,-4.402,-4.4005,-4.4005,-4.4005,-4.4005,-4.3989,-4.3958,-4.3344,-4.2941,-4.265,-4.0487,-3.8927,-3.7841,-3.645,-3.5683,-3.5389,-3.4853,-3.478,-3.4949,-3.4399,-3.4045,-3.3793,-3.3671,-3.3723,-3.3807,-3.3283,-3.2896,-3.2554,-3.2056,-3.173,-3.1487,-3.1269,-3.119,-3.119,-3.119,-3.119,-3.097,-2.9991,-2.9365,-2.8739,-2.7723,-2.708,-2.6691,-2.6691,-2.6691,-2.6624,-2.635,-2.607,-2.5726,-2.5179,-2.4819,-2.4426,-2.3946,-2.3739,-2.3674,-2.3739,-2.3674,-2.3595,-2.3595,-2.3595,-2.3595,-2.3595,-2.3595,-2.3595,-2.3595,-2.3595,-2.3595,-2.3595,-2.3595,-2.3595,-2.3595,-2.3135,-2.2626,-2.2105,-2.1612,-2.1155,-2.0725,-2.125,-2.1838,0.0,-2.7609,-2.8463,-2.8791,-2.9288,-2.9701,-2.9701,-2.9701,-2.9852,-3.0359,-3.0726,-3.1186,-3.2026,-3.3339,-3.4872,-3.6613,-3.7135,-3.8025,-4.01,-3.9887,-3.9636,-3.9978,-4.0732,0.0,0.0,0.0,0.0,-4.3131,-4.3885,-4.447,-4.4787,-4.4788,-4.4546,-4.402,-4.4005,-4.4005,-4.4005,-4.4005,-4.3825,-4.35,-4.2839,-4.214,-4.1387,-3.9551,-3.8102,-3.6997,-3.5591,-3.4839,-3.4527,-3.4009,-3.41,-3.4509,-3.4009,-3.3807,-3.3793,-3.3643,-3.3605,-3.3545,-3.3301,-3.3008,-3.2669,-3.2197,-3.1804,-3.1487,-3.1269,-3.119,-3.119,-3.119,-3.119,-3.097,-3.0042,-2.9399,-2.8756,-2.7757,-2.7097,-2.6691,-2.6691,-2.6691,-2.6607,-2.635,-2.6068,-2.5705,-2.5176,-2.4739,-2.4287,-2.3803,-2.3674,-2.3595,-2.3595,-2.3595,-2.3595,-2.3595,-2.3595,-2.3595,-2.3595,-2.3595,-2.3595,-2.3595,-2.3595,-2.3595,-2.3595,-2.3595,-2.3595,-2.3595,-2.3135,-2.2717,-2.2397,-2.1708,-2.1229,-2.0961,-2.1314,-2.1825,-2.8068,-2.8528,-2.8791,-2.9626,-2.9795,-2.9758,-2.9758,-2.9701,-2.9626,-2.9626,-2.9799,-3.0216,0.0,0.0,-3.2889,-3.6226,-3.6207,-3.7212,-4.1351,-4.0603,-4.0526,0.0,0.0,0.0,0.0,0.0,0.0,-4.3158,0.0,-4.4508,-4.4787,-4.4788,-4.4546,-4.402,-4.4005,-4.4005,-4.4005,-4.3968,-4.3463,-4.2527,-4.232,-4.1374,-3.9808,-3.8927,-3.7679,-3.6193,-3.5316,-3.4509,-3.3807,-3.3807,-3.3807,-3.3807,-3.3807,-3.3807,-3.3793,-3.3643,-3.3605,-3.3577,-3.3452,-3.2943,-3.2351,-3.2334,-3.1841,-3.1249,-3.123,-3.121,-3.119,-3.119,-3.119,-3.119,-3.114,-3.0127,-2.9044,-2.8959,-2.7825,-2.6742,-2.6708,-2.6691,-2.6691,-2.6691,-2.5997,-2.5387,-2.5387,-2.4502,-2.3739,-2.3616,-2.3595,-2.3595,-2.3595,-2.3595,-2.3595,-2.3595,-2.3595,-2.3595,-2.3595,-2.3595,-2.3595,-2.3595,-2.3595,-2.3595,-2.3595,-2.3595,-2.3595,-2.3595,-2.3157,-2.2912,-2.2889,-2.1898,-2.141,-2.1412,-2.1468,-2.1812,-2.9331,-3.0274,-3.1203,-3.1429,-3.1034,-3.0593,-3.0593,-2.9636,-2.8735,-2.8735,-2.8385,-2.8184,-2.8503,0.0,0.0,-3.4673,-3.5916,0.0,-4.0681,-4.1255,0.0,-4.2241,0.0,-4.3769,-4.3343,-4.3232,0.0,0.0,-4.4264,-4.4518,-4.4787,-4.4788,-4.4546,-4.402,-4.4005,-4.4005,-4.4005,-4.341,-4.261,-4.1622,-4.0391,-3.9525,-3.8946,-3.6876,-3.572,-3.5279,-3.4454,-3.399,-3.3807,-3.3807,-3.3807,-3.3807,-3.3807,-3.3807,-3.3793,-3.3712,-3.3629,-3.3591,-3.3491,-3.3316,-3.307,-3.2765,-3.2368,-3.195,-3.1657,-3.1408,-3.119,-3.119,-3.119,-3.1072,-3.0531,-3.0108,-2.9533,-2.8365,-2.7807,-2.7367,-2.6826,-2.6691,-2.6691,-2.6691,-2.5997,-2.5368,-2.5275,-2.4446,-2.3739,-2.3616,-2.3595,-2.3595,-2.3595,-2.3595,-2.3595,-2.3595,-2.3595,-2.3595,-2.3595,-2.3595,-2.3595,-2.3595,-2.3595,-2.3595,-2.3595,-2.3595,-2.3595,-2.3595,-2.3486,-2.3246,-2.2889,-2.2235,-2.1756,-2.1412,-2.1468,-2.1825,-2.9129,-3.0141,-3.1158,-3.1495,-3.0978,-3.0377,-3.0377,-2.9354,-2.8209,-2.7486,-2.7061,0.0,-2.6973,0.0,0.0,0.0,0.0,0.0,-4.0848,-4.2048,-4.2841,0.0,-4.4523,0.0,-4.4446,-4.4367,-4.4532,0.0,-4.4627,-4.4518,-4.4787,-4.4788,-4.4546,-4.402,-4.4005,-4.3838,-4.3485,-4.2686,-4.1775,-4.0757,-3.9501,-3.8453,-3.7588,-3.5811,-3.4821,-3.4454,0.0,-3.3807,-3.3807,-3.3807,-3.3807,-3.3807,-3.3807,-3.3807,-3.3775,-3.3726,-3.3675,-3.3591,-3.352,-3.3452,-3.3316,-3.2923,-3.2452,-3.1986,-3.1769,-3.1485,-3.119,-3.119,-3.119,-3.1106,-3.0683,-3.0345,-2.9869,-2.9024,-2.8551,-2.8213,-2.7808,-2.7435,-2.7012,-2.6434,-2.5726,-2.5137,-2.4863,-2.4194,-2.3696,-2.3595,-2.3595,-2.3595,-2.3595,-2.3595,-2.3595,-2.3595,-2.3595,-2.3595,-2.3595,-2.3595,-2.3595,-2.3595,-2.3595,-2.3595,-2.3595,-2.3595,-2.3595,-2.3595,-2.3595,-2.3465,-2.3201,-2.2452,-2.1964,-2.1684,-2.1316,-2.1616,-2.8491,-2.9315,-3.0157,-3.0913,-3.049,-2.987,-2.9748,-2.8968,-2.7833,-2.632,0.0,-2.5934,-2.6043,-2.7005,-2.8887,-3.2201,0.0,-3.7005,-4.1255,-4.2589,-4.375,-4.5432,-4.5729,-4.5807,-4.5807,-4.571,-4.5631,-4.5633,-4.4758,-4.4421,-4.4846,-4.4812,-4.4508,-4.3853,-4.3745,-4.3299,-4.2482,-4.1776,-4.0941,-3.9941,-3.9021,-3.7786,-3.6281,-3.5293,-3.4454,-3.3807,0.0,0.0,-3.3807,-3.3807,-3.3807,-3.3807,-3.3807,-3.3775,-3.378,-3.3726,-3.3643,-3.3577,-3.352,-3.3452,-3.3349,-3.2988,-3.2384,-3.1787,-3.1787,-3.1506,-3.119,-3.119,-3.119,-3.119,-3.119,-3.0649,-3.0091,-2.9989,-2.9381,-2.8807,-2.8722,-2.8128,-2.7277,-2.6056,-2.5389,-2.4847,-2.439,-2.3931,-2.3595,-2.3595,-2.3595,-2.3595,-2.3595,-2.3595,-2.3595,-2.3595,-2.3595,-2.3595,-2.3595,-2.3595,-2.3595,-2.3595,-2.3595,-2.3595,-2.3595,-2.3595,-2.3595,-2.3595,-2.3595,-2.3595,-2.3595,-2.2657,-2.2175,-2.2081,-2.1271,-2.1405,-2.9521,-3.0292,-3.1085,-3.1937,-3.153,-3.0746,-2.9969,-2.8594,0.0,0.0,0.0,-2.5016,-2.5247,-2.6623,0.0,-3.1539,0.0,0.0,0.0,0.0,-4.2879,0.0,0.0,0.0,0.0,0.0,0.0,0.0,0.0,0.0,-4.5156,-4.4962,-4.4244,-4.3036,-4.2352,-4.1627,-4.081,-4.0694,-4.0135,-3.9182,-3.7641,-3.6726,-3.6333,-3.4734,-3.3935,-3.3807,0.0,0.0,-3.3807,-3.3807,-3.3807,-3.3807,-3.3807,-3.3766,-3.3712,-3.3698,-3.3615,-3.3524,-3.3491,-3.3452,-3.3378,-3.3334,-3.2798,-3.2196,-3.2196,-3.1731,-3.119,-3.119,-3.119,-3.119,-3.119,-3.0649,-2.9956,-2.9348,-2.8586,-2.7841,-2.7232,-2.6944,-2.6637,-2.6082,-2.5446,-2.4871,-2.445,-2.3943,-2.3595,-2.3595,-2.3595,-2.3595,-2.3595,-2.3595,-2.3595,-2.3595,-2.3595,-2.3595,-2.3595,-2.3595,-2.3595,-2.3595,-2.3595,-2.3595,-2.3595,-2.3595,-2.3595,-2.3595,-2.3595,-2.3595,-2.3595,-2.3046,-2.2535,-2.2095,-2.206,-2.1884,-2.7989,-2.8635,-2.9539,-3.0787,-3.0154,-2.9217,-2.9233,0.0,0.0,0.0,0.0,-2.4889,-2.4974,0.0,0.0,0.0,0.0,0.0,0.0,0.0,0.0,0.0,0.0,0.0,0.0,0.0,0.0,0.0,0.0,0.0,-4.3915,-4.3528,-4.2951,-4.2199,-4.1386,-4.0791,-4.0416,-3.9937,-3.9249,-3.8307,-3.7073,-3.621,-3.5629,-3.4371,-3.3807,-3.3807,-3.3807,0.0,-3.3807,-3.3807,-3.3807,-3.3807,-3.3807,-3.378,-3.3753,-3.3712,-3.3647,-3.3549,-3.3506,-3.3179,-3.2777,-3.2777,-3.2681,-3.2448,-3.1893,-3.1601,-3.1257,-3.0319,-3.0328,-3.0531,-3.0142,-2.9786,-2.9431,-2.9077,-2.8722,-2.8213,-2.7452,-2.7196,-2.6956,-2.6361,-2.5556,-2.4887,-2.4688,-2.4053,-2.3595,-2.3595,-2.3595,-2.3595,-2.3595,-2.3595,-2.3595,-2.3595,-2.3595,-2.3595,-2.3595,-2.3595,-2.3595,-2.3595,-2.3595,-2.3595,-2.3595,-2.3595,-2.3595,-2.3595,-2.3595,-2.3595,-2.3595,-2.3135,-2.2777,-2.2512,-2.2309,-2.2092,-2.632,-2.679,-2.7651,-2.9277,-2.856,-2.7649,-2.8317,-2.7307,0.0,0.0,-2.4949,-2.503,-2.4986,0.0,0.0,0.0,0.0,0.0,0.0,0.0,0.0,0.0,0.0,0.0,0.0,0.0,0.0,0.0,0.0,0.0,-4.2632,-4.207,-4.16,-4.1345,-4.0564,-4.0118,-4.0118,-3.9435,-3.8637,-3.7734,-3.6906,-3.5993,-3.5041,-3.4187,-3.3807,-3.3807,-3.3807,0.0,0.0,-3.3807,-3.3807,-3.377,-3.3605,-3.3537,-3.3505,-3.3273,-3.3131,-3.3067,-3.2997,-3.2526,-3.1926,-3.1926,-3.2107,-3.2159,-3.1301,-3.1115,-3.0899,-2.948,-2.9453,-2.9736,-2.9162,-2.8874,-2.8687,-2.8553,-2.8519,-2.8333,-2.7689,-2.7482,-2.7173,-2.6481,-2.5647,-2.5001,-2.4819,-2.4209,-2.3717,-2.3616,-2.3595,-2.3595,-2.3595,-2.3595,-2.3595,-2.3595,-2.3595,-2.3595,-2.3595,-2.3595,-2.3595,-2.3595,-2.3595,-2.3595,-2.3595,-2.3595,-2.3595,-2.3595,-2.3595,-2.3595,-2.3595,-2.3224,-2.3001,-2.2889,-2.2466,-2.2205,-2.6261,-2.6489,-2.6906,-2.8572,-2.8324,-2.7681,-2.7703,0.0,0.0,-2.5171,-2.5091,-2.5203,-2.5255,-2.5397,0.0,0.0,0.0,0.0,0.0,0.0,0.0,0.0,0.0,0.0,0.0,0.0,0.0,0.0,0.0,0.0,0.0,-4.162,-4.0972,-4.0523,-3.9658,-3.9212,-3.9212,-3.9138,-3.8692,-3.788,-3.6943,-3.608,-3.524,-3.426,-3.3807,-3.3807,0.0,0.0,0.0,-3.3807,-3.3807,-3.3733,-3.2999,-3.2672,-3.2527,-3.1796,-3.1448,-3.1329,-3.1315,-3.122,-3.1111,-3.1111,-3.0923,-3.0698,-3.0597,-3.011,-2.9575,-2.942,-2.9244,-2.9094,-2.9027,-2.8467,-2.7739,-2.7063,-2.6911,-2.6877,-2.681,-2.6742,-2.6535,-2.5975,-2.574,-2.5365,-2.4492,-2.4281,-2.4094,-2.3659,-2.3595,-2.3595,-2.3595,-2.3595,-2.3595,-2.3595,-2.3595,-2.3595,-2.3595,-2.3595,-2.3595,-2.3595,-2.3595,-2.3595,-2.3595,-2.3595,-2.3595,-2.3595,-2.3595,-2.3595,-2.3595,-2.3551,-2.3312,-2.2889,-2.2844,-2.2347,-2.5735,-2.5823,-2.6186,-2.7832,-2.7267,-2.6559,-2.7502,0.0,-2.5677,-2.5264,-2.5293,-2.5372,-2.5357,-2.5441,-2.577,0.0,-2.6896,-2.8419,0.0,0.0,0.0,0.0,0.0,0.0,0.0,0.0,0.0,0.0,0.0,0.0,0.0,-4.0627,-3.9955,-3.9157,-3.8638,-3.8154,-3.7652,-3.7652,-3.723,-3.6393,-3.5985,-3.5296,-3.4431,-3.4007,-3.3807,-3.3807,0.0,0.0,0.0,-3.3091,-3.2797,-3.232,-3.199,-3.1867,-3.1792,-3.1391,-3.1217,-3.1151,-3.107,-3.0704,-3.0273,-3.0273,-2.9872,-2.9417,-2.9698,-2.977,-2.9515,-2.8401,-2.8169,-2.818,-2.7723,-2.7385,-2.7063,-2.6759,-2.6691,-2.6674,-2.6657,-2.6589,-2.6451,-2.6155,-2.5832,-2.5462,-2.5098,-2.4619,-2.424,-2.4051,-2.3767,-2.3595,-2.3595,-2.3595,-2.3595,-2.3595,-2.3595,-2.3595,-2.3595,-2.3595,-2.3595,-2.3595,-2.3595,-2.3595,-2.3595,-2.3595,-2.3595,-2.3595,-2.3595,-2.3595,-2.3595,-2.3595,-2.3508,-2.3312,-2.3312,-2.2957,-2.5386,-2.5586,-2.6111,-2.7491,-2.6771,-2.6125,0.0,0.0,-2.5404,-2.534,-2.5437,-2.5513,-2.5464,-2.5538,-2.5601,0.0,-2.6019,-2.7443,-3.0614,0.0,0.0,0.0,0.0,0.0,0.0,0.0,0.0,0.0,0.0,0.0,0.0,-3.9719,-3.9201,-3.841,-3.7904,-3.736,-3.6783,-3.6725,-3.6265,-3.5434,-3.5369,-3.4829,-3.3921,-3.3855,-3.3815,-3.3788,0.0,0.0,0.0,-3.2339,-3.1916,-3.1378,-3.114,-3.1048,-3.1005,-3.0642,-3.0518,-3.0462,-3.0358,-2.9942,-2.9445,-2.9445,-2.9065,-2.8652,-2.899,-2.9247,-2.9147,-2.7741,-2.7398,-2.735,-2.6826,-2.6691,-2.6691,-2.6691,-2.6691,-2.6691,-2.6606,-2.6571,-2.6486,-2.633,-2.5995,-2.5649,-2.537,-2.4843,-2.439,-2.4135,-2.3824,-2.3595,-2.3595,-2.3595,-2.3595,-2.3595,-2.3595,-2.3595,-2.3595,-2.3595,-2.3595,-2.3595,-2.3595,-2.3595,-2.3595,-2.3595,-2.3595,-2.3595,-2.3595,-2.3595,-2.3595,-2.3595,-2.3595,-2.3595,-2.3595,-2.3355,-2.5378,-2.6028,-2.6877,-2.7702,-2.7239,-2.6814,0.0,-2.6651,-2.5472,-2.5414,-2.5511,-2.5595,-2.5599,-2.5609,-2.5601,-2.5601,-2.6997,-2.8967,-3.153,0.0,0.0,0.0,0.0,0.0,0.0,0.0,0.0,0.0,0.0,0.0,0.0,-3.9161,-3.888,-3.8612,-3.7559,-3.7019,-3.7,-3.6795,-3.6309,-3.551,-3.5434,-3.4907,-3.3998,-3.3934,-3.3855,0.0,0.0,0.0,0.0,-3.1733,-3.1415,-3.1323,-3.0522,-3.021,-3.0106,-2.924,-2.8876,-2.8822,-2.8755,-2.8662,-2.8618,-2.8618,-2.8618,-2.86,-2.8618,-2.837,-2.8051,-2.7771,-2.7211,-2.6708,-2.6691,-2.6691,-2.6691,-2.6691,-2.6691,-2.6691,-2.6606,-2.6589,-2.6537,-2.633,-2.6295,-2.5995,-2.5079,-2.4902,-2.4603,-2.3745,-2.3595,-2.3595,-2.3595,-2.3595,-2.3595,-2.3595,-2.3595,-2.3595,-2.3595,-2.3595,-2.3595,-2.3595,-2.3595,-2.3595,-2.3595,-2.3595,-2.3595,-2.3595,-2.3595,-2.3595,-2.3595,-2.3595,-2.3595,-2.3595,-2.3595,-2.3355,-2.5529,-2.5744,-2.6121,-2.6888,-2.6486,-2.6121,-2.6908,-2.6308,-2.5554,-2.5531,-2.5567,-2.5598,-2.5595,-2.5598,-2.5987,-2.7113,0.0,0.0,0.0,0.0,0.0,0.0,0.0,0.0,0.0,0.0,0.0,0.0,0.0,0.0,0.0,-3.8756,-3.7996,-3.7108,-3.6622,-3.6113,-3.5575,-3.5371,-3.5146,-3.4884,-3.463,-3.4333,-3.3998,-3.3934,0.0,0.0,0.0,0.0,0.0,-3.0687,-3.0265,-2.9721,-2.9482,-2.9372,-2.9342,-2.8979,-2.881,-2.8773,-2.8675,-2.8612,-2.86,-2.86,-2.86,-2.8562,-2.8326,-2.8051,-2.771,-2.718,-2.6857,-2.6691,-2.6691,-2.6691,-2.6691,-2.6691,-2.6657,-2.6623,-2.6554,-2.6468,-2.6365,-2.6258,-2.6222,-2.6133,-2.5844,-2.5288,-2.4803,-2.4542,-2.3985,-2.3595,-2.3595,-2.3595,-2.3595,-2.3595,-2.3595,-2.3595,-2.3595,-2.3595,-2.3595,-2.3595,-2.3595,-2.3595,-2.3595,-2.3595,-2.3595,-2.3595,-2.3595,-2.3595,-2.3595,-2.3595,-2.3595,-2.3595,-2.3595,-2.3508,0.0,-2.5829,-2.6194,-2.6662,-2.6431,-2.6214,-2.6662,-2.6178,-2.5601,-2.5601,-2.5601,-2.5601,-2.5601,-2.5601,-2.5948,-2.6997,0.0,0.0,0.0,0.0,0.0,0.0,0.0,0.0,0.0,0.0,0.0,0.0,0.0,0.0,0.0,0.0,-3.7125,-3.6098,-3.5869,-3.5523,-3.5019,-3.4802,-3.471,-3.471,-3.4469,-3.4286,-3.4093,-3.3772,0.0,0.0,0.0,0.0,0.0,-2.9879,-2.9445,-2.9005,-2.9005,-2.9005,-2.8982,-2.8846,-2.8798,-2.8773,-2.865,-2.86,-2.86,-2.86,-2.86,-2.8531,-2.8201,-2.7808,-2.7413,-2.7005,-2.6808,-2.6691,-2.6691,-2.6691,-2.6657,-2.6657,-2.6623,-2.6537,-2.6434,-2.6365,-2.6294,-2.6203,-2.6202,-2.615,-2.5972,-2.5497,-2.5005,-2.4719,-2.4209,-2.3803,-2.3616,-2.3595,-2.3595,-2.3595,-2.3595,-2.3595,-2.3595,-2.3595,-2.3595,-2.3595,-2.3595,-2.3595,-2.3595,-2.3595,-2.3595,-2.3595,-2.3595,-2.3595,-2.3595,-2.3595,-2.3595,-2.3595,-2.3595,-2.3595,0.0,-2.611,-2.6808,-2.6808,-2.6808,-2.6808,-2.6808,-2.6184,0.0,-2.5601,-2.5601,-2.5621,-2.5679,-2.564,-2.5679,-2.5912,0.0,0.0,0.0,0.0,0.0,0.0,0.0,0.0,0.0,0.0,0.0,0.0,0.0,0.0,0.0,0.0,-3.6395,-3.5526,-3.5324,-3.5226,-3.5226,-3.5028,-3.4927,-3.4927,-3.4851,-3.4605,-3.4222,-3.3456,0.0,0.0,0.0,0.0,0.0,-2.931,-2.9005,-2.9005,-2.9005,-2.8994,-2.8982,-2.8846,-2.8785,-2.8773,-2.8637,-2.86,-2.86,-2.86,-2.8587,-2.8505,-2.8183,-2.7692,-2.7228,-2.7197,-2.6956,-2.6691,-2.6691,-2.6657,-2.6589,-2.6589,-2.6537,-2.6451,-2.633,-2.6295,-2.6277,-2.6203,-2.6202,-2.6061,-2.5612,-2.5521,-2.5237,-2.4451,-2.4323,-2.4135,-2.3659,-2.3595,-2.3595,-2.3595,-2.3595,-2.3595,-2.3595,-2.3595,-2.3595,-2.3595,-2.3595,-2.3595,-2.3595,-2.3595,-2.3595,-2.3595,-2.3595,-2.3595,-2.3595,-2.3595,-2.3595,-2.3595,-2.3595,-2.3595,-2.4777,0.0,-2.5912,-2.5912,-2.5912,-2.5912,0.0,-2.5757,-2.5601,-2.5601,0.0,-2.5795,-2.6478,-2.6048,-2.6456,0.0,0.0,0.0,0.0,0.0,0.0,0.0,0.0,0.0,0.0,0.0,0.0,0.0,0.0,0.0,0.0,0.0,-3.6408,-3.5534,-3.5448,-3.5432,-3.5432,-3.5234,-3.5124,-3.5124,-3.4964,-3.4433,-3.3604,-3.3424,0.0,0.0,0.0,0.0,-2.9476,-2.914,-2.9005,-2.9005,-2.9005,-2.8964,-2.8917,-2.8834,-2.8773,-2.8724,-2.8625,-2.86,-2.86,-2.86,-2.8422,-2.8197,-2.8129,-2.7869,-2.7537,-2.7276,-2.6956,-2.6691,-2.6691,-2.6657,-2.6589,-2.6589,-2.6469,-2.6347,-2.6313,-2.6259,-2.6221,-2.6203,-2.6202,-2.6168,-2.6061,-2.574,-2.5332,-2.4823,-2.4492,-2.4135,-2.3659,-2.3595,-2.3595,-2.3595,-2.3595,-2.3595,-2.3595,-2.3595,-2.3595,-2.3595,-2.3595,-2.3595,-2.3595,-2.3595,-2.3595,-2.3595,-2.3595,-2.3595,-2.3595,-2.3595,-2.3595,-2.3595,-2.3595,-2.3595,-2.4319,-2.4938,-2.5601,-2.5601,-2.5601,-2.5601,-2.5601,0.0,0.0,0.0,0.0,-2.5737,-2.6223,0.0,0.0,0.0,0.0,0.0,0.0,0.0,0.0,0.0,0.0,0.0,0.0,0.0,0.0,0.0,0.0,0.0,0.0,0.0,-3.525,-3.4372,-3.4347,-3.4712,-3.5481,-3.5383,-3.5147,-3.4745,-3.4598,-3.3997,-3.2975,-3.2579,0.0,0.0,0.0,0.0,-2.9425,-2.9217,-2.9138,-2.9127,-2.9051,-2.8982,-2.8929,-2.8834,-2.8773,-2.8737,-2.8637,-2.86,-2.86,-2.86,-2.8479,-2.8326,-2.8326,-2.812,-2.7783,-2.7321,-2.6956,-2.6691,-2.6691,-2.6657,-2.6606,-2.6571,-2.6417,-2.6295,-2.6259,-2.6239,-2.6202,-2.6202,-2.6202,-2.6202,-2.6202,-2.599,-2.5666,-2.5237,-2.4823,-2.4431,-2.3973,-2.3724,-2.3595,-2.3595,-2.3595,-2.3595,-2.3595,-2.3595,-2.3595,-2.3595,-2.3595,-2.3595,-2.3595,-2.3595,-2.3595,-2.3595,-2.3595,-2.3595,-2.3595,-2.3595,-2.3595,-2.3595,-2.3595,-2.3595,-2.3908,-2.4746,-2.5432,-2.5562,-2.5601,-2.5601,-2.5607,0.0,0.0,0.0,0.0,0.0,0.0,0.0,0.0,0.0,0.0,0.0,0.0,0.0,0.0,0.0,0.0,0.0,0.0,0.0,0.0,0.0,0.0,0.0,0.0,0.0,0.0,-3.3421,-3.3261,-3.3872,-3.5295,-3.518,-3.4737,-3.3994,-3.3942,-3.3372,-3.2344,-3.1607,0.0,0.0,0.0,0.0,-2.9635,-2.9405,-2.9304,-2.9272,-2.9089,-2.8994,-2.897,-2.8846,-2.8785,-2.8761,-2.8637,-2.86,-2.86,-2.86,-2.86,-2.86,-2.86,-2.8383,-2.7992,-2.7472,-2.7052,-2.6741,-2.6708,-2.6623,-2.6537,-2.6468,-2.6365,-2.6277,-2.6203,-2.6202,-2.6202,-2.6202,-2.6202,-2.6202,-2.6202,-2.6202,-2.6043,-2.5575,-2.5198,-2.4823,-2.4364,-2.3952,-2.3681,-2.3595,-2.3595,-2.3595,-2.3595,-2.3595,-2.3595,-2.3595,-2.3595,-2.3595,-2.3595,-2.3595,-2.3595,-2.3595,-2.3595,-2.3595,-2.3595,-2.3595,-2.3595,-2.3595,-2.3595,-2.3595,-2.3154,-2.3833,-2.4681,-2.5413,-2.5601,-2.5607,-2.5595,0.0,0.0,0.0,0.0,0.0,0.0,0.0,0.0,0.0,0.0,0.0,0.0,0.0,0.0,0.0,0.0,0.0,0.0,0.0,0.0,0.0,0.0,0.0,0.0,0.0,0.0,-3.5183,-3.4435,-3.4135,-3.4398,-3.3673,-3.3237,-3.3103,-3.3096,-3.2609,-3.1738,-3.1602,-3.1087,0.0,0.0,-2.9855,-2.983,-2.9455,-2.9304,-2.9272,-2.9089,-2.897,-2.8905,-2.8822,-2.8761,-2.8694,-2.8625,-2.86,-2.86,-2.86,-2.86,-2.86,-2.86,-2.8383,-2.8088,-2.7992,-2.7532,-2.6973,-2.6691,-2.6486,-2.6348,-2.633,-2.6276,-2.6203,-2.6203,-2.6202,-2.6202,-2.6202,-2.6202,-2.6202,-2.6202,-2.6202,-2.6043,-2.5575,-2.5446,-2.5141,-2.4405,-2.424,-2.4036,-2.3638,-2.3595,-2.3595,-2.3595,-2.3595,-2.3595,-2.3595,-2.3595,-2.3595,-2.3595,-2.3595,-2.3595,-2.3595,-2.3595,-2.3595,-2.3595,-2.3595,-2.3595,-2.3595,-2.3595,-2.3595,-2.2299,-2.2931,-2.3816,-2.4674,-2.56,-2.6296,-2.631,0.0,0.0,0.0,0.0,0.0,0.0,0.0,0.0,0.0,0.0,0.0,0.0,0.0,0.0,0.0,0.0,0.0,0.0,0.0,0.0,0.0,0.0,0.0,0.0,0.0,0.0,0.0,-3.3359,-3.2887,-3.2844,-3.198,-3.1795,-3.2256,-3.2256,-3.1808,-3.0943,-3.0912,-3.067,-3.026,0.0,-3.0053,-3.0034,-2.9635,-2.9465,-2.9435,-2.9115,-2.8952,-2.8893,-2.8785,-2.8712,-2.865,-2.8612,-2.86,-2.86,-2.86,-2.86,-2.86,-2.86,-2.844,-2.8219,-2.8051,-2.7562,-2.7053,-2.6908,-2.664,-2.6382,-2.6313,-2.6277,-2.624,-2.6203,-2.6202,-2.6202,-2.6202,-2.6202,-2.6202,-2.6202,-2.6202,-2.6043,-2.5575,-2.5313,-2.4962,-2.4385,-2.4078,-2.3846,-2.3616,-2.3595,-2.3595,-2.3595,-2.3595,-2.3595,-2.3595,-2.3595,-2.3595,-2.3595,-2.3595,-2.3595,-2.3595,-2.3595,-2.3595,-2.3595,-2.3595,-2.3595,-2.3595,-2.3595,-2.3595,-2.1655,-2.2343,-2.323,-2.4112,0.0,-2.6654,-2.6878,0.0,0.0,0.0,0.0,0.0,0.0,0.0,0.0,0.0,0.0,0.0,0.0,0.0,0.0,0.0,0.0,0.0,0.0,0.0,0.0,0.0,0.0,0.0,0.0,0.0,0.0,0.0,-3.2836,-3.2262,-3.2016,-3.1133,-3.0942,-3.141,-3.141,-3.1038,-3.0404,-3.0329,-3.0299,-3.0305,-3.0221,-3.0206,-3.0164,-2.9769,-2.9608,-2.9561,-2.916,-2.894,-2.887,-2.8755,-2.8675,-2.86,-2.86,-2.86,-2.86,-2.86,-2.86,-2.86,-2.86,-2.8523,-2.8393,-2.8138,-2.7622,-2.7149,-2.7021,-2.6725,-2.6398,-2.6294,-2.6277,-2.6259,-2.6203,-2.6202,-2.6202,-2.6202,-2.6202,-2.6152,-2.597,-2.5937,-2.5766,-2.5232,-2.5032,-2.4763,-2.4259,-2.4034,-2.3831,-2.3616,-2.3595,-2.3595,-2.3595,-2.3595,-2.3595,-2.3595,-2.3595,-2.3595,-2.3595,-2.3595,-2.3595,-2.3595,-2.3595,-2.3595,-2.3595,-2.3595,-2.3595,-2.3595,-2.3595,-2.3595,-2.15,-2.2377,-2.3294,-2.4174,-2.5042,0.0,-2.6791,-2.7032,0.0,0.0,0.0,0.0,0.0,0.0,0.0,0.0,0.0,0.0,0.0,0.0,0.0,0.0,0.0,0.0,0.0,0.0,0.0,0.0,0.0,0.0,0.0,0.0,0.0,0.0,0.0,-3.3728,-3.2908,-3.2044,-3.1231,-3.05,-3.05,-3.0462,-3.0404,-3.0324,-3.0292,-3.0305,-3.0219,-3.0192,-3.0164,-2.9769,-2.9608,-2.9561,-2.916,-2.8923,-2.8798,-2.8785,-2.8712,-2.86,-2.86,-2.86,-2.86,-2.86,-2.86,-2.86,-2.86,-2.8587,-2.8574,-2.8562,-2.7982,-2.7288,-2.6841,-2.6486,-2.622,-2.6203,-2.6203,-2.6203,-2.6202,-2.6202,-2.6202,-2.6202,-2.6202,-2.597,-2.5292,-2.5193,-2.4944,-2.4232,-2.4678,-2.4777,-2.3942,-2.4394,-2.4502,-2.3681,-2.3595,-2.3595,-2.3595,-2.3595,-2.3595,-2.3595,-2.3595,-2.3595,-2.3595,-2.3595,-2.3595,-2.3595,-2.3595,-2.3595,-2.3595,-2.3595,-2.3595,-2.3595,-2.3595,-2.3595,-2.1015,-2.1976,-2.3138,-2.3493,-2.4594,0.0,0.0,0.0,0.0,0.0,0.0,0.0,0.0,0.0,0.0,0.0,0.0,0.0,0.0,0.0,0.0,0.0,0.0,0.0,0.0,0.0,0.0,0.0,0.0,0.0,0.0,0.0,0.0,0.0,0.0,-3.4145,-3.3805,-3.2422,-3.1525,-3.1192,-3.0654,-3.0404,-3.0404,-3.0323,-3.0292,-3.0305,-3.024,-3.0206,-3.0171,-2.9905,-2.9707,-2.9561,-2.9071,-2.8834,-2.8785,-2.87,-2.8637,-2.86,-2.86,-2.86,-2.86,-2.86,-2.8536,-2.8489,-2.8489,-2.8353,-2.8232,-2.8232,-2.7716,-2.7148,-2.7131,-2.6657,-2.6202,-2.6202,-2.6202,-2.6202,-2.6202,-2.6202,-2.6202,-2.6202,-2.6202,-2.597,-2.5243,-2.511,-2.476,-2.3782,-2.3862,-2.389,-2.3484,-2.3313,-2.3159,-2.3065,-2.3047,-2.3176,-2.3565,-2.3595,-2.3595,-2.3595,-2.3595,-2.3595,-2.3595,-2.3595,-2.3595,-2.3595,-2.3595,-2.3595,-2.3595,-2.3595,-2.3595,-2.3595,-2.3595,-2.3595,-2.1032,-2.2122,-2.3414,0.0,0.0,0.0,0.0,0.0,0.0,0.0,0.0,0.0,0.0,0.0,0.0,0.0,0.0,0.0,0.0,0.0,0.0,0.0,0.0,0.0,0.0,0.0,0.0,0.0,0.0,0.0,0.0,0.0,0.0,0.0,0.0,0.0,-3.3882,-3.2434,-3.1551,-3.1269,-3.0673,-3.0404,-3.0404,-3.0336,-3.0305,-3.0305,-3.0227,-3.0194,-3.0178,-2.9988,-2.9742,-2.9474,-2.9086,-2.8863,-2.8785,-2.8675,-2.8612,-2.86,-2.86,-2.86,-2.86,-2.86,-2.8536,-2.8463,-2.8406,-2.8259,-2.8109,-2.8067,-2.7567,-2.7101,-2.7289,-2.6775,-2.6202,-2.6202,-2.6202,-2.6202,-2.6202,-2.6202,-2.6202,-2.6202,-2.6202,-2.5887,-2.4928,-2.4762,-2.4331,-2.3079,-2.2994,-2.3008,-2.2754,-2.2428,-2.2282,-2.2369,-2.2568,-2.2868,-2.3266,-2.349,-2.3595,-2.3595,-2.3595,-2.3595,-2.3595,-2.3595,-2.3595,-2.3595,-2.3595,-2.3595,-2.3595,-2.3595,-2.3595,-2.3595,-2.3595,-2.3595,-2.1692,-2.2976,-2.4283,0.0,0.0,0.0,0.0,0.0,0.0,0.0,0.0,0.0,0.0,0.0,0.0,0.0,0.0,0.0,0.0,0.0,0.0,0.0,0.0,0.0,0.0,0.0,0.0,0.0,0.0,0.0,0.0,0.0,0.0,0.0,0.0,0.0,-3.3004,-3.2131,-3.1266,-3.0404,-3.0404,-3.0404,-3.0404,-3.0336,-3.0305,-3.0305,-3.0227,-3.0194,-3.0178,-2.9988,-2.9662,-2.9304,-2.923,-2.9041,-2.8785,-2.8737,-2.8662,-2.86,-2.86,-2.86,-2.86,-2.86,-2.86,-2.8574,-2.8432,-2.8411,-2.8367,-2.8228,-2.7698,-2.7197,-2.7197,-2.6691,-2.6202,-2.6202,-2.6202,-2.6202,-2.6202,-2.6185,-2.6185,-2.6185,-2.6169,-2.5705,-2.4249,-2.3984,-2.3487,-2.2028,-2.213,-2.223,-2.1758,-2.2033,-2.2126,-2.1739,-2.2298,-2.2688,-2.2703,-2.3236,-2.3595,-2.3595,-2.3595,-2.3595,-2.3595,-2.3595,-2.3595,-2.3595,-2.3595,-2.3595,-2.3595,-2.3595,-2.3595,-2.3595,-2.3595,-2.3595,-2.1679,-2.2513,0.0,0.0,0.0,0.0,0.0,0.0,0.0,0.0,0.0,0.0,0.0,0.0,0.0,0.0,0.0,0.0,0.0,0.0,0.0,0.0,0.0,0.0,0.0,0.0,0.0,0.0,0.0,0.0,0.0,0.0,0.0,0.0,0.0,0.0,-3.3076,-3.2154,-3.1567,-3.1305,-3.0685,-3.0404,-3.0404,-3.0336,-3.0298,-3.0305,-3.0221,-3.0207,-3.0187,-2.9977,-2.983,-2.9689,-2.9345,-2.9123,-2.8989,-2.8791,-2.8662,-2.86,-2.86,-2.86,-2.86,-2.86,-2.8536,-2.8445,-2.8406,-2.8327,-2.8187,-2.7876,-2.7507,-2.7133,-2.6859,-2.6486,-2.6202,-2.6202,-2.6202,-2.6202,-2.6202,-2.5788,-2.5424,-2.5424,-2.5011,-2.4348,-2.3388,-2.3222,-2.2891,-2.1945,-2.1706,-2.1391,-2.0726,-2.095,-2.1125,-2.1006,-2.1605,-2.2194,-2.2658,-2.3236,-2.3415,-2.3002,-2.2972,-2.3167,-2.358,-2.3595,-2.3595,-2.3595,-2.3595,-2.3595,-2.3595,-2.3595,-2.3595,-2.3595,-2.3595,-2.3595,-2.2533,0.0,0.0,0.0,0.0,0.0,0.0,0.0,0.0,0.0,0.0,0.0,0.0,0.0,0.0,0.0,0.0,0.0,0.0,0.0,0.0,0.0,0.0,0.0,0.0,0.0,0.0,0.0,0.0,0.0,0.0,0.0,0.0,0.0,0.0,0.0,-3.2587,-3.1675,-3.1199,-3.1187,-3.0652,-3.0404,-3.0404,-3.0367,-3.0336,-3.0304,-3.0228,-3.0207,-3.0187,-3.0072,-2.998,-2.9864,-2.9446,-2.9212,-2.9071,-2.8761,-2.8637,-2.86,-2.86,-2.86,-2.86,-2.86,-2.8554,-2.8458,-2.8424,-2.8125,-2.7808,-2.7776,-2.7267,-2.6724,-2.6757,-2.6486,-2.6202,-2.6202,-2.6202,-2.6119,-2.5821,-2.5407,-2.5011,-2.4729,-2.4299,-2.3768,-2.3023,-2.2891,-2.2642,-2.1912,-2.151,-2.1199,-2.0905,-2.0795,-2.0944,-2.1519,-2.1516,-2.1784,-2.247,-2.2987,-2.2972,-2.2343,-2.2553,-2.2748,-2.2832,-2.2847,-2.2847,-2.2847,-2.2847,-2.2966,-2.3236,-2.3236,-2.3236,-2.3236,-2.3236,-2.3086,-2.3739,0.0,0.0,0.0,0.0,0.0,0.0,0.0,0.0,0.0,0.0,0.0,0.0,0.0,0.0,0.0,0.0,0.0,0.0,0.0,0.0,0.0,0.0,0.0,0.0,0.0,0.0,0.0,0.0,0.0,0.0,0.0,0.0,0.0,0.0,0.0,-3.1458,-3.0674,-3.0237,0.0,-3.0171,-3.0173,-3.0173,-3.0327,-3.0367,-3.0298,-3.0247,-3.0219,-3.0211,-3.0211,-3.0079,-2.9888,-2.9542,-2.9289,-2.9093,-2.8743,-2.86,-2.86,-2.86,-2.86,-2.86,-2.86,-2.86,-2.8574,-2.8463,-2.7903,-2.7394,-2.7857,-2.7037,-2.6153,-2.6715,-2.6455,-2.6022,-2.6005,-2.6053,-2.5921,-2.5243,-2.4994,-2.4713,-2.4033,-2.3851,-2.3586,-2.2907,-2.2791,-2.2559,-2.1867,-2.1495,-2.1424,-2.1749,-2.127,-2.1364,-2.2617,-2.1942,-2.1624,-2.2209,-2.2506,-2.2388,-2.165,-2.2179,-2.2224,-2.1545,-2.1635,-2.1695,-2.1695,-2.1695,-2.1994,-2.2613,-2.2613,-2.2613,-2.2613,-2.2613,-2.2283,0.0,-2.3692,0.0,0.0,0.0,0.0,0.0,0.0,0.0,0.0,0.0,0.0,0.0,0.0,0.0,0.0,0.0,0.0,0.0,0.0,0.0,0.0,0.0,0.0,0.0,0.0,0.0,0.0,0.0,0.0,0.0,0.0,0.0,0.0,0.0,-2.9321,-2.8814,-2.8632,-2.8507,0.0,-2.8433,-2.8445,-2.8486,-2.9808,-3.0355,-3.0299,-3.0286,-3.0246,-3.0211,-3.0211,-3.0171,-3.0087,-2.9643,-2.9409,-2.9279,-2.8838,-2.865,-2.86,-2.86,-2.86,-2.86,-2.86,-2.86,-2.8587,-2.8562,-2.8345,-2.8098,-2.7897,-2.711,-2.6244,-2.5908,-2.5277,-2.4678,-2.4497,-2.4928,-2.5292,-2.5143,-2.4199,-2.3321,-2.3172,-2.2659,-2.2212,-2.2046,-2.2044,-2.1904,-2.1465,-2.1356,-2.1247,-2.1049,-2.1364,-2.1576,-2.1574,-2.2331,-2.2574,-2.1887,-2.2354,-2.2194,-2.0991,-2.1051,-2.0827,-2.0172,-2.1126,-2.1695,-2.1695,-2.1695,-2.1769,-2.1924,-2.1924,-2.1924,-2.1924,-2.1924,-2.1829,0.0,0.0,0.0,0.0,0.0,0.0,0.0,0.0,0.0,0.0,0.0,0.0,0.0,0.0,0.0,0.0,0.0,0.0,0.0,0.0,0.0,0.0,0.0,0.0,0.0,0.0,0.0,0.0,0.0,0.0,0.0,0.0,0.0,0.0,-2.8734,-2.8512,-2.8047,-2.8021,-2.7976,-2.7899,-2.7903,-2.7897,-2.7934,-2.8794,-2.9164,-2.9104,-2.9104,-2.9066,-2.9,-2.9,-2.9,-2.8973,-2.8585,-2.8379,-2.8203,-2.7831,-2.7833,-2.8038,-2.8038,-2.8274,-2.86,-2.86,-2.8346,-2.8038,-2.8038,-2.7447,-2.6782,-2.6832,-2.6126,-2.5321,-2.5287,-2.4777,-2.4271,-2.4161,-2.4364,-2.4481,-2.4116,-2.3437,-2.2791,-2.2427,-2.2046,-2.1812,-2.1812,-2.1812,-2.1736,-2.1572,-2.1541,-2.1547,-2.1568,-2.1838,-2.2163,-2.2452,-2.2372,-2.2194,-2.2002,-2.1848,-2.1306,-2.0288,-2.0509,-2.0408,-1.9738,-2.0382,-2.0737,-2.0737,-2.0737,-2.0902,-2.1231,-2.1231,-2.1231,-2.1231,-2.1231,-2.1051,0.0,0.0,0.0,0.0,0.0,0.0,0.0,0.0,0.0,0.0,0.0,0.0,0.0,0.0,0.0,0.0,0.0,0.0,0.0,0.0,0.0,0.0,0.0,0.0,0.0,0.0,0.0,0.0,0.0,0.0,0.0,0.0,-2.8111,-2.7902,-2.7887,-2.7825,-2.7657,-2.7598,-2.7535,-2.7479,-2.7465,-2.7454,-2.7448,-2.7448,-2.7575,-2.7806,-2.78,-2.7764,-2.7708,-2.7701,-2.7701,-2.7663,-2.7396,-2.718,-2.6971,-2.6703,-2.6951,-2.7369,-2.7242,-2.7803,-2.8545,-2.8274,-2.7821,-2.7369,-2.7224,-2.6223,-2.5221,-2.5684,-2.4994,-2.4235,-2.4656,-2.4334,-2.3901,-2.3887,-2.3747,-2.3487,-2.3007,-2.2791,-2.2542,-2.1928,-2.1812,-2.1812,-2.1812,-2.1812,-2.1812,-2.1812,-2.1812,-2.1921,-2.2247,-2.2362,-2.2729,-2.3599,-2.2352,-2.1679,-2.2171,-2.1277,-2.0423,-1.9753,-2.0228,-2.0288,-1.9723,-1.9708,-1.9708,-1.9708,-1.9708,-1.9974,-2.0543,-2.0543,-2.0543,-2.0543,-2.0543,-2.0228,0.0,0.0,0.0,0.0,0.0,0.0,0.0,0.0,0.0,0.0,0.0,0.0,0.0,0.0,0.0,0.0,0.0,0.0,0.0,0.0,0.0,0.0,0.0,0.0,0.0,0.0,0.0,0.0,0.0,0.0,0.0,-2.8223,-2.7847,-2.7083,-2.7053,-2.6671,-2.5851,-2.5838,-2.5795,-2.5726,-2.5725,-2.5707,-2.5654,-2.5654,-2.6422,-2.7791,-2.7792,-2.7757,-2.7695,-2.7708,-2.7701,-2.7663,-2.7396,-2.718,-2.6971,-2.6703,-2.6951,-2.7296,-2.659,-2.7333,-2.8364,-2.6971,-2.6916,-2.726,-2.6584,-2.6051,-2.5713,-2.5777,-2.4909,-2.3921,-2.3804,-2.3087,-2.2356,-2.2184,-2.2109,-2.2243,-2.2775,-2.2409,-2.1928,-2.1829,-2.1812,-2.1812,-2.1812,-2.1812,-2.1812,-2.1812,-2.1812,-2.1831,-2.1868,-2.2432,-2.2818,-2.2864,-2.2695,-2.2372,-2.1838,-2.1135,-2.0423,-1.9753,-1.9765,-1.9798,-1.9708,-1.9708,-1.9708,-1.9708,-1.9708,-1.9753,-1.9842,-1.9842,-1.9842,-1.9842,-1.9842,-1.9798,0.0,0.0,0.0,0.0,0.0,0.0,0.0,0.0,0.0,0.0,0.0,0.0,0.0,0.0,0.0,0.0,0.0,0.0,0.0,0.0,0.0,0.0,0.0,0.0,0.0,0.0,0.0,0.0,0.0,0.0,-2.6839,-2.6812,-2.662,-2.6249,-2.6222,-2.6023,-2.5616,-2.5539,-2.5479,-2.5401,-2.5397,-2.5389,-2.5356,-2.5317,-2.5696,-2.64,-2.6354,-2.6326,-2.6291,-2.6306,-2.6294,-2.6288,-2.618,-2.5914,-2.558,-2.5476,-2.5697,-2.6005,-2.566,-2.6283,-2.7133,-2.6427,-2.6131,-2.5986,-2.5624,-2.5102,-2.461,-2.4528,-2.397,-2.3363,-2.3191,-2.2616,-2.2082,-2.1998,-2.1884,-2.1895,-2.221,-2.2029,-2.1812,-2.1812,-2.1812,-2.1812,-2.1812,-2.1812,-2.1812,-2.1812,-2.1812,-2.1661,-2.1293,-2.1811,-2.2073,-2.1618,-2.1608,-2.1492,-2.116,-2.0528,-2.0004,-1.9723,-1.9708,-1.9708,-1.9708,-1.9708,-1.9708,-1.9708,-1.9708,-1.9708,-1.9708,-1.9708,-1.9708,-1.9708,-1.9708,-1.9708,0.0,0.0,0.0,0.0,0.0,0.0,0.0,0.0,0.0,0.0,0.0,0.0,0.0,0.0,0.0,0.0,0.0,0.0,0.0,0.0,0.0,0.0,0.0,0.0,0.0,0.0,0.0,0.0,0.0,0.0,-2.5707,-2.5495,-2.5361,-2.5362,-2.5156,-2.5034,-2.5048,-2.4921,-2.4943,-2.5097,-2.511,-2.5195,-2.5398,-2.5351,-2.5327,-2.5297,-2.5252,-2.5225,-2.5198,-2.5195,-2.5197,-2.5185,-2.5137,-2.4874,-2.4513,-2.4474,-2.4699,-2.4994,-2.4784,-2.5353,-2.6131,-2.5715,-2.5316,-2.4954,-2.4755,-2.4238,-2.3667,-2.3539,-2.3211,-2.2871,-2.2747,-2.2381,-2.201,-2.201,-2.1897,-2.1812,-2.1812,-2.1812,-2.1812,-2.1812,-2.1812,-2.1812,-2.1812,-2.1812,-2.1812,-2.1812,-2.1738,-2.1494,-2.099,-2.1254,-2.1305,-2.0869,-2.0674,-2.0606,-2.0692,-2.0094,-1.9708,-1.9708,-1.9708,-1.9708,-1.9708,-1.9708,-1.9708,-1.9708,-1.9708,-1.9708,-1.9708,-1.9708,-1.9708,-1.9708,-1.9708,-1.9708,0.0,0.0,0.0,0.0,0.0,0.0,0.0,0.0,0.0,0.0,0.0,0.0,0.0,0.0,0.0,0.0,0.0,0.0,0.0,0.0,0.0,0.0,0.0,0.0,0.0,0.0,0.0,0.0,0.0,0.0,-2.5707,-2.4925,-2.4479,-2.4465,-2.3668,-2.3242,-2.3232,-2.3164,-2.3503,-2.4255,-2.4254,-2.4666,-2.5398,-2.5394,-2.5356,-2.5303,-2.5297,-2.5252,-2.5206,-2.5204,-2.5195,-2.518,-2.4987,-2.4771,-2.4575,-2.4374,-2.4629,-2.4976,-2.4142,-2.4882,-2.595,-2.4411,-2.4411,-2.4864,-2.4085,-2.3786,-2.3667,-2.3539,-2.3091,-2.2595,-2.2521,-2.2161,-2.1827,-2.1827,-2.1796,-2.1812,-2.1812,-2.1812,-2.1812,-2.1812,-2.1812,-2.1812,-2.1812,-2.1812,-2.1812,-2.1812,-2.1541,-2.1309,-2.1277,-2.1022,-2.0927,-2.1147,-2.0619,-2.0353,-2.0666,-2.0094,-1.9708,-1.9708,-1.9708,-1.9708,-1.9708,-1.9708,-1.9708,-1.9708,-1.9708,-1.9708,-1.9708,-1.9708,-1.9708,-1.9708,-1.9708,-1.9708,0.0,0.0,0.0,0.0,0.0,0.0,0.0,0.0,0.0,0.0,0.0,0.0,0.0,0.0,0.0,0.0,0.0,0.0,0.0,0.0,0.0,0.0,0.0,0.0,0.0,0.0,0.0,0.0,0.0,0.0,-2.4906,-2.4573,-2.4145,-2.3583,-2.3254,-2.3105,-2.3095,-2.3036,-2.314,-2.3426,-2.3394,-2.3516,-2.3816,-2.4334,-2.4547,-2.4562,-2.5086,-2.5297,-2.5252,-2.5209,-2.5206,-2.5184,-2.4987,-2.479,-2.4575,-2.4365,-2.4299,-2.4268,-2.3925,-2.4176,-2.4556,-2.3976,-2.3994,-2.4176,-2.3896,-2.375,-2.3689,-2.3634,-2.3324,-2.2908,-2.2643,-2.233,-2.2068,-2.1855,-2.1812,-2.1812,-2.1812,-2.1812,-2.1812,-2.1812,-2.1812,-2.1812,-2.1812,-2.1812,-2.1812,-2.1812,-2.1708,-2.1541,-2.1341,-2.1006,-2.0839,-2.094,-2.0292,-2.0015,-2.0347,-1.9954,-1.9708,-1.9708,-1.9708,-1.9708,-1.9708,-1.9708,-1.9708,-1.9708,-1.9708,-1.9708,-1.9708,-1.9708,-1.9708,-1.9708,-1.9708,-1.9708,0.0,0.0,0.0,0.0,0.0,0.0,0.0,0.0,0.0,0.0,0.0,0.0,0.0,0.0,0.0,0.0,0.0,0.0,0.0,0.0,0.0,0.0,0.0,0.0,0.0,0.0,0.0,0.0,0.0,0.0,-2.4006,-2.3714,-2.3169,-2.2293,-2.2258,-2.2264,-2.2262,-2.2196,-2.2314,-2.2608,-2.2527,-2.2643,-2.291,-2.3441,-2.367,-2.3715,-2.4548,-2.5048,-2.5287,-2.5225,-2.5198,-2.5176,-2.4922,-2.4746,-2.4591,-2.4339,-2.4124,-2.3947,-2.3858,-2.3827,-2.3827,-2.3806,-2.3806,-2.3806,-2.3806,-2.3771,-2.3725,-2.3711,-2.3417,-2.3037,-2.2742,-2.2412,-2.211,-2.1855,-2.1812,-2.1812,-2.1812,-2.1812,-2.1812,-2.1812,-2.1812,-2.1812,-2.1812,-2.1812,-2.1812,-2.1812,-2.1691,-2.1556,-2.1324,-2.1006,-2.0794,-2.0794,-2.0239,-1.9962,-2.0174,-1.9892,-1.9708,-1.9708,-1.9708,-1.9708,-1.9708,-1.9708,-1.9708,-1.9708,-1.9708,-1.9708,-1.9708,-1.9708,-1.9708,-1.9708,-1.9708,-1.9708,0.0,0.0,0.0,0.0,0.0,0.0,0.0,0.0,0.0,0.0,0.0,0.0,0.0,0.0,0.0,0.0,0.0,0.0,0.0,0.0,0.0,0.0,0.0,0.0,0.0,0.0,0.0,0.0,0.0,-2.4017,-2.3105,-2.2307,-2.1473,-2.0638,-2.0601,-2.0603,-2.0604,-2.0529,-2.0925,-2.1758,-2.1687,-2.2065,-2.2817,-2.2856,-2.2832,-2.2808,-2.3676,-2.4495,-2.521,-2.5203,-2.5195,-2.5164,-2.483,-2.47,-2.466,-2.4247,-2.4094,-2.4084,-2.3937,-2.3907,-2.3896,-2.3816,-2.3806,-2.3806,-2.3806,-2.3806,-2.3803,-2.3714,-2.3324,-2.2903,-2.2825,-2.2354,-2.1899,-2.1811,-2.1796,-2.1796,-2.1796,-2.1812,-2.1812,-2.1812,-2.1812,-2.1812,-2.1812,-2.1812,-2.1812,-2.1812,-2.1526,-2.1309,-2.1309,-2.1006,-2.0811,-2.0811,-2.0446,-2.0191,-2.0191,-1.9892,-1.9708,-1.9708,-1.9708,-1.9708,-1.9708,-1.9708,-1.9708,-1.9708,-1.9708,-1.9708,-1.9708,-1.9708,-1.9708,-1.9708,-1.9708,-1.9708,-1.6441,0.0,0.0,0.0,0.0,0.0,0.0,0.0,0.0,0.0,0.0,0.0,0.0,0.0,0.0,0.0,0.0,0.0,0.0,0.0,0.0,0.0,0.0,0.0,0.0,0.0,0.0,0.0,-2.4394,-2.3769,-2.2318,-2.1415,-2.0847,-2.0615,-2.0598,-2.0601,-2.0603,-2.0533,-2.0618,-2.0867,-2.0792,-2.084,-2.1039,-2.1663,-2.1953,-2.1983,-2.2804,-2.3287,-2.3587,-2.4734,-2.5195,-2.5164,-2.483,-2.47,-2.466,-2.4247,-2.4094,-2.4084,-2.4006,-2.3937,-2.3896,-2.3886,-2.3837,-2.3806,-2.3806,-2.3806,-2.3795,-2.3782,-2.3558,-2.3236,-2.2769,-2.2309,-2.1969,-2.1955,-2.1897,-2.1869,-2.1869,-2.1825,-2.1812,-2.1812,-2.1812,-2.1812,-2.1812,-2.1812,-2.1812,-2.1812,-2.1723,-2.1646,-2.1646,-2.1151,-2.0893,-2.1135,-2.0361,-1.9927,-2.0174,-1.9892,-1.9708,-1.9708,-1.9708,-1.9708,-1.9708,-1.9708,-1.9708,-1.9708,-1.9708,-1.9708,-1.9708,-1.9708,-1.9708,-1.9708,-1.9708,-1.9708,0.0,0.0,0.0,0.0,0.0,0.0,0.0,0.0,0.0,0.0,0.0,0.0,0.0,0.0,0.0,0.0,0.0,0.0,0.0,0.0,0.0,0.0,0.0,0.0,0.0,0.0,0.0,0.0,-2.4059,-2.3124,-2.1442,-2.0855,-2.056,-2.0594,-2.0598,-2.06,-2.0601,-2.0534,-2.0504,-2.0501,-2.0426,-2.0379,-2.0354,-2.0843,-2.1057,-2.1109,-2.1949,-2.2271,-2.2352,-2.3669,-2.4406,-2.4703,-2.4768,-2.4749,-2.4668,-2.4347,-2.4182,-2.4123,-2.4056,-2.3996,-2.3927,-2.3907,-2.3847,-2.3806,-2.3806,-2.3806,-2.3806,-2.3806,-2.3569,-2.3194,-2.2588,-2.2245,-2.2075,-2.2013,-2.1969,-2.194,-2.194,-2.1899,-2.1825,-2.1812,-2.1812,-2.1812,-2.1812,-2.1812,-2.1812,-2.1812,-2.1812,-2.1753,-2.1617,-2.1262,-2.1023,-2.1087,-2.0378,-1.998,-2.0174,-1.9892,-1.9708,-1.9708,-1.9708,-1.9708,-1.9708,-1.9708,-1.9708,-1.9708,-1.9708,-1.9708,-1.9708,-1.9708,-1.9708,-1.9708,-1.9708,-1.9708,0.0,-1.8096,0.0,0.0,0.0,0.0,-1.9122,-1.9092,0.0,0.0,0.0,0.0,0.0,0.0,0.0,0.0,0.0,0.0,0.0,0.0,0.0,0.0,0.0,0.0,0.0,0.0,-2.5184,-2.4314,-2.3376,-2.2167,-2.0681,-2.0546,-2.0545,-2.0595,-2.0598,-2.0599,-2.0599,-2.0536,-2.0507,-2.0504,-2.0429,-2.0402,-2.0399,-2.0331,-2.0318,-2.0336,-2.1128,-2.142,-2.1436,-2.2301,-2.318,-2.4035,-2.4563,-2.4736,-2.4684,-2.4458,-2.4311,-2.419,-2.4123,-2.4074,-2.3996,-2.3927,-2.3876,-2.3806,-2.3806,-2.3806,-2.3795,-2.3742,-2.3393,-2.2935,-2.2349,-2.2214,-2.2183,-2.2058,-2.2027,-2.2013,-2.2013,-2.1955,-2.1899,-2.1825,-2.1812,-2.1812,-2.1812,-2.1812,-2.1812,-2.1812,-2.1812,-2.1676,-2.1387,-2.1324,-2.1167,-2.0844,-2.0446,-2.0174,-2.0139,-1.9871,-1.9708,-1.9708,-1.9708,-1.9708,-1.9708,-1.9708,-1.9708,-1.9708,-1.9708,-1.9708,-1.9708,-1.9708,-1.9708,-1.9708,-1.9708,-1.9708,-1.9481,-1.9344,-1.9151,0.0,0.0,0.0,0.0,-1.7326,0.0,0.0,0.0,0.0,0.0,0.0,0.0,0.0,0.0,0.0,0.0,0.0,0.0,0.0,0.0,0.0,0.0,0.0,-2.4282,-2.3427,-2.1947,-2.0954,-2.0623,-2.0586,-2.0583,-2.0601,-2.0597,-2.0596,-2.0599,-2.0521,-2.0498,-2.0504,-2.042,-2.0395,-2.0402,-2.0399,-2.035,-2.0318,-2.0475,-2.0546,-2.0597,-2.1426,-2.2609,-2.3913,-2.3922,-2.4252,-2.4684,-2.4458,-2.4311,-2.419,-2.418,-2.4141,-2.4074,-2.4006,-2.3945,-2.3876,-2.3816,-2.3806,-2.3721,-2.3335,-2.3022,-2.2712,-2.238,-2.2282,-2.2268,-2.2237,-2.2194,-2.2168,-2.2168,-2.2061,-2.1955,-2.1882,-2.184,-2.1812,-2.1812,-2.1812,-2.1812,-2.1812,-2.1812,-2.1783,-2.1706,-2.1464,-2.1167,-2.0844,-2.0446,-2.0087,-1.9818,-1.9744,-1.9708,-1.9708,-1.9708,-1.9708,-1.9708,-1.9708,-1.9708,-1.9708,-1.9708,-1.9708,-1.9708,-1.9708,-1.9708,-1.9708,-1.9708,-1.9708,0.0,0.0,-1.9467,-1.8684,0.0,0.0,0.0,0.0,0.0,0.0,0.0,0.0,0.0,0.0,0.0,0.0,0.0,0.0,0.0,0.0,0.0,0.0,0.0,0.0,0.0,0.0,-2.3403,-2.2563,-2.1686,-2.1025,-2.0621,-2.0566,-2.0565,-2.0601,-2.0595,-2.0592,-2.0596,-2.0523,-2.0503,-2.0492,-2.0427,-2.0398,-2.0402,-2.0402,-2.0357,-2.0305,-2.0295,-2.0294,-2.0319,-2.0743,-2.1605,-2.2743,-2.3076,-2.3543,-2.4046,-2.3942,-2.4031,-2.419,-2.419,-2.4161,-2.4094,-2.4064,-2.3986,-2.3896,-2.3865,-2.3771,-2.3569,-2.32,-2.2897,-2.2632,-2.238,-2.2296,-2.2296,-2.2296,-2.2268,-2.224,-2.224,-2.2166,-2.2092,-2.2049,-2.1974,-2.1884,-2.1796,-2.1812,-2.1812,-2.1812,-2.1812,-2.1753,-2.1555,-2.1262,-2.0909,-2.053,-2.0172,-1.9874,-1.9711,-1.9708,-1.9708,-1.9708,-1.9708,-1.9708,-1.9708,-1.9708,-1.9708,-1.9708,-1.9708,-1.9708,-1.9708,-1.9708,-1.9708,-1.9708,-1.9708,-1.9708,0.0,0.0,0.0,0.0,0.0,-1.9324,0.0,0.0,0.0,-2.0145,0.0,0.0,0.0,0.0,0.0,0.0,0.0,0.0,0.0,0.0,0.0,0.0,0.0,0.0,0.0,0.0,-2.2428,-2.1939,-2.1542,-2.1116,-2.0639,-2.0544,-2.0547,-2.0603,-2.0596,-2.0591,-2.0594,-2.0525,-2.0506,-2.0499,-2.0434,-2.0404,-2.0405,-2.0402,-2.0376,-2.0328,-2.0308,-2.0304,-2.0307,-2.0304,-2.0673,-2.1305,-2.2125,-2.2841,-2.3397,-2.336,-2.3712,-2.419,-2.419,-2.4161,-2.4132,-2.4103,-2.4006,-2.3896,-2.3896,-2.3685,-2.3371,-2.317,-2.2876,-2.2565,-2.2366,-2.2296,-2.2296,-2.2296,-2.2296,-2.2296,-2.2296,-2.2271,-2.2228,-2.2214,-2.2106,-2.2001,-2.1855,-2.1825,-2.1811,-2.1811,-2.1751,-2.1617,-2.1324,-2.1006,-2.0646,-2.0243,-1.9962,-1.9764,-1.9708,-1.9708,-1.9708,-1.9708,-1.9708,-1.9708,-1.9708,-1.9708,-1.9708,-1.9708,-1.9708,-1.9708,-1.9708,-1.9708,-1.9708,-1.9708,-1.9708,-1.9672,0.0,0.0,0.0,0.0,-2.0665,0.0,0.0,0.0,-1.9201,-1.7905,0.0,0.0,0.0,0.0,0.0,0.0,0.0,0.0,0.0,0.0,0.0,0.0,0.0,0.0,0.0,0.0,0.0,-2.1841,-2.0455,-1.9889,-2.0555,-2.058,-2.0584,-2.0605,-2.0603,-2.0598,-2.0594,-2.0526,-2.0493,-2.0506,-2.0428,-2.0402,-2.0404,-2.0408,-2.0399,-2.0399,-2.0331,-2.0295,-2.029,-2.0292,-2.0275,-2.0332,-2.1136,-2.2261,-2.34,-2.326,-2.3645,-2.419,-2.419,-2.4208,-2.418,-2.4113,-2.4006,-2.3896,-2.3896,-2.3547,-2.3128,-2.3103,-2.2734,-2.2338,-2.231,-2.2296,-2.2296,-2.2296,-2.2296,-2.2296,-2.2296,-2.2296,-2.2268,-2.2214,-2.22,-2.2137,-2.1998,-2.1926,-2.1899,-2.1899,-2.1602,-2.134,-2.1293,-2.1006,-2.0646,-2.0243,-2.0156,-2.0015,-1.9744,-1.9708,-1.9708,-1.9708,-1.9708,-1.9708,-1.9708,-1.9708,-1.9708,-1.9708,-1.9708,-1.9708,-1.9708,-1.9708,-1.9708,-1.9708,-1.9708,-1.9508,0.0,0.0,0.0,0.0,0.0,0.0,0.0,0.0,-1.9585,0.0,0.0,0.0,0.0,0.0,0.0,0.0,0.0,0.0,0.0,0.0,0.0,0.0,0.0,0.0,0.0,0.0,0.0,0.0,0.0,-1.9675,-2.0555,-2.0601,-2.0583,-2.0543,-2.0547,-2.0547,-2.0547,-2.0512,-2.0494,-2.0504,-2.0437,-2.0405,-2.0407,-2.0408,-2.0402,-2.0399,-2.0376,-2.034,-2.0294,-2.0306,-2.0211,-2.0131,-2.0389,-2.1067,-2.1886,-2.1831,-2.2239,-2.2804,-2.2804,-2.3107,-2.3575,-2.3967,-2.4064,-2.4006,-2.3917,-2.3628,-2.3301,-2.314,-2.2838,-2.2501,-2.2338,-2.2296,-2.2296,-2.2296,-2.2296,-2.2296,-2.2296,-2.2296,-2.2282,-2.2254,-2.2254,-2.224,-2.2178,-2.2015,-2.1913,-2.1913,-2.1721,-2.1526,-2.1341,-2.1006,-2.0646,-2.0243,-2.0032,-1.9854,-1.9711,-1.9708,-1.9708,-1.9708,-1.9708,-1.9708,-1.9708,-1.9708,-1.9708,-1.9708,-1.9708,-1.9708,-1.9708,-1.9708,-1.9708,-1.9708,-1.9708,-1.9617,-1.9896,0.0,0.0,0.0,0.0,0.0,0.0,0.0,0.0,0.0,0.0,0.0,0.0,0.0,0.0,0.0,0.0,0.0,0.0,0.0,0.0,0.0,0.0,0.0,0.0,0.0,0.0,0.0,0.0,0.0,-2.0535,-2.06,-2.0581,-2.0538,-2.0524,-2.0524,-2.0498,-2.0499,-2.05,-2.0508,-2.043,-2.0408,-2.0396,-2.0392,-2.0266,-2.0054,-2.0305,-2.0231,-1.9992,-2.0201,-2.0192,-2.0031,-1.9934,-2.0126,-2.0466,-2.0667,-2.1179,-2.1793,-2.1803,-2.2336,-2.3125,-2.3867,-2.4103,-2.4084,-2.3986,-2.3721,-2.3405,-2.317,-2.2871,-2.2582,-2.2366,-2.2296,-2.2296,-2.2296,-2.2296,-2.2296,-2.2296,-2.2296,-2.2296,-2.2296,-2.2282,-2.2268,-2.2268,-2.2106,-2.1988,-2.1988,-2.1825,-2.1586,-2.1246,-2.0877,-2.0513,-2.012,-1.9854,-1.9708,-1.9708,-1.9708,-1.9708,-1.9708,-1.9708,-1.9708,-1.9708,-1.9708,-1.9708,-1.9708,-1.9708,-1.9708,-1.9708,-1.9708,-1.9708,-1.9708,-1.9708,-1.9654,0.0,0.0,0.0,-1.8943,0.0,0.0,0.0,0.0,-1.9525,0.0,0.0,0.0,0.0,0.0,0.0,0.0,0.0,0.0,0.0,0.0,0.0,0.0,0.0,0.0,0.0,0.0,0.0,0.0,0.0,0.0,-2.0516,-2.0594,-2.0596,-2.0601,-2.0601,-2.0562,-2.0504,-2.0509,-2.0492,-2.0498,-2.0434,-2.0394,-2.0394,-2.0398,-1.9938,-1.9183,-2.0034,-1.9925,-1.9191,-1.9973,-2.0148,-1.9917,-1.9904,-1.9744,-1.9633,-2.0346,-2.1107,-2.1799,-2.1793,-2.2336,-2.3134,-2.3933,-2.4161,-2.4094,-2.4094,-2.3728,-2.3271,-2.3135,-2.276,-2.2391,-2.2324,-2.2296,-2.2296,-2.2296,-2.2296,-2.2296,-2.2296,-2.2296,-2.2296,-2.2296,-2.224,-2.2214,-2.2214,-2.22,-2.22,-2.22,-2.1797,-2.137,-2.0958,-2.0565,-2.0158,-1.9764,-1.9708,-1.9708,-1.9708,-1.9708,-1.9708,-1.9708,-1.9708,-1.9708,-1.9708,-1.9708,-1.9708,-1.9708,-1.9708,-1.9708,-1.9708,-1.9708,-1.9708,-1.9708,-1.9708,-1.9475,0.0,0.0,-2.0752,-1.8795,0.0,0.0,0.0,0.0,0.0,0.0,0.0,0.0,0.0,0.0,0.0,0.0,0.0,0.0,0.0,0.0,0.0,0.0,0.0,0.0,0.0,0.0,0.0,0.0,0.0,0.0,0.0,-2.0521,-2.0523,-2.0539,-2.0539,-2.0515,-2.0504,-2.0499,-2.0502,-2.0495,-2.0434,-2.0106,-1.9543,-1.9549,-1.9067,-1.8258,-1.8548,-1.8846,-1.9117,-1.9355,-1.9626,-1.9893,-1.9904,-1.9751,-1.958,-1.9804,-2.0017,-2.0281,-2.0766,-2.1492,-2.2336,-2.3144,-2.3758,-2.4113,-2.3907,-2.3689,-2.3416,-2.3017,-2.276,-2.2555,-2.2352,-2.2296,-2.2296,-2.2296,-2.2296,-2.2296,-2.2296,-2.2296,-2.2296,-2.2296,-2.2282,-2.224,-2.2214,-2.22,-2.2168,-2.2075,-2.1735,-2.1338,-2.0958,-2.0597,-2.0206,-1.9762,-1.9708,-1.9708,-1.9708,-1.9708,-1.9708,-1.9708,-1.9708,-1.9708,-1.9708,-1.9708,-1.9708,-1.9708,-1.9708,-1.9708,-1.9708,-1.9708,-1.9708,-1.9708,-1.9708,-1.9475,-1.9822,-2.0148,0.0,0.0,-1.8952,0.0,-1.825,0.0,0.0,0.0,0.0,0.0,0.0,0.0,0.0,0.0,0.0,0.0,0.0,0.0,0.0,0.0,0.0,0.0,0.0,0.0,-1.6508,-1.7738,0.0,0.0,0.0,0.0,-2.049,-2.0506,-2.0501,-2.0494,-2.0499,-2.0495,-2.0497,-2.0507,-2.0138,-1.9662,-1.91,-1.8778,-1.8183,-1.739,-1.7678,-1.7962,-1.8257,-1.8802,-1.9212,-1.9504,-1.9782,-1.9788,-1.9602,-1.9512,-1.9435,-1.9467,-2.0244,-2.0859,-2.151,-2.2639,-2.3354,-2.3757,-2.3705,-2.361,-2.3432,-2.29,-2.2708,-2.2565,-2.2366,-2.2296,-2.2296,-2.2296,-2.2296,-2.2296,-2.2296,-2.2296,-2.2296,-2.2296,-2.2282,-2.224,-2.2214,-2.2168,-2.2046,-2.1853,-2.1645,-2.1307,-2.0763,-2.0497,-2.0189,-1.9762,-1.9708,-1.9708,-1.9708,-1.9708,-1.9708,-1.9708,-1.9708,-1.9708,-1.9708,-1.9708,-1.9708,-1.9708,-1.9708,-1.9708,-1.9708,-1.9708,-1.9708,-1.9708,-1.9708,-1.9475]},{"header":{"parameterUnit":"m.s-1","parameterCategory":1,"la1":30.6,"la2":29.2853,"lo1":-89.7004,"lo2":-87.6739,"dy":0.0162,"dx":0.0183,"nx":112,"ny":82,"refTime":"2024-07-12T00:00:00:Z","depth":0,"parameterNumber":3,"parameterNumberName":"V-component_of_WINDS"},"data":[0.0,0.0,0.0,0.0,0.0,0.0,0.0,0.0,0.0,0.0,0.0,0.0,0.0,0.0,0.0,0.0,0.0,0.0,0.0,0.0,0.0,0.0,0.0,0.0,0.0,0.0,0.0,0.0,0.0,0.0,0.0,0.0,0.0,0.0,0.0,0.0,0.0,0.0,0.0,0.0,0.0,0.0,0.0,0.0,0.0,0.0,0.0,0.0,0.0,0.0,0.0,0.0,0.0,0.0,0.0,0.0,0.0,0.0,0.0,0.0,0.0,0.0,0.0,0.0,0.0,0.0,0.0,0.0,0.0,0.0,0.0,0.0,0.0,0.0,0.0,0.0,0.0,0.0,0.0,0.0,0.0,0.0,0.0,0.0,0.0,0.0,0.0,0.0,0.0,0.0,0.0,-1.6945,-1.8412,-1.9274,-1.9219,-1.8843,-1.81,-1.6915,0.0,0.0,0.0,0.0,0.0,0.0,0.0,0.0,0.0,0.0,0.0,0.0,0.0,0.0,0.0,0.0,0.0,0.0,0.0,0.0,0.0,0.0,0.0,0.0,0.0,0.0,0.0,0.0,0.0,0.0,0.0,0.0,0.0,0.0,0.0,0.0,0.0,0.0,0.0,0.0,0.0,0.0,0.0,0.0,0.0,0.0,0.0,0.0,0.0,0.0,0.0,0.0,0.0,0.0,0.0,0.0,0.0,0.0,0.0,0.0,0.0,0.0,0.0,0.0,0.0,0.0,0.0,0.0,0.0,0.0,0.0,0.0,0.0,0.0,0.0,0.0,0.0,0.0,0.0,0.0,0.0,0.0,0.0,0.0,0.0,0.0,0.0,0.0,0.0,0.0,0.0,0.0,0.0,0.0,0.0,0.0,0.0,0.0,0.0,0.0,0.0,0.0,0.0,0.0,-1.546,-1.7661,-1.876,-1.9164,-1.8834,-1.8402,-1.7724,-1.6618,0.0,0.0,0.0,0.0,0.0,0.0,0.0,0.0,0.0,0.0,0.0,0.0,0.0,0.0,0.0,0.0,0.0,0.0,0.0,0.0,0.0,0.0,0.0,0.0,0.0,0.0,0.0,0.0,0.0,0.0,0.0,0.0,0.0,0.0,0.0,0.0,0.0,0.0,0.0,0.0,0.0,0.0,0.0,0.0,0.0,0.0,0.0,0.0,0.0,0.0,0.0,0.0,0.0,0.0,0.0,0.0,0.0,0.0,0.0,0.0,0.0,0.0,0.0,0.0,0.0,0.0,0.0,0.0,0.0,0.0,0.0,0.0,0.0,0.0,0.0,0.0,0.0,0.0,0.0,0.0,0.0,0.0,0.0,0.0,0.0,0.0,0.0,0.0,0.0,0.0,0.0,0.0,0.0,0.0,0.0,0.0,0.0,0.0,0.0,0.0,0.0,0.0,0.0,-1.512,-1.6132,-1.7898,-1.8834,-1.9146,-1.8742,-1.831,-1.7632,-1.6559,-1.5235,0.0,0.0,0.0,0.0,0.0,0.0,0.0,0.0,0.0,0.0,0.0,0.0,0.0,0.0,0.0,0.0,0.0,0.0,0.0,0.0,0.0,0.0,0.0,0.0,0.0,0.0,0.0,0.0,0.0,0.0,0.0,0.0,0.0,0.0,0.0,0.0,0.0,0.0,0.0,0.0,0.0,0.0,0.0,0.0,0.0,0.0,0.0,0.0,0.0,0.0,0.0,0.0,0.0,0.0,0.0,0.0,0.0,0.0,0.0,0.0,0.0,0.0,0.0,0.0,0.0,0.0,0.0,0.0,0.0,0.0,0.0,0.0,0.0,0.0,0.0,0.0,0.0,0.0,0.0,0.0,0.0,0.0,0.0,0.0,0.0,0.0,0.0,0.0,0.0,0.0,0.0,0.0,0.0,0.0,0.0,0.0,0.0,0.0,0.0,0.0,0.0,0.0,-1.6028,-1.6855,-1.7972,-1.8669,-1.8898,-1.8634,-1.8073,-1.7317,-1.6403,-1.4948,0.0,0.0,0.0,0.0,0.0,0.0,0.0,0.0,0.0,0.0,0.0,0.0,0.0,0.0,0.0,0.0,0.0,0.0,0.0,0.0,0.0,0.0,0.0,0.0,0.0,0.0,0.0,0.0,0.0,0.0,0.0,0.0,0.0,0.0,0.0,0.0,0.0,0.0,0.0,0.0,0.0,0.0,0.0,0.0,0.0,0.0,0.0,0.0,0.0,0.0,0.0,0.0,0.0,0.0,0.0,0.0,0.0,0.0,0.0,0.0,0.0,0.0,0.0,0.0,0.0,0.0,0.0,0.0,0.0,0.0,0.0,0.0,0.0,0.0,0.0,0.0,0.0,0.0,0.0,0.0,0.0,0.0,0.0,0.0,0.0,0.0,0.0,0.0,0.0,0.0,0.0,0.0,0.0,0.0,0.0,0.0,0.0,0.0,0.0,0.0,0.0,0.0,-1.5927,-1.7183,-1.7999,-1.8136,-1.8267,-1.8415,-1.7311,-1.6379,-1.5882,-1.5053,0.0,0.0,0.0,0.0,0.0,0.0,0.0,0.0,0.0,0.0,0.0,0.0,0.0,0.0,0.0,0.0,0.0,0.0,0.0,0.0,0.0,0.0,0.0,0.0,0.0,0.0,0.0,0.0,0.0,0.0,0.0,0.0,0.0,0.0,0.0,0.0,0.0,0.0,0.0,0.0,0.0,0.0,0.0,0.0,0.0,0.0,0.0,0.0,0.0,0.0,0.0,0.0,0.0,0.0,0.0,0.0,0.0,0.0,0.0,0.0,0.0,0.0,0.0,0.0,0.0,0.0,0.0,0.0,0.0,0.0,0.0,0.0,0.0,0.0,0.0,0.0,0.0,0.0,0.0,0.0,0.0,0.0,0.0,0.0,0.0,0.0,0.0,0.0,0.0,0.0,0.0,0.0,0.0,0.0,0.0,0.0,0.0,0.0,0.0,0.0,0.0,0.0,-1.5469,-1.6551,0.0,-1.7963,-1.7954,-1.7617,-1.7153,-1.6459,-1.5503,0.0,0.0,0.0,0.0,0.0,0.0,0.0,0.0,0.0,0.0,0.0,0.0,0.0,0.0,0.0,0.0,0.0,0.0,0.0,0.0,0.0,0.0,0.0,0.0,0.0,0.0,0.0,0.0,0.0,0.0,0.0,0.0,0.0,0.0,0.0,0.0,0.0,0.0,0.0,0.0,0.0,0.0,0.0,0.0,0.0,0.0,0.0,0.0,0.0,0.0,0.0,0.0,0.0,0.0,0.0,0.0,0.0,0.0,0.0,0.0,0.0,0.0,0.0,0.0,0.0,0.0,0.0,0.0,0.0,0.0,0.0,0.0,0.0,0.0,0.0,0.0,0.0,0.0,0.0,0.0,0.0,0.0,0.0,0.0,0.0,0.0,0.0,0.0,0.0,0.0,0.0,0.0,0.0,0.0,0.0,0.0,0.0,0.0,0.0,0.0,0.0,0.0,-1.4225,-1.5072,-1.5983,0.0,-1.7327,-1.7315,-1.7086,-1.6726,-1.6069,-1.5089,0.0,0.0,0.0,0.0,0.0,0.0,0.0,0.0,0.0,0.0,0.0,0.0,0.0,0.0,0.0,0.0,0.0,0.0,0.0,0.0,0.0,0.0,0.0,0.0,0.0,0.0,0.0,0.0,0.0,0.0,0.0,0.0,0.0,0.0,0.0,0.0,0.0,0.0,0.0,0.0,0.0,0.0,0.0,0.0,0.0,0.0,0.0,0.0,0.0,0.0,0.0,0.0,0.0,0.0,0.0,0.0,0.0,0.0,0.0,0.0,0.0,0.0,0.0,0.0,0.0,0.0,0.0,0.0,0.0,0.0,0.0,0.0,0.0,0.0,0.0,0.0,0.0,0.0,0.0,0.0,0.0,0.0,0.0,0.0,0.0,0.0,0.0,0.0,0.0,0.0,0.0,0.0,0.0,0.0,0.0,0.0,0.0,0.0,0.0,0.0,0.0,0.0,-1.3998,-1.4807,-1.5625,-1.6425,-1.6155,-1.6201,-1.6915,-1.5886,-1.5068,0.0,0.0,0.0,0.0,0.0,0.0,0.0,0.0,0.0,0.0,0.0,0.0,0.0,0.0,0.0,0.0,0.0,0.0,0.0,0.0,0.0,0.0,0.0,0.0,0.0,0.0,0.0,0.0,0.0,0.0,0.0,0.0,0.0,0.0,0.0,0.0,0.0,0.0,0.0,0.0,0.0,0.0,0.0,0.0,0.0,0.0,0.0,0.0,0.0,0.0,0.0,0.0,0.0,0.0,0.0,0.0,0.0,0.0,0.0,0.0,0.0,0.0,0.0,0.0,0.0,0.0,0.0,0.0,0.0,0.0,0.0,0.0,0.0,0.0,0.0,0.0,0.0,0.0,0.0,0.0,0.0,0.0,0.0,0.0,0.0,0.0,0.0,0.0,0.0,0.0,0.0,0.0,0.0,0.0,0.0,0.0,0.0,0.0,0.0,0.0,0.0,0.0,0.0,-1.3762,-1.4807,-1.5701,-1.6215,-1.6168,-1.6113,-1.6153,-1.556,-1.4941,-1.4317,0.0,0.0,0.0,0.0,0.0,0.0,0.0,0.0,0.0,0.0,0.0,0.0,0.0,0.0,0.0,0.0,0.0,0.0,0.0,0.0,0.0,0.0,0.0,0.0,0.0,0.0,0.0,0.0,0.0,0.0,0.0,0.0,0.0,0.0,0.0,0.0,0.0,0.0,0.0,0.0,0.0,0.0,0.0,0.0,0.0,0.0,0.0,0.0,0.0,0.0,0.0,0.0,0.0,0.0,0.0,0.0,0.0,0.0,0.0,0.0,0.0,0.0,0.0,0.0,0.0,0.0,0.0,0.0,0.0,0.0,0.0,0.0,0.0,0.0,0.0,0.0,0.0,0.0,0.0,0.0,0.0,0.0,0.0,0.0,0.0,0.0,0.0,0.0,0.0,0.0,0.0,0.0,0.0,0.0,0.0,0.0,0.0,0.0,0.0,0.0,0.0,0.0,-1.3506,-1.4659,-1.5535,-1.5771,-1.579,-1.5747,-1.565,-1.5284,-1.4933,-1.4716,0.0,0.0,0.0,0.0,0.0,0.0,0.0,0.0,0.0,0.0,0.0,0.0,0.0,0.0,0.0,0.0,0.0,0.0,0.0,0.0,0.0,0.0,0.0,0.0,0.0,0.0,0.0,0.0,0.0,0.0,0.0,0.0,0.0,0.0,0.0,0.0,0.0,0.0,0.0,0.0,0.0,0.0,0.0,0.0,0.0,0.0,0.0,0.0,0.0,0.0,0.0,0.0,0.0,0.0,0.0,0.0,0.0,0.0,0.0,0.0,0.0,0.0,0.0,0.0,0.0,0.0,0.0,0.0,0.0,0.0,0.0,0.0,0.0,0.0,0.0,0.0,0.0,0.0,0.0,0.0,0.0,0.0,0.0,0.0,0.0,0.0,0.0,0.0,0.0,0.0,0.0,0.0,0.0,0.0,0.0,0.0,0.0,0.0,0.0,0.0,0.0,0.0,-1.3259,-1.4388,-1.5167,-1.5205,-1.5244,-1.5332,-1.5468,-1.5105,-1.508,-1.5585,0.0,0.0,0.0,0.0,0.0,0.0,0.0,0.0,0.0,0.0,0.0,0.0,0.0,0.0,0.0,0.0,0.0,0.0,0.0,0.0,0.0,0.0,0.0,0.0,0.0,0.0,0.0,0.0,0.0,0.0,0.0,0.0,0.0,0.0,0.0,0.0,0.0,0.0,0.0,0.0,0.0,0.0,0.0,0.0,0.0,0.0,0.0,0.0,0.0,0.0,0.0,0.0,0.0,0.0,0.0,0.0,0.0,0.0,0.0,0.0,-0.8723,0.0,0.0,0.0,0.0,0.0,0.0,0.0,0.0,0.0,0.0,0.0,0.0,0.0,0.0,0.0,0.0,0.0,0.0,0.0,0.0,0.0,0.0,0.0,0.0,0.0,0.0,0.0,0.0,0.0,0.0,0.0,0.0,0.0,0.0,0.0,0.0,0.0,0.0,0.0,0.0,0.0,-1.3408,-1.4282,-1.5002,-1.5323,-1.5693,-1.596,-1.6085,-1.5647,-1.5447,-1.5661,0.0,0.0,0.0,0.0,0.0,0.0,0.0,0.0,0.0,0.0,0.0,0.0,0.0,0.0,0.0,0.0,0.0,0.0,0.0,0.0,0.0,0.0,0.0,0.0,0.0,0.0,0.0,0.0,0.0,0.0,0.0,0.0,0.0,0.0,0.0,0.0,0.0,0.0,0.0,0.0,0.0,0.0,0.0,0.0,0.0,0.0,0.0,0.0,0.0,0.0,0.0,0.0,0.0,0.0,0.0,0.0,0.0,0.0,0.0,0.0,0.0,-0.9272,0.0,0.0,0.0,0.0,0.0,0.0,0.0,0.0,0.0,0.0,0.0,0.0,0.0,0.0,0.0,0.0,0.0,0.0,0.0,0.0,0.0,0.0,0.0,0.0,0.0,0.0,0.0,0.0,0.0,0.0,0.0,0.0,0.0,0.0,0.0,0.0,0.0,0.0,0.0,0.0,-1.3786,-1.4409,-1.4941,-1.5371,-1.587,-1.6112,-1.5938,-1.5756,-1.578,-1.6062,-1.4949,0.0,0.0,0.0,0.0,0.0,0.0,0.0,0.0,0.0,0.0,0.0,0.0,0.0,0.0,0.0,0.0,0.0,0.0,0.0,0.0,0.0,0.0,0.0,0.0,0.0,0.0,0.0,0.0,0.0,0.0,0.0,0.0,0.0,0.0,0.0,0.0,0.0,0.0,0.0,0.0,0.0,0.0,0.0,0.0,0.0,0.0,0.0,0.0,0.0,0.0,0.0,0.0,0.0,0.0,-1.0274,-0.9759,-1.0193,-1.0305,-1.0213,-1.0291,-1.012,-0.9753,0.0,0.0,0.0,0.0,0.0,0.0,0.0,0.0,0.0,0.0,0.0,0.0,0.0,0.0,0.0,0.0,0.0,0.0,0.0,0.0,0.0,0.0,0.0,0.0,0.0,-1.3979,-1.4175,0.0,0.0,0.0,0.0,0.0,0.0,0.0,0.0,0.0,0.0,0.0,0.0,-1.4249,-1.454,-1.491,-1.5496,-1.6068,-1.6265,-1.5834,-1.5948,-1.6168,-1.6499,-1.5291,-1.49,0.0,0.0,0.0,0.0,0.0,0.0,0.0,0.0,0.0,0.0,0.0,0.0,0.0,0.0,0.0,0.0,0.0,0.0,0.0,0.0,0.0,0.0,0.0,0.0,0.0,0.0,0.0,0.0,0.0,0.0,0.0,0.0,-0.3484,-0.3645,0.0,0.0,0.0,0.0,0.0,0.0,0.0,0.0,0.0,0.0,0.0,0.0,0.0,0.0,-0.8662,-1.0149,-1.0737,-1.0485,-1.1291,-1.1386,-1.0822,-1.1288,-1.1274,-1.097,-1.1168,0.0,-1.004,-0.9786,0.0,0.0,0.0,0.0,0.0,0.0,0.0,0.0,0.0,0.0,0.0,0.0,0.0,0.0,0.0,0.0,0.0,0.0,0.0,0.0,0.0,0.0,-1.4453,-1.4509,-1.4721,-1.4906,0.0,-1.4337,-1.3786,-1.3393,0.0,0.0,0.0,0.0,0.0,0.0,0.0,0.0,-1.4692,-1.4433,-1.4713,-1.6048,-1.6605,-1.6952,-1.7047,-1.7017,-1.6887,-1.6586,-1.5966,-1.5451,-1.5121,-1.4977,0.0,0.0,0.0,0.0,0.0,0.0,0.0,0.0,0.0,0.0,0.0,0.0,0.0,0.0,0.0,0.0,0.0,0.0,0.0,0.0,0.0,0.0,0.0,0.0,0.0,0.0,0.0,0.0,0.0,-0.3083,-0.3368,-0.4018,-0.4286,-0.4362,0.0,0.0,0.0,0.0,0.0,0.0,0.0,0.0,0.0,-0.7447,-0.8876,-0.9839,-1.0275,-1.1126,-1.1471,-1.1363,-1.1712,-1.1778,-1.1516,-1.1876,-1.1904,-1.1665,-1.1922,-1.1664,-1.1069,-1.0608,-1.0361,-1.0217,0.0,0.0,0.0,0.0,0.0,-0.998,-0.994,-0.9866,0.0,0.0,0.0,0.0,0.0,0.0,0.0,0.0,0.0,0.0,0.0,0.0,0.0,-1.4816,-1.5,-1.5127,-1.5186,-1.5022,-1.4699,0.0,-1.4301,-1.42,-1.3745,0.0,0.0,0.0,0.0,0.0,-1.4806,-1.473,-1.5039,-1.618,-1.7077,-1.7412,-1.69,-1.7136,-1.6976,-1.62,-1.5924,-1.5684,-1.5456,-1.5169,-1.4929,0.0,0.0,0.0,0.0,0.0,0.0,0.0,0.0,0.0,0.0,0.0,0.0,0.0,0.0,0.0,0.0,0.0,0.0,0.0,0.0,0.0,0.0,0.0,0.0,0.0,0.0,0.0,0.0,-0.2994,-0.3244,-0.4172,-0.451,-0.4658,0.0,0.0,0.0,0.0,0.0,0.0,-0.5084,-0.6451,-0.749,-0.8023,-0.9834,-1.0974,-1.1406,-1.1872,-1.2079,-1.2079,-1.2079,-1.2089,-1.2103,-1.2351,-1.2408,-1.2337,-1.2576,-1.2472,-1.2087,-1.1497,-1.1256,-1.1269,-1.0868,-1.0787,-1.0835,-1.0474,-1.0481,-1.068,-1.0501,-1.0501,-1.0595,-1.0514,0.0,-1.0752,-1.0995,0.0,0.0,0.0,0.0,-1.3765,-1.4194,0.0,-1.4687,-1.4992,-1.5147,-1.5264,-1.5264,-1.5332,-1.5322,0.0,-1.5151,-1.5151,-1.4609,0.0,0.0,0.0,0.0,-1.445,-1.5175,-1.5369,-1.5754,-1.6669,-1.745,-1.7579,-1.6794,-1.7013,-1.6799,-1.5852,-1.5792,-1.5814,-1.5859,-1.543,-1.5346,-1.5654,0.0,0.0,0.0,0.0,0.0,0.0,0.0,0.0,0.0,0.0,0.0,0.0,0.0,0.0,0.0,0.0,0.0,0.0,0.0,0.0,0.0,0.0,0.0,0.0,0.0,0.0,0.0,0.0,0.0,-0.3585,-0.4283,0.0,0.0,0.0,0.0,-0.4867,-0.5194,-0.5429,-0.5549,-0.6722,-0.7467,-0.7626,-0.9888,-1.1073,-1.1136,-1.2145,-1.2662,-1.2662,-1.2662,-1.2662,-1.2671,-1.2883,-1.2935,-1.287,-1.3068,-1.3006,-1.269,-1.21,-1.1503,-1.1009,-1.0982,-1.0847,-1.064,-1.0862,-1.0955,-1.1009,-1.1235,-1.1009,-1.0633,-1.0881,-1.1351,-1.206,-1.3307,-1.3488,0.0,0.0,-1.4044,-1.4213,-1.4799,-1.5059,-1.5157,-1.5186,-1.5284,-1.5381,-1.5381,-1.541,-1.5371,0.0,-1.5087,-1.4951,-1.5359,0.0,-1.5115,-1.5488,-1.5668,-1.5907,-1.6275,-1.6432,-1.6897,-1.79,-1.7615,-1.7354,-1.735,-1.6907,-1.6403,-1.585,-1.5792,-1.5859,-1.5979,-1.5844,-1.5594,-1.5247,-1.5028,0.0,0.0,0.0,0.0,0.0,0.0,0.0,0.0,0.0,0.0,0.0,0.0,0.0,0.0,0.0,0.0,0.0,0.0,0.0,0.0,0.0,0.0,0.0,0.0,0.0,0.0,0.0,0.0,-0.443,-0.4902,0.0,0.0,-0.523,-0.5389,-0.5481,-0.5805,-0.63,-0.7056,-0.8052,-0.8993,-0.9847,-1.1166,-1.1968,-1.2132,-1.2529,-1.2705,-1.2705,-1.2705,-1.2784,-1.2951,-1.3161,-1.3223,-1.3163,-1.3366,-1.332,-1.3026,-1.2819,-1.2378,-1.1817,-1.1665,-1.1531,-1.1424,-1.1303,-1.139,-1.1543,-1.1456,-1.1416,-1.1458,-1.1605,-1.2123,-1.2794,-1.3442,-1.3809,-1.4058,-1.4412,-1.4844,-1.5172,-1.5126,-1.5225,-1.5332,-1.5332,-1.5362,-1.541,-1.541,-1.541,-1.541,-1.541,-1.5293,-1.5155,-1.5066,-1.5262,-1.54,-1.5237,-1.5604,-1.6039,-1.6468,-1.6901,-1.741,-1.8047,-1.7973,-1.775,-1.7435,-1.6989,-1.6504,-1.5971,-1.6013,-1.6091,-1.6122,-1.6078,-1.6152,-1.6343,-1.5627,-1.509,0.0,0.0,0.0,0.0,0.0,0.0,0.0,0.0,0.0,0.0,0.0,0.0,0.0,0.0,0.0,0.0,0.0,0.0,0.0,0.0,0.0,0.0,0.0,0.0,0.0,0.0,-0.3988,-0.5067,-0.5433,-0.56,-0.5549,-0.5774,-0.5928,-0.602,-0.6303,-0.6886,-0.7905,-0.8891,-0.9929,-1.1044,-1.1974,-1.253,-1.2699,-1.2705,-1.2705,-1.2705,-1.2705,-1.2833,-1.31,-1.3307,-1.3422,-1.3457,-1.3664,-1.3586,-1.3313,-1.3313,-1.306,-1.2579,-1.2315,-1.2141,-1.2027,-1.1797,-1.1844,-1.2042,-1.1949,-1.2082,-1.234,-1.2764,-1.3235,-1.3734,-1.412,-1.4568,-1.498,-1.517,-1.5503,-1.5733,-1.5554,-1.5449,-1.541,-1.541,-1.541,-1.541,-1.541,-1.541,-1.541,-1.541,-1.5546,-1.563,-1.5341,-1.5825,-1.6127,-1.5807,-1.6277,-1.6768,-1.708,-1.7637,-1.8119,-1.8367,-1.8272,-1.7989,-1.7521,-1.7025,-1.6549,-1.6103,-1.6122,-1.6166,-1.6253,-1.6222,-1.6382,-1.6784,-1.5886,-1.541,-1.543,0.0,0.0,0.0,0.0,0.0,0.0,0.0,0.0,0.0,0.0,0.0,0.0,0.0,0.0,0.0,0.0,0.0,0.0,0.0,0.0,0.0,0.0,0.0,-0.3916,-0.4277,-0.4734,-0.5346,-0.5769,-0.5942,-0.5837,-0.622,-0.6521,-0.6525,-0.6665,-0.7157,-0.8094,-0.9187,-1.0181,-1.1102,-1.2143,-1.2705,-1.2717,-1.2705,-1.2705,-1.2717,-1.2705,-1.2833,-1.31,-1.3307,-1.3519,-1.3695,-1.3997,-1.3928,-1.3613,-1.3606,-1.344,-1.3193,-1.2911,-1.2603,-1.2311,-1.2305,-1.2305,-1.2368,-1.2849,-1.3022,-1.3249,-1.4338,-1.4732,-1.4854,-1.5495,-1.5868,-1.6047,-1.6169,-1.6042,-1.589,-1.6074,-1.5752,-1.543,-1.5391,-1.541,-1.541,-1.541,-1.541,-1.541,-1.541,-1.5921,-1.6312,-1.6312,-1.6874,-1.7308,-1.7236,-1.7785,0.0,-1.8143,-1.8655,-1.8987,-1.8987,-1.8518,-1.8051,-1.763,-1.699,-1.6493,-1.6225,-1.6088,-1.6132,-1.6392,-1.6275,-1.6275,-1.6392,-1.5743,-1.5463,-1.5525,0.0,0.0,0.0,0.0,0.0,0.0,0.0,0.0,0.0,0.0,0.0,0.0,0.0,0.0,0.0,0.0,0.0,0.0,0.0,0.0,0.0,0.0,-0.3996,-0.3603,-0.4188,-0.494,-0.5748,-0.6054,-0.6259,-0.632,-0.6498,-0.6681,-0.6797,-0.7464,-0.8294,-0.9359,-1.0328,-1.131,-1.2251,-1.2535,-1.2801,-1.3006,-1.2807,-1.2807,-1.3006,-1.2801,-1.2833,-1.31,-1.3307,-1.3519,-1.3695,-1.3997,-1.4041,-1.3948,-1.3693,-1.3553,-1.3433,-1.2991,-1.273,-1.2636,-1.2385,-1.2305,-1.2395,-1.3107,-1.3718,-1.4261,-1.4866,-1.543,-1.5852,-1.5896,-1.6276,-1.6627,-1.6466,-1.6674,-1.6843,-1.6261,-1.6007,-1.5831,-1.5488,-1.541,-1.541,-1.541,-1.541,-1.5517,-1.5968,-1.6528,-1.681,-1.6397,-1.7175,-1.7878,-1.7852,0.0,0.0,-1.875,-1.8907,-1.8987,-1.8987,-1.8609,-1.8139,-1.7654,-1.726,-1.6843,0.0,-1.6349,-1.6392,-1.6479,-1.6436,-1.6436,-1.6479,-1.5899,-1.5811,0.0,0.0,0.0,0.0,0.0,0.0,0.0,0.0,0.0,0.0,0.0,0.0,0.0,0.0,0.0,0.0,0.0,0.0,0.0,0.0,0.0,0.0,-0.4685,-0.4804,-0.4154,-0.4752,-0.5477,-0.6141,-0.6352,-0.6502,-0.6651,-0.6797,-0.6879,-0.6967,-0.7937,-0.8973,-1.0011,-1.1074,-1.2065,-1.2999,-1.3043,-1.3121,-1.329,-1.3127,-1.3073,-1.3121,-1.2958,-1.2948,-1.31,-1.3307,-1.3519,0.0,-1.3997,-1.4088,-1.4075,-1.3901,-1.3828,0.0,0.0,0.0,0.0,0.0,-1.2305,-1.2445,-1.3564,-1.4243,-1.4748,-1.5618,-1.621,-1.6557,-1.6509,-1.6812,-1.713,-1.7029,-1.7183,-1.7298,-1.678,-1.6369,-1.6026,-1.5772,-1.5537,-1.541,-1.541,-1.541,-1.5575,-1.6169,0.0,0.0,-1.7062,-1.7847,-1.8483,-1.8483,-1.8762,-1.8987,0.0,-1.8987,-1.8987,-1.8987,-1.8789,-1.8492,-1.8056,-1.7627,0.0,0.0,0.0,-1.6479,-1.65,-1.65,0.0,0.0,0.0,0.0,0.0,0.0,0.0,0.0,-1.8687,-1.9159,0.0,0.0,0.0,0.0,0.0,0.0,0.0,0.0,0.0,0.0,0.0,0.0,0.0,0.0,0.0,0.0,-0.5244,-0.5606,-0.513,-0.5613,-0.6138,-0.648,-0.6624,-0.678,-0.6873,-0.7031,-0.7122,-0.7122,-0.8245,-0.9334,-1.0286,0.0,0.0,0.0,0.0,-1.3525,-1.3556,-1.3532,-1.3417,-1.3212,-1.3107,-1.3125,-1.3144,-1.3326,-1.3519,-1.3695,-1.3997,-1.4088,-1.4082,-1.4048,-1.4035,-1.3981,-1.3427,-1.3019,-1.275,-1.2412,-1.2305,0.0,0.0,0.0,0.0,-1.6438,-1.6943,-1.6968,-1.7201,-1.7382,-1.7564,-1.7681,-1.7624,-1.7432,-1.7334,-1.676,-1.6144,-1.6046,-1.5693,-1.541,-1.541,-1.5439,-1.569,-1.6273,-1.6894,-1.7506,-1.8093,-1.8655,-1.8987,-1.8987,-1.8987,0.0,-1.8987,-1.8987,-1.8987,-1.8987,0.0,0.0,-1.8633,-1.8081,-1.7687,-1.7501,-1.6932,-1.6623,-1.6688,-1.6688,-1.6688,-1.6688,-1.7212,-1.7546,-1.7678,-1.8639,-1.9145,-1.9278,-1.914,-1.9651,0.0,0.0,0.0,0.0,0.0,0.0,0.0,0.0,0.0,0.0,0.0,0.0,0.0,0.0,0.0,-0.5051,-0.5396,-0.5605,-0.5514,-0.5846,-0.6172,-0.6464,-0.6715,-0.6852,-0.6883,-0.717,-0.7326,-0.7326,-0.8375,-0.9435,-1.049,-1.1451,0.0,-1.3468,-1.3513,-1.3616,-1.3827,-1.3622,-1.3598,-1.3749,0.0,0.0,-1.3411,-1.3414,-1.3519,-1.3695,-1.3997,-1.4088,-1.4068,-1.3828,-1.3686,-1.3653,-1.3347,-1.3019,-1.275,-1.2412,-1.2305,-1.2519,-1.4063,-1.4601,-1.4887,-1.6594,-1.7132,-1.7201,-1.751,-1.7647,0.0,-1.7896,-1.7915,-1.7725,-1.7009,-1.6697,-1.6426,-1.5703,-1.5469,-1.541,-1.541,-1.5777,-1.6312,-1.6922,-1.7506,-1.812,-1.8709,-1.8934,-1.8987,-1.8987,-1.8987,-1.8987,-1.8987,-1.8987,-1.8987,-1.8987,-1.9198,-1.9121,-1.8633,-1.8685,-1.8534,-1.8078,-1.7917,-1.7854,-1.7877,-1.7877,-1.7877,-1.7877,-1.799,-1.8467,-1.9339,-1.9536,-2.0099,-2.0934,-2.0804,-2.0894,0.0,0.0,0.0,0.0,0.0,0.0,0.0,0.0,0.0,0.0,0.0,-0.5296,-0.4978,0.0,-0.5183,-0.5447,-0.5604,-0.5756,-0.591,-0.6198,-0.6382,-0.643,-0.6636,-0.6871,-0.6977,-0.7238,-0.7415,-0.7415,-0.8501,-0.9669,-1.0697,-1.1749,-1.2811,-1.3859,-1.3906,-1.3966,-1.4099,-1.3972,-1.3906,-1.3906,-1.3507,-1.342,-1.3623,-1.3476,-1.3568,-1.3913,-1.4039,-1.4088,-1.4075,-1.3928,-1.3733,-1.3573,-1.328,-1.3113,-1.2926,-1.2472,-1.2305,-1.2519,-1.4063,-1.4601,-1.4887,-1.6629,-1.7201,-1.727,-1.7604,-1.7706,-1.775,-1.794,-1.8008,-1.791,-1.7447,-1.7019,-1.659,-1.6141,-1.5732,-1.541,-1.541,-1.5853,-1.6472,-1.709,-1.7683,-1.8282,-1.8907,-1.8987,-1.8987,-1.8987,-1.8987,-1.8987,-1.8987,-1.8987,-1.8987,-1.8987,-1.9184,-1.9218,-1.9014,-1.9008,-1.877,-1.8242,-1.8204,-1.8204,-1.8204,-1.8204,-1.8204,-1.8204,-1.8456,-1.8998,-1.9808,-2.0072,-2.0737,-2.1803,-2.1732,-2.1708,0.0,0.0,0.0,0.0,0.0,0.0,0.0,0.0,-0.6625,-0.5898,-0.5921,-0.5861,-0.5297,-0.5197,-0.5301,-0.5615,-0.5711,-0.5817,-0.6108,-0.632,-0.6406,-0.6331,-0.6599,-0.6878,-0.7071,-0.7305,-0.746,-0.746,-0.8488,-0.9673,-1.091,-1.1897,-1.2974,-1.425,-1.4298,-1.4298,-1.4298,-1.4298,-1.4189,-1.3978,-1.3719,-1.3703,-1.3957,-1.3627,-1.3736,-1.4168,-1.4115,-1.4088,-1.4082,-1.4021,-1.3854,-1.3567,-1.326,-1.312,-1.3053,-1.2505,-1.2449,-1.2815,-1.4158,-1.4708,-1.5136,-1.6742,-1.727,-1.7339,-1.7672,-1.775,-1.7784,-1.794,-1.8008,-1.7988,-1.791,-1.7282,-1.6677,-1.659,-1.5996,-1.541,-1.541,-1.5853,-1.6443,-1.6922,-1.7617,-1.8267,-1.8735,-1.8934,-1.8987,-1.8987,-1.8987,-1.9025,-1.9052,-1.9052,-1.9052,-1.9066,-1.9184,-1.9328,-1.9473,-1.9282,-1.8958,-1.8543,-1.8518,-1.8518,-1.8518,-1.8518,-1.8518,-1.8518,-1.8933,-1.948,-2.0109,-2.0522,-2.1299,-2.2347,-2.2347,-2.2418,-0.5977,-0.6409,-0.6723,-0.7164,-0.6892,-0.6665,0.0,0.0,-0.7042,-0.6352,-0.6235,-0.6029,-0.5247,-0.5176,-0.522,-0.5259,-0.541,-0.552,-0.5507,-0.5769,-0.5969,-0.5955,-0.662,-0.7058,-0.7092,-0.7404,-0.7573,-0.7573,-0.7942,-0.9042,-1.1039,-1.1307,-1.229,-1.425,-1.4298,-1.4298,-1.4298,-1.4298,-1.428,-1.425,-1.3984,-1.4078,-1.4503,-1.4008,-1.4028,-1.4456,-1.4202,-1.4088,-1.4068,-1.376,-1.3633,-1.3547,-1.3058,-1.2837,-1.2797,-1.2425,-1.2905,-1.3805,-1.4387,-1.5144,-1.6,-1.7107,-1.7554,-1.7672,-1.7896,-1.7974,-1.7974,-1.7974,-1.8008,-1.793,-1.7549,-1.709,-1.6599,-1.6261,-1.5762,-1.541,-1.541,-1.5853,-1.6312,-1.6386,-1.7313,-1.812,-1.8174,-1.8655,-1.8987,-1.8987,-1.8987,-1.9052,-1.917,-1.917,-1.9223,-1.9342,-1.9486,-1.9617,-1.9734,-1.9722,-1.9685,-1.9623,-1.9623,-1.9623,-1.9623,-1.9623,-1.9623,-1.9623,-1.9685,-2.0205,-2.1226,-2.1272,-2.1817,-2.282,-2.282,-2.3146,-0.6726,-0.7238,0.0,0.0,-0.7656,-0.7752,-0.8043,-0.8105,-0.7974,-0.7492,-0.7061,-0.6566,-0.5866,-0.5463,-0.5211,0.0,-0.5436,-0.5556,-0.5791,-0.5861,-0.5975,-0.6107,-0.6418,-0.6655,-0.6688,-0.7234,-0.755,-0.7359,-0.7771,-0.8924,-1.1072,-1.1219,-1.2145,-1.425,-1.4298,-1.4298,-1.4298,-1.4298,-1.4298,-1.4292,-1.4174,-1.4285,-1.4604,-1.4372,-1.4276,-1.4255,-1.3955,-1.3828,-1.3808,-1.3473,-1.3353,-1.3347,-1.2951,-1.2784,-1.275,-1.2412,-1.2594,-1.3128,-1.4217,-1.4931,-1.5613,-1.7038,-1.7588,-1.775,-1.794,-1.8008,-1.8008,-1.8008,-1.8008,-1.791,-1.749,-1.7061,-1.659,-1.6202,-1.5732,-1.541,-1.541,-1.5853,-1.6386,-1.6754,-1.7506,-1.8213,-1.8563,-1.8815,-1.8987,-1.8987,-1.9078,-1.9158,-1.9302,-1.9328,-1.9368,-1.9486,-1.9565,-1.9656,-1.9798,-1.9798,-1.9798,-1.9798,-1.9798,-1.9798,-1.9798,-1.9798,-1.9798,-1.9798,-2.0105,-2.0646,-2.1393,-2.1708,-2.2231,-2.2902,-2.3302,-2.3833,-0.7414,0.0,0.0,-0.8109,-0.8347,-0.8606,-0.87,-0.8751,-0.8711,-0.8269,-0.7613,-0.6921,-0.6325,-0.5656,0.0,-0.5391,-0.5442,-0.5596,-0.593,-0.5854,-0.5866,-0.6115,-0.6177,-0.6204,-0.6198,-0.6923,-0.7316,-0.7305,-0.7637,-0.8826,-1.1072,-1.1219,-1.2145,-1.425,-1.4298,-1.4298,-1.4298,-1.4298,-1.4346,-1.4394,-1.4395,-1.4537,-1.4852,-1.476,-1.4504,-1.4075,-1.3733,-1.3553,-1.3467,-1.33,-1.316,-1.306,-1.2878,-1.273,-1.2636,-1.2452,-1.2573,-1.2998,-1.4065,-1.4859,-1.5578,-1.6821,-1.7486,-1.7818,-1.7974,-1.8008,-1.8008,-1.8008,-1.8008,-1.7939,-1.7637,-1.7116,-1.6619,-1.6328,-1.582,-1.541,-1.541,-1.5748,-1.6169,-1.6613,-1.7341,-1.7984,-1.8429,-1.8827,-1.9078,-1.9093,-1.921,-1.9328,-1.9394,-1.9473,-1.9539,-1.963,-1.9656,-1.9682,-1.9798,-1.9798,-1.9798,-1.9798,-1.9798,-1.9798,-1.9798,-1.9798,-1.9798,-1.9798,-2.0334,-2.087,-2.1393,-2.1945,-2.244,-2.2917,-2.3601,-2.4225,0.0,0.0,-0.8017,-0.8472,-0.8572,-0.8677,-0.8922,-0.9035,-0.891,-0.8334,-0.7613,-0.6921,-0.6325,-0.5656,-0.5227,-0.5391,-0.5413,-0.5458,-0.57,-0.5526,-0.5503,-0.57,-0.5837,-0.5854,0.0,-0.634,-0.6977,-0.754,-0.7548,-0.8609,-1.1063,-1.1219,-1.2145,-1.425,-1.4298,-1.4298,-1.4298,-1.4298,-1.4442,-1.4688,-1.4682,-1.4962,-1.546,-1.5133,-1.4643,-1.4075,-1.3733,-1.3447,-1.322,-1.3213,-1.3033,-1.2797,-1.279,-1.2603,-1.2355,-1.2532,-1.326,-1.4149,-1.4128,-1.5188,-1.6568,-1.6603,-1.7235,-1.7974,-1.8008,-1.8008,-1.8008,-1.8008,-1.8008,-1.8008,-1.7988,-1.733,-1.6697,-1.6687,-1.6015,-1.541,-1.541,-1.541,-1.5439,-1.5439,-1.6415,-1.723,-1.7257,-1.8321,-1.9249,-1.9368,-1.9486,-1.9539,-1.942,-1.963,-1.9798,-1.9798,-1.9798,-1.9798,-1.9798,-1.9798,-1.9798,-1.9798,-1.9798,-1.9798,-1.9798,-1.9798,-1.9798,-1.9798,-2.0334,-2.087,-2.1393,-2.1945,-2.244,-2.2917,-2.3601,-2.4254,0.0,0.0,-0.8127,-0.8292,-0.8432,-0.8542,-0.8651,-0.8701,-0.8694,-0.8683,-0.7646,-0.6762,-0.6678,-0.5771,-0.511,-0.5227,-0.5358,-0.5426,-0.5545,-0.5497,-0.5491,-0.5491,-0.564,0.0,0.0,0.0,0.0,-0.7117,-0.7493,-0.8743,-1.1063,-1.1219,-1.2145,-1.425,-1.4298,-1.4298,-1.4298,-1.4298,-1.4346,-1.4442,-1.4555,-1.4891,-1.5418,-1.4736,-1.4168,-1.3726,-1.3267,-1.3032,-1.2924,-1.2685,-1.2659,-1.2764,-1.2563,-1.2392,-1.2342,-1.2673,-1.3029,-1.3402,-1.3914,-1.4517,-1.5223,-1.6289,-1.6915,-1.7364,-1.7872,-1.8008,-1.8008,-1.8008,-1.8008,-1.7881,-1.7272,-1.6911,-1.6551,-1.5966,-1.5595,-1.541,-1.541,-1.541,-1.5526,-1.5911,-1.633,-1.6866,-1.7672,-1.824,-1.8827,-1.9434,-1.9656,-1.9734,-1.9656,-1.9734,-1.9798,-1.9798,-1.9798,-1.9798,-1.9798,-1.9798,-1.9798,-1.9798,-1.9798,-1.9798,-1.9798,-1.9798,-1.9798,-1.9798,-2.0334,-2.087,-2.1393,-2.1945,-2.244,-2.2917,-2.3601,-2.4254,0.0,-0.7949,-0.8229,-0.829,-0.8398,-0.8517,-0.8517,-0.8517,-0.856,-0.8705,-0.7554,-0.6593,-0.6771,-0.5729,-0.4901,-0.5146,-0.5219,-0.5344,-0.5591,-0.5561,-0.5526,-0.5619,-0.5725,0.0,0.0,0.0,0.0,-0.6976,-0.7442,-0.8695,-1.1063,-1.1219,-1.2145,-1.425,-1.4298,-1.4298,-1.4298,-1.4298,-1.4345,-1.4397,-1.4646,-1.4871,-1.5064,-1.4396,-1.3868,-1.342,-1.2998,-1.2723,-1.261,-1.2378,-1.2412,-1.2603,-1.2378,-1.2305,-1.2342,-1.2746,-1.29,-1.3003,-1.3666,-1.431,-1.4974,-1.5965,-1.6733,-1.7364,-1.7872,-1.8008,-1.8008,-1.8008,-1.8008,-1.7881,-1.7301,-1.6931,-1.656,-1.5985,-1.5644,-1.541,-1.541,-1.541,-1.5517,-1.5911,-1.6368,-1.6933,-1.771,-1.8348,-1.8975,-1.9578,-1.9734,-1.9798,-1.9798,-1.9798,-1.9798,-1.9798,-1.9798,-1.9798,-1.9798,-1.9798,-1.9798,-1.9798,-1.9798,-1.9798,-1.9798,-1.9798,-1.9798,-1.9798,-2.0334,-2.0771,-2.1115,-2.1851,-2.237,-2.2675,-2.3516,-2.4239,-0.8048,-0.8214,-0.829,-0.8495,-0.8544,-0.8533,-0.8533,-0.8517,-0.8495,-0.8495,-0.7395,-0.6457,0.0,0.0,-0.4695,-0.5091,-0.5089,-0.523,-0.5812,-0.5661,-0.565,0.0,0.0,0.0,0.0,0.0,0.0,-0.7174,0.0,-0.8601,-1.1063,-1.1219,-1.2145,-1.425,-1.4298,-1.4298,-1.4298,-1.4286,-1.4384,-1.4591,-1.4831,-1.4753,-1.4489,-1.4168,-1.3714,-1.3173,-1.2898,-1.2603,-1.2305,-1.2305,-1.2305,-1.2305,-1.2305,-1.2305,-1.2342,-1.2746,-1.29,-1.2973,-1.3346,-1.441,-1.5604,-1.564,-1.6664,-1.7906,-1.794,-1.7974,-1.8008,-1.8008,-1.8008,-1.8008,-1.7978,-1.735,-1.6726,-1.6677,-1.6024,-1.5439,-1.542,-1.541,-1.541,-1.541,-1.6482,-1.7407,-1.7407,-1.8632,-1.9656,-1.9773,-1.9798,-1.9798,-1.9798,-1.9798,-1.9798,-1.9798,-1.9798,-1.9798,-1.9798,-1.9798,-1.9798,-1.9798,-1.9798,-1.9798,-1.9798,-1.9798,-1.9798,-1.9798,-2.0308,-2.0585,-2.061,-2.166,-2.217,-2.2222,-2.3376,-2.4225,-0.8031,-0.8502,-0.8947,-0.9012,-0.8899,-0.8809,-0.8809,-0.8533,-0.8274,-0.8274,-0.7407,-0.6507,-0.6156,0.0,0.0,-0.4912,-0.5048,0.0,-0.5672,-0.5798,0.0,-0.5937,0.0,-0.6151,-0.6092,-0.6317,0.0,0.0,-0.7308,-0.8553,-1.1063,-1.1219,-1.2145,-1.425,-1.4298,-1.4298,-1.4298,-1.4105,-1.4102,-1.4281,-1.3957,-1.3948,-1.4175,-1.3467,-1.3045,-1.2884,-1.2583,-1.2371,-1.2305,-1.2305,-1.2305,-1.2305,-1.2305,-1.2305,-1.2342,-1.2562,-1.2783,-1.2936,-1.3193,-1.363,-1.4165,-1.4716,-1.5525,-1.6411,-1.701,-1.7545,-1.8008,-1.8008,-1.8008,-1.7939,-1.7627,-1.7383,-1.7051,-1.6418,-1.6095,-1.584,-1.5488,-1.541,-1.541,-1.541,-1.6482,-1.7435,-1.7534,-1.8673,-1.9656,-1.9773,-1.9798,-1.9798,-1.9798,-1.9798,-1.9798,-1.9798,-1.9798,-1.9798,-1.9798,-1.9798,-1.9798,-1.9798,-1.9798,-1.9798,-1.9798,-1.9798,-1.9798,-1.9798,-1.9927,-2.0207,-2.061,-2.1286,-2.1803,-2.2222,-2.3376,-2.4239,-0.7805,-0.8253,-0.8751,-0.8994,-0.8883,-0.8711,-0.8711,-0.8452,-0.8122,-0.7881,-0.7219,0.0,-0.6196,0.0,0.0,0.0,0.0,0.0,-0.5741,-0.5909,-0.6021,0.0,-0.6257,0.0,-0.6246,-0.6384,-0.6606,0.0,-0.7268,-0.8553,-1.1063,-1.1219,-1.2145,-1.425,-1.4298,-1.4244,-1.4129,-1.387,-1.3826,-1.4034,-1.3601,-1.3523,-1.3681,-1.3079,-1.2717,-1.2583,0.0,-1.2305,-1.2305,-1.2305,-1.2305,-1.2305,-1.2305,-1.2305,-1.2335,-1.2526,-1.2716,-1.2936,-1.3119,-1.3346,-1.363,-1.4358,-1.5349,-1.6298,-1.6759,-1.7407,-1.8008,-1.8008,-1.8008,-1.7959,-1.7715,-1.7519,-1.7288,-1.6799,-1.6525,-1.6289,-1.6015,-1.584,-1.5753,-1.5961,-1.6866,-1.7765,-1.8147,-1.903,-1.9708,-1.9798,-1.9798,-1.9798,-1.9798,-1.9798,-1.9798,-1.9798,-1.9798,-1.9798,-1.9798,-1.9798,-1.9798,-1.9798,-1.9798,-1.9798,-1.9798,-1.9798,-1.9798,-1.9798,-1.9798,-1.9952,-2.0258,-2.1028,-2.1537,-2.1874,-2.2958,-2.3954,-0.7468,-0.7787,-0.8116,-0.8682,-0.8599,-0.8424,-0.8425,-0.8238,-0.7948,-0.7485,0.0,-0.6587,-0.6312,-0.5494,-0.4996,-0.5316,0.0,-0.516,-0.5798,-0.5986,-0.6149,-0.6385,-0.6376,-0.6387,-0.6387,-0.6373,-0.6515,-0.6769,-0.7189,-0.8434,-1.0818,-1.1121,-1.2134,-1.4196,-1.4214,-1.4069,-1.3803,-1.3574,-1.355,-1.3704,-1.3436,-1.3242,-1.316,-1.2846,-1.2583,-1.2305,0.0,0.0,-1.2305,-1.2305,-1.2305,-1.2305,-1.2305,-1.2335,-1.2378,-1.2526,-1.2746,-1.2973,-1.3119,-1.3346,-1.3601,-1.4258,-1.549,-1.6724,-1.6724,-1.7329,-1.8008,-1.8008,-1.8008,-1.8008,-1.8008,-1.7695,-1.7373,-1.7314,-1.6963,-1.659,-1.6541,-1.6281,-1.6188,-1.668,-1.7368,-1.8135,-1.8842,-1.9422,-1.9798,-1.9798,-1.9798,-1.9798,-1.9798,-1.9798,-1.9798,-1.9798,-1.9798,-1.9798,-1.9798,-1.9798,-1.9798,-1.9798,-1.9798,-1.9798,-1.9798,-1.9798,-1.9798,-1.9798,-1.9798,-1.9798,-1.9798,-2.0807,-2.1321,-2.1417,-2.2464,-2.3565,-0.7053,-0.7518,-0.7967,-0.826,-0.8118,-0.7952,-0.8065,-0.7762,0.0,0.0,0.0,-0.6703,-0.5684,-0.5416,0.0,-0.4749,0.0,0.0,0.0,0.0,-0.6026,0.0,0.0,0.0,0.0,0.0,0.0,0.0,0.0,0.0,-0.9444,-1.0587,-1.2062,-1.3931,-1.3761,-1.3525,-1.326,-1.3173,-1.3186,-1.3205,-1.2823,-1.2781,-1.2956,-1.2556,-1.2351,-1.2305,0.0,0.0,-1.2305,-1.2305,-1.2305,-1.2305,-1.2305,-1.2415,-1.2562,-1.2599,-1.282,-1.3163,-1.3193,-1.3346,-1.3528,-1.3637,-1.4689,-1.5921,-1.5921,-1.6872,-1.8008,-1.8008,-1.8008,-1.8008,-1.8008,-1.7695,-1.7295,-1.6902,-1.6504,-1.6114,-1.5723,-1.5713,-1.5926,-1.6457,-1.7285,-1.807,-1.8635,-1.9345,-1.9798,-1.9798,-1.9798,-1.9798,-1.9798,-1.9798,-1.9798,-1.9798,-1.9798,-1.9798,-1.9798,-1.9798,-1.9798,-1.9798,-1.9798,-1.9798,-1.9798,-1.9798,-1.9798,-1.9798,-1.9798,-1.9798,-1.9798,-2.0434,-2.0968,-2.1431,-2.2546,-2.3417,-0.6397,-0.6809,-0.7228,-0.7712,-0.7588,-0.7386,-0.756,0.0,0.0,0.0,0.0,-0.6177,-0.5737,0.0,0.0,0.0,0.0,0.0,0.0,0.0,0.0,0.0,0.0,0.0,0.0,0.0,0.0,0.0,0.0,0.0,-0.8885,-1.0702,-1.2265,-1.3661,-1.3447,-1.3254,-1.3083,-1.2976,-1.2942,-1.305,-1.2675,-1.2601,-1.2836,-1.2468,-1.2305,-1.2305,-1.2305,0.0,-1.2305,-1.2305,-1.2305,-1.2305,-1.2305,-1.2378,-1.2452,-1.2562,-1.279,-1.3046,-1.3156,-1.3237,-1.3243,-1.3243,-1.4083,-1.5174,-1.534,-1.6319,-1.7415,-1.7329,-1.751,-1.7627,-1.7402,-1.7197,-1.6992,-1.6746,-1.6541,-1.6289,-1.585,-1.594,-1.6117,-1.6194,-1.7157,-1.8081,-1.8352,-1.9176,-1.9798,-1.9798,-1.9798,-1.9798,-1.9798,-1.9798,-1.9798,-1.9798,-1.9798,-1.9798,-1.9798,-1.9798,-1.9798,-1.9798,-1.9798,-1.9798,-1.9798,-1.9798,-1.9798,-1.9798,-1.9798,-1.9798,-1.9798,-2.0334,-2.0734,-2.0993,-2.1827,-2.2678,-0.5715,-0.6031,-0.6384,-0.7063,-0.6955,-0.6734,-0.6962,-0.665,0.0,0.0,-0.5932,-0.5492,-0.5597,0.0,0.0,0.0,0.0,0.0,0.0,0.0,0.0,0.0,0.0,0.0,0.0,0.0,0.0,0.0,0.0,0.0,-0.9013,-1.0733,-1.2224,-1.3384,-1.3131,-1.2987,-1.2987,-1.2813,-1.2741,-1.2855,-1.2618,-1.2569,-1.2624,-1.2401,-1.2305,-1.2305,-1.2305,0.0,0.0,-1.2305,-1.2305,-1.2291,-1.2231,-1.2248,-1.2278,-1.2399,-1.2552,-1.2776,-1.2956,-1.2977,-1.2899,-1.2899,-1.3587,-1.4444,-1.4721,-1.5683,-1.6646,-1.6552,-1.6876,-1.7168,-1.6794,-1.6629,-1.6562,-1.6443,-1.6424,-1.6317,-1.6026,-1.6148,-1.6287,-1.6109,-1.7056,-1.7957,-1.824,-1.9042,-1.9682,-1.9773,-1.9798,-1.9798,-1.9798,-1.9798,-1.9798,-1.9798,-1.9798,-1.9798,-1.9798,-1.9798,-1.9798,-1.9798,-1.9798,-1.9798,-1.9798,-1.9798,-1.9798,-1.9798,-1.9798,-1.9798,-1.9798,-2.0232,-2.0485,-2.061,-2.1042,-2.1821,-0.5134,-0.5389,-0.578,-0.6204,-0.615,-0.6073,-0.6332,0.0,0.0,-0.584,-0.5391,-0.4842,-0.4453,-0.4079,0.0,0.0,0.0,0.0,0.0,0.0,0.0,0.0,0.0,0.0,0.0,0.0,0.0,0.0,0.0,0.0,0.0,-1.0281,-1.1218,-1.3069,-1.2886,-1.2741,-1.2741,-1.2717,-1.2572,-1.2354,-1.2451,-1.2379,-1.2177,-1.2258,-1.2305,-1.2305,0.0,0.0,0.0,-1.2305,-1.2305,-1.2278,-1.2011,-1.2053,-1.2161,-1.1888,-1.2033,-1.2341,-1.2375,-1.2456,-1.257,-1.257,-1.3126,-1.3788,-1.3823,-1.4808,-1.5891,-1.5891,-1.6294,-1.6755,-1.6716,-1.6436,-1.6056,-1.5625,-1.5537,-1.5518,-1.5478,-1.5634,-1.5944,-1.6588,-1.6916,-1.7473,-1.8709,-1.9013,-1.9251,-1.9721,-1.9798,-1.9798,-1.9798,-1.9798,-1.9798,-1.9798,-1.9798,-1.9798,-1.9798,-1.9798,-1.9798,-1.9798,-1.9798,-1.9798,-1.9798,-1.9798,-1.9798,-1.9798,-1.9798,-1.9798,-1.9798,-1.985,-2.0131,-2.061,-2.066,-2.1253,-0.4191,-0.4379,-0.4794,-0.5442,-0.5177,-0.4922,-0.5502,0.0,-0.4643,-0.4939,-0.446,-0.399,-0.3959,-0.3519,-0.3107,0.0,-0.3064,-0.3332,0.0,0.0,0.0,0.0,0.0,0.0,0.0,0.0,0.0,0.0,0.0,0.0,0.0,-0.9566,-1.0566,-1.1738,-1.2229,-1.2397,-1.2234,-1.2234,-1.2142,-1.2001,-1.2172,-1.2196,-1.2066,-1.221,-1.2305,-1.2305,0.0,0.0,0.0,-1.2044,-1.1937,-1.1764,-1.1643,-1.1638,-1.1729,-1.1854,-1.1983,-1.2153,-1.2357,-1.2327,-1.2193,-1.2193,-1.2297,-1.2525,-1.3106,-1.412,-1.5079,-1.5022,-1.5654,-1.6269,-1.6006,-1.5811,-1.5625,-1.5449,-1.541,-1.5439,-1.5546,-1.5701,-1.5933,-1.6304,-1.6775,-1.7296,-1.782,-1.8509,-1.9066,-1.9303,-1.9592,-1.9798,-1.9798,-1.9798,-1.9798,-1.9798,-1.9798,-1.9798,-1.9798,-1.9798,-1.9798,-1.9798,-1.9798,-1.9798,-1.9798,-1.9798,-1.9798,-1.9798,-1.9798,-1.9798,-1.9798,-1.9798,-1.9901,-2.0131,-2.0131,-2.0535,-0.3766,-0.3881,-0.4194,-0.4817,-0.451,-0.4226,0.0,0.0,-0.391,-0.4184,-0.3688,-0.3274,-0.3494,-0.3079,-0.2691,0.0,-0.2821,-0.3096,-0.3556,0.0,0.0,0.0,0.0,0.0,0.0,0.0,0.0,0.0,0.0,0.0,0.0,-0.8624,-0.9729,-1.0517,-1.1363,-1.1735,-1.1553,-1.18,-1.1827,-1.1727,-1.192,-1.1993,-1.1929,-1.2114,-1.2224,-1.2298,0.0,0.0,0.0,-1.177,-1.1617,-1.1382,-1.1295,-1.1262,-1.1323,-1.1571,-1.1677,-1.1769,-1.2035,-1.2022,-1.1897,-1.1897,-1.1743,-1.1722,-1.238,-1.3252,-1.402,-1.4173,-1.5031,-1.5831,-1.5488,-1.541,-1.541,-1.541,-1.541,-1.5449,-1.5672,-1.5769,-1.5875,-1.6056,-1.6521,-1.7017,-1.7396,-1.8174,-1.8842,-1.9198,-1.9552,-1.9798,-1.9798,-1.9798,-1.9798,-1.9798,-1.9798,-1.9798,-1.9798,-1.9798,-1.9798,-1.9798,-1.9798,-1.9798,-1.9798,-1.9798,-1.9798,-1.9798,-1.9798,-1.9798,-1.9798,-1.9798,-1.9798,-1.9798,-1.9798,-2.008,-0.4076,-0.4093,-0.4227,-0.4387,-0.4314,-0.4247,0.0,-0.3894,-0.3438,-0.3572,-0.3132,-0.2747,-0.2888,-0.2805,-0.2691,-0.2691,-0.2867,-0.3172,-0.3627,0.0,0.0,0.0,0.0,0.0,0.0,0.0,0.0,0.0,0.0,0.0,0.0,-0.7346,-0.853,-0.9672,-1.0372,-1.0702,-1.0697,-1.1513,-1.1754,-1.1495,-1.1727,-1.1764,-1.1706,-1.1892,-1.2114,0.0,0.0,0.0,0.0,-1.155,-1.1395,-1.1362,-1.1109,-1.0995,-1.0995,-1.086,-1.094,-1.1136,-1.1254,-1.1435,-1.1599,-1.1599,-1.1599,-1.1591,-1.1599,-1.2042,-1.2673,-1.3321,-1.443,-1.542,-1.541,-1.541,-1.541,-1.541,-1.541,-1.5449,-1.5672,-1.5701,-1.5788,-1.6056,-1.6114,-1.6521,-1.7847,-1.8093,-1.8498,-1.9618,-1.9798,-1.9798,-1.9798,-1.9798,-1.9798,-1.9798,-1.9798,-1.9798,-1.9798,-1.9798,-1.9798,-1.9798,-1.9798,-1.9798,-1.9798,-1.9798,-1.9798,-1.9798,-1.9798,-1.9798,-1.9798,-1.9798,-1.9798,-1.9798,-1.9798,-2.008,-0.2627,-0.2819,-0.3294,-0.3749,-0.3516,-0.3294,-0.3752,-0.3376,-0.294,-0.2965,-0.2828,-0.2719,-0.2747,-0.2719,-0.276,-0.288,0.0,0.0,0.0,0.0,0.0,0.0,0.0,0.0,0.0,0.0,0.0,0.0,0.0,0.0,0.0,-0.6616,-0.73,-0.8312,-0.9173,-0.9508,-0.9325,-1.0143,-1.0494,-1.0416,-1.1169,-1.1571,-1.1706,-1.1892,0.0,0.0,0.0,0.0,0.0,-1.1169,-1.1015,-1.0854,-1.0767,-1.0727,-1.0752,-1.0943,-1.1059,-1.1153,-1.1404,-1.156,-1.1591,-1.1591,-1.1591,-1.1685,-1.2097,-1.2673,-1.3403,-1.449,-1.5079,-1.541,-1.541,-1.541,-1.541,-1.541,-1.5507,-1.5643,-1.5798,-1.5904,-1.6038,-1.6249,-1.6306,-1.6449,-1.6864,-1.7584,-1.8228,-1.8578,-1.9293,-1.9798,-1.9798,-1.9798,-1.9798,-1.9798,-1.9798,-1.9798,-1.9798,-1.9798,-1.9798,-1.9798,-1.9798,-1.9798,-1.9798,-1.9798,-1.9798,-1.9798,-1.9798,-1.9798,-1.9798,-1.9798,-1.9798,-1.9798,-1.9798,-1.9901,0.0,-0.2572,-0.284,-0.3215,-0.3011,-0.2842,-0.3215,-0.2983,-0.2691,-0.2691,-0.2691,-0.2691,-0.2691,-0.2691,-0.2756,-0.2867,0.0,0.0,0.0,0.0,0.0,0.0,0.0,0.0,0.0,0.0,0.0,0.0,0.0,0.0,0.0,0.0,-0.6421,-0.7139,-0.8034,-0.8405,-0.8246,-0.9041,-0.9463,-0.9463,-1.0169,-1.0769,-1.1242,-1.1341,0.0,0.0,0.0,0.0,0.0,-1.0875,-1.0754,-1.0593,-1.0593,-1.0593,-1.0656,-1.0965,-1.109,-1.1153,-1.1466,-1.1591,-1.1591,-1.1591,-1.1591,-1.1709,-1.2336,-1.3152,-1.4043,-1.4854,-1.5206,-1.541,-1.541,-1.5449,-1.5507,-1.5507,-1.5643,-1.5827,-1.5961,-1.6038,-1.6153,-1.6374,-1.6413,-1.6459,-1.6666,-1.7279,-1.7918,-1.8375,-1.9042,-1.9578,-1.9773,-1.9798,-1.9798,-1.9798,-1.9798,-1.9798,-1.9798,-1.9798,-1.9798,-1.9798,-1.9798,-1.9798,-1.9798,-1.9798,-1.9798,-1.9798,-1.9798,-1.9798,-1.9798,-1.9798,-1.9798,-1.9798,-1.9798,-1.9798,0.0,-0.3061,-0.2788,-0.2788,-0.2788,-0.2788,-0.2788,-0.2752,0.0,-0.2691,-0.2691,-0.2693,-0.2699,-0.2695,-0.2699,-0.2723,0.0,0.0,0.0,0.0,0.0,0.0,0.0,0.0,0.0,0.0,0.0,0.0,0.0,0.0,0.0,0.0,-0.5927,-0.6264,-0.7026,-0.7407,-0.7407,-0.8208,-0.8627,-0.8627,-0.8851,-0.9475,-1.0381,-1.0348,0.0,0.0,0.0,0.0,0.0,-1.0668,-1.0593,-1.0593,-1.0593,-1.0624,-1.0656,-1.0965,-1.1122,-1.1153,-1.1498,-1.1591,-1.1591,-1.1591,-1.1622,-1.1771,-1.2328,-1.3394,-1.444,-1.4499,-1.4942,-1.541,-1.541,-1.5546,-1.5701,-1.5701,-1.5827,-1.5933,-1.6056,-1.6114,-1.6181,-1.6374,-1.6413,-1.6563,-1.7073,-1.7174,-1.7589,-1.8762,-1.896,-1.9198,-1.9721,-1.9798,-1.9798,-1.9798,-1.9798,-1.9798,-1.9798,-1.9798,-1.9798,-1.9798,-1.9798,-1.9798,-1.9798,-1.9798,-1.9798,-1.9798,-1.9798,-1.9798,-1.9798,-1.9798,-1.9798,-1.9798,-1.9798,-1.9798,-0.2686,0.0,-0.2723,-0.2723,-0.2723,-0.2723,0.0,-0.2707,-0.2691,-0.2691,0.0,-0.2711,-0.2754,-0.2738,-0.2781,0.0,0.0,0.0,0.0,0.0,0.0,0.0,0.0,0.0,0.0,0.0,0.0,0.0,0.0,0.0,0.0,0.0,-0.5848,-0.5986,-0.637,-0.6567,-0.6567,-0.7369,-0.7787,-0.7787,-0.8475,-0.8985,-0.9359,-0.9348,0.0,0.0,0.0,0.0,-0.9898,-1.0391,-1.0593,-1.0593,-1.0593,-1.0649,-1.0776,-1.0996,-1.1153,-1.1279,-1.1529,-1.1591,-1.1591,-1.1591,-1.1919,-1.2297,-1.2451,-1.307,-1.3842,-1.435,-1.4942,-1.541,-1.541,-1.5546,-1.5701,-1.5701,-1.5865,-1.6066,-1.6085,-1.621,-1.6345,-1.6374,-1.6413,-1.6431,-1.6563,-1.6916,-1.7451,-1.8201,-1.8709,-1.9198,-1.9721,-1.9798,-1.9798,-1.9798,-1.9798,-1.9798,-1.9798,-1.9798,-1.9798,-1.9798,-1.9798,-1.9798,-1.9798,-1.9798,-1.9798,-1.9798,-1.9798,-1.9798,-1.9798,-1.9798,-1.9798,-1.9798,-1.9798,-1.9798,-0.2556,-0.2649,-0.2691,-0.2691,-0.2691,-0.2691,-0.2691,0.0,0.0,0.0,0.0,-0.2705,-0.2756,0.0,0.0,0.0,0.0,0.0,0.0,0.0,0.0,0.0,0.0,0.0,0.0,0.0,0.0,0.0,0.0,0.0,0.0,0.0,-0.5544,-0.5713,-0.5863,-0.6043,-0.6296,-0.6718,-0.6912,-0.6832,-0.7354,-0.781,-0.8222,-0.8274,0.0,0.0,0.0,0.0,-0.9102,-0.9811,-1.0104,-1.0136,-1.0466,-1.0656,-1.0744,-1.0996,-1.1153,-1.1247,-1.1498,-1.1591,-1.1591,-1.1591,-1.1833,-1.2097,-1.2097,-1.252,-1.3252,-1.4222,-1.4942,-1.541,-1.541,-1.5546,-1.5711,-1.5769,-1.5951,-1.6114,-1.621,-1.6316,-1.6413,-1.6413,-1.6413,-1.6413,-1.6413,-1.6637,-1.7028,-1.7589,-1.8201,-1.8789,-1.937,-1.9643,-1.9798,-1.9798,-1.9798,-1.9798,-1.9798,-1.9798,-1.9798,-1.9798,-1.9798,-1.9798,-1.9798,-1.9798,-1.9798,-1.9798,-1.9798,-1.9798,-1.9798,-1.9798,-1.9798,-1.9798,-1.9798,-1.9798,-0.2539,-0.2601,-0.2617,-0.2687,-0.2691,-0.2691,-0.2635,0.0,0.0,0.0,0.0,0.0,0.0,0.0,0.0,0.0,0.0,0.0,0.0,0.0,0.0,0.0,0.0,0.0,0.0,0.0,0.0,0.0,0.0,0.0,0.0,0.0,0.0,-0.548,-0.5491,-0.5744,-0.6224,-0.6203,-0.6125,-0.5956,-0.6138,-0.6525,-0.706,-0.7224,0.0,0.0,0.0,0.0,-0.8393,-0.9166,-0.9486,-0.9582,-1.0301,-1.0624,-1.0688,-1.0965,-1.1122,-1.1185,-1.1498,-1.1591,-1.1591,-1.1591,-1.1591,-1.1591,-1.1591,-1.2011,-1.2757,-1.3885,-1.4726,-1.5323,-1.542,-1.5604,-1.5788,-1.5904,-1.6038,-1.6181,-1.6374,-1.6413,-1.6413,-1.6413,-1.6413,-1.6413,-1.6413,-1.6413,-1.6591,-1.7129,-1.7644,-1.8201,-1.8907,-1.9396,-1.9695,-1.9798,-1.9798,-1.9798,-1.9798,-1.9798,-1.9798,-1.9798,-1.9798,-1.9798,-1.9798,-1.9798,-1.9798,-1.9798,-1.9798,-1.9798,-1.9798,-1.9798,-1.9798,-1.9798,-1.9798,-1.9798,-0.2434,-0.2321,-0.2268,-0.2615,-0.2691,-0.2635,-0.2352,0.0,0.0,0.0,0.0,0.0,0.0,0.0,0.0,0.0,0.0,0.0,0.0,0.0,0.0,0.0,0.0,0.0,0.0,0.0,0.0,0.0,0.0,0.0,0.0,0.0,0.0,-0.5337,-0.557,-0.5712,-0.5795,-0.5862,-0.5861,-0.5837,-0.5873,-0.5933,-0.6026,-0.6214,-0.6395,0.0,0.0,-0.7652,-0.7749,-0.9005,-0.9486,-0.9582,-1.0301,-1.0688,-1.0807,-1.1028,-1.1185,-1.1303,-1.1529,-1.1591,-1.1591,-1.1591,-1.1591,-1.1591,-1.1591,-1.2011,-1.2543,-1.2757,-1.3765,-1.4951,-1.5527,-1.5836,-1.6028,-1.6056,-1.622,-1.6374,-1.6374,-1.6413,-1.6413,-1.6413,-1.6413,-1.6413,-1.6413,-1.6413,-1.6591,-1.7129,-1.7285,-1.7727,-1.8854,-1.9066,-1.9291,-1.9747,-1.9798,-1.9798,-1.9798,-1.9798,-1.9798,-1.9798,-1.9798,-1.9798,-1.9798,-1.9798,-1.9798,-1.9798,-1.9798,-1.9798,-1.9798,-1.9798,-1.9798,-1.9798,-1.9798,-1.9798,-0.2344,-0.2309,-0.2293,-0.2349,-0.2296,-0.2185,-0.2013,0.0,0.0,0.0,0.0,0.0,0.0,0.0,0.0,0.0,0.0,0.0,0.0,0.0,0.0,0.0,0.0,0.0,0.0,0.0,0.0,0.0,0.0,0.0,0.0,0.0,0.0,0.0,-0.5246,-0.5356,-0.5496,-0.5567,-0.5606,-0.5688,-0.5688,-0.5644,-0.5595,-0.5764,-0.5892,-0.6053,0.0,-0.6835,-0.7003,-0.8393,-0.8973,-0.9069,-1.0168,-1.0681,-1.0839,-1.1122,-1.131,-1.1466,-1.156,-1.1591,-1.1591,-1.1591,-1.1591,-1.1591,-1.1591,-1.1926,-1.2343,-1.2673,-1.3704,-1.4765,-1.5069,-1.5575,-1.6009,-1.6085,-1.6181,-1.6278,-1.6374,-1.6413,-1.6413,-1.6413,-1.6413,-1.6413,-1.6413,-1.6413,-1.6591,-1.7129,-1.7479,-1.8011,-1.8881,-1.9239,-1.9526,-1.9773,-1.9798,-1.9798,-1.9798,-1.9798,-1.9798,-1.9798,-1.9798,-1.9798,-1.9798,-1.9798,-1.9798,-1.9798,-1.9798,-1.9798,-1.9798,-1.9798,-1.9798,-1.9798,-1.9798,-1.9798,-0.23,-0.2299,-0.2262,-0.2056,0.0,-0.1864,-0.1732,0.0,0.0,0.0,0.0,0.0,0.0,0.0,0.0,0.0,0.0,0.0,0.0,0.0,0.0,0.0,0.0,0.0,0.0,0.0,0.0,0.0,0.0,0.0,0.0,0.0,0.0,0.0,-0.5054,-0.5182,-0.5358,-0.542,-0.5491,-0.5538,-0.5538,-0.5508,-0.5395,-0.5587,-0.5752,-0.5925,-0.6148,-0.6317,-0.6515,-0.7907,-0.849,-0.8651,-1.004,-1.0713,-1.0902,-1.1146,-1.1404,-1.1591,-1.1591,-1.1591,-1.1591,-1.1591,-1.1591,-1.1591,-1.1591,-1.1778,-1.2089,-1.2528,-1.3584,-1.4588,-1.4824,-1.543,-1.6058,-1.6153,-1.6181,-1.621,-1.6374,-1.6413,-1.6413,-1.6413,-1.6413,-1.6381,-1.6267,-1.6247,-1.6336,-1.6622,-1.7164,-1.7786,-1.8531,-1.9075,-1.9514,-1.9773,-1.9798,-1.9798,-1.9798,-1.9798,-1.9798,-1.9798,-1.9798,-1.9798,-1.9798,-1.9798,-1.9798,-1.9798,-1.9798,-1.9798,-1.9798,-1.9798,-1.9798,-1.9798,-1.9798,-1.9798,-0.2283,-0.2155,-0.1987,-0.177,-0.1943,0.0,-0.1551,-0.1446,0.0,0.0,0.0,0.0,0.0,0.0,0.0,0.0,0.0,0.0,0.0,0.0,0.0,0.0,0.0,0.0,0.0,0.0,0.0,0.0,0.0,0.0,0.0,0.0,0.0,0.0,0.0,-0.5417,-0.547,-0.5542,-0.5542,-0.5412,-0.5412,-0.5405,-0.5395,-0.5723,-0.5888,-0.5925,-0.6251,-0.6383,-0.6515,-0.7907,-0.849,-0.8651,-1.004,-1.0814,-1.109,-1.1122,-1.131,-1.1591,-1.1591,-1.1591,-1.1591,-1.1591,-1.1591,-1.1591,-1.1591,-1.1622,-1.1654,-1.1685,-1.2826,-1.4243,-1.5108,-1.5836,-1.6384,-1.6374,-1.6374,-1.6374,-1.6413,-1.6413,-1.6413,-1.6413,-1.6413,-1.6267,-1.5842,-1.5742,-1.5625,-1.5216,-1.5571,-1.6283,-1.7355,-1.7928,-1.8632,-1.9695,-1.9798,-1.9798,-1.9798,-1.9798,-1.9798,-1.9798,-1.9798,-1.9798,-1.9798,-1.9798,-1.9798,-1.9798,-1.9798,-1.9798,-1.9798,-1.9798,-1.9798,-1.9798,-1.9798,-1.9798,-0.2232,-0.2237,-0.2202,-0.1952,-0.1909,0.0,0.0,0.0,0.0,0.0,0.0,0.0,0.0,0.0,0.0,0.0,0.0,0.0,0.0,0.0,0.0,0.0,0.0,0.0,0.0,0.0,0.0,0.0,0.0,0.0,0.0,0.0,0.0,0.0,0.0,-0.5408,-0.543,-0.5535,-0.5559,-0.5535,-0.544,-0.5395,-0.5395,-0.562,-0.5785,-0.5925,-0.6152,-0.6317,-0.6482,-0.7456,-0.8134,-0.8651,-1.0295,-1.0996,-1.1122,-1.1341,-1.1498,-1.1591,-1.1591,-1.1591,-1.1591,-1.1591,-1.1747,-1.191,-1.191,-1.2182,-1.2459,-1.2459,-1.348,-1.4549,-1.454,-1.5468,-1.6413,-1.6413,-1.6413,-1.6413,-1.6413,-1.6413,-1.6413,-1.6413,-1.6413,-1.6267,-1.5773,-1.5691,-1.566,-1.5555,-1.5719,-1.6343,-1.7777,-1.7808,-1.8134,-1.9183,-1.9296,-1.9447,-1.9773,-1.9798,-1.9798,-1.9798,-1.9798,-1.9798,-1.9798,-1.9798,-1.9798,-1.9798,-1.9798,-1.9798,-1.9798,-1.9798,-1.9798,-1.9798,-1.9798,-1.9798,-0.2257,-0.2349,-0.2383,0.0,0.0,0.0,0.0,0.0,0.0,0.0,0.0,0.0,0.0,0.0,0.0,0.0,0.0,0.0,0.0,0.0,0.0,0.0,0.0,0.0,0.0,0.0,0.0,0.0,0.0,0.0,0.0,0.0,0.0,0.0,0.0,0.0,-0.5442,-0.5464,-0.5528,-0.5549,-0.5443,-0.5395,-0.5395,-0.5554,-0.5719,-0.5925,-0.6115,-0.628,-0.6449,-0.7199,-0.8004,-0.8941,-1.0193,-1.0863,-1.1122,-1.1404,-1.156,-1.1591,-1.1591,-1.1591,-1.1591,-1.1591,-1.1747,-1.1972,-1.2058,-1.2398,-1.2736,-1.2828,-1.3782,-1.4677,-1.4282,-1.5264,-1.6413,-1.6413,-1.6413,-1.6413,-1.6413,-1.6413,-1.6413,-1.6413,-1.6413,-1.6216,-1.5577,-1.5473,-1.5426,-1.5203,-1.5437,-1.6073,-1.7381,-1.7483,-1.7764,-1.8646,-1.8895,-1.9146,-1.9522,-1.971,-1.9798,-1.9798,-1.9798,-1.9798,-1.9798,-1.9798,-1.9798,-1.9798,-1.9798,-1.9798,-1.9798,-1.9798,-1.9798,-1.9798,-1.9798,-1.9798,-0.2328,-0.244,-0.2525,0.0,0.0,0.0,0.0,0.0,0.0,0.0,0.0,0.0,0.0,0.0,0.0,0.0,0.0,0.0,0.0,0.0,0.0,0.0,0.0,0.0,0.0,0.0,0.0,0.0,0.0,0.0,0.0,0.0,0.0,0.0,0.0,0.0,-0.5486,-0.5377,-0.5337,-0.5395,-0.5395,-0.5395,-0.5395,-0.5554,-0.5719,-0.5925,-0.6115,-0.628,-0.6449,-0.7199,-0.8296,-0.9486,-0.9709,-1.032,-1.1122,-1.1247,-1.1435,-1.1591,-1.1591,-1.1591,-1.1591,-1.1591,-1.1591,-1.1654,-1.1996,-1.2096,-1.2151,-1.2421,-1.3472,-1.4499,-1.4499,-1.5449,-1.6413,-1.6413,-1.6413,-1.6413,-1.6413,-1.6402,-1.6402,-1.6402,-1.6392,-1.6102,-1.5152,-1.4987,-1.4676,-1.3731,-1.4406,-1.5207,-1.5808,-1.6716,-1.7521,-1.812,-1.8669,-1.8995,-1.9008,-1.9497,-1.9798,-1.9798,-1.9798,-1.9798,-1.9798,-1.9798,-1.9798,-1.9798,-1.9798,-1.9798,-1.9798,-1.9798,-1.9798,-1.9798,-1.9798,-1.9798,-0.2446,-0.2366,0.0,0.0,0.0,0.0,0.0,0.0,0.0,0.0,0.0,0.0,0.0,0.0,0.0,0.0,0.0,0.0,0.0,0.0,0.0,0.0,0.0,0.0,0.0,0.0,0.0,0.0,0.0,0.0,0.0,0.0,0.0,0.0,0.0,0.0,-0.5165,-0.5237,-0.5318,-0.5344,-0.5376,-0.5395,-0.5395,-0.5554,-0.565,-0.5719,-0.6046,-0.6214,-0.6313,-0.7162,-0.7749,-0.8199,-0.9358,-1.0028,-1.0408,-1.1052,-1.1435,-1.1591,-1.1591,-1.1591,-1.1591,-1.1591,-1.1747,-1.1965,-1.2058,-1.2243,-1.2513,-1.3147,-1.3902,-1.4617,-1.5196,-1.5875,-1.6413,-1.6413,-1.6413,-1.6413,-1.6413,-1.6153,-1.5925,-1.5925,-1.5628,-1.5214,-1.4614,-1.4511,-1.4304,-1.3679,-1.4163,-1.4874,-1.5724,-1.6739,-1.7453,-1.7626,-1.8129,-1.8581,-1.897,-1.9497,-1.9648,-1.9259,-1.9233,-1.9396,-1.9786,-1.9798,-1.9798,-1.9798,-1.9798,-1.9798,-1.9798,-1.9798,-1.9798,-1.9798,-1.9798,-1.9798,-0.3017,0.0,0.0,0.0,0.0,0.0,0.0,0.0,0.0,0.0,0.0,0.0,0.0,0.0,0.0,0.0,0.0,0.0,0.0,0.0,0.0,0.0,0.0,0.0,0.0,0.0,0.0,0.0,0.0,0.0,0.0,0.0,0.0,0.0,0.0,0.0,-0.487,-0.5017,-0.5151,-0.5219,-0.5336,-0.5395,-0.5395,-0.5491,-0.5554,-0.5617,-0.6013,-0.6214,-0.6313,-0.6839,-0.7232,-0.7619,-0.8967,-0.9703,-1.0117,-1.1076,-1.1498,-1.1591,-1.1591,-1.1591,-1.1591,-1.1591,-1.1755,-1.1934,-1.2065,-1.212,-1.2308,-1.3174,-1.3856,-1.4472,-1.5177,-1.5875,-1.6413,-1.6413,-1.6413,-1.6361,-1.6174,-1.5915,-1.5628,-1.5452,-1.5183,-1.4852,-1.4386,-1.4304,-1.4148,-1.3659,-1.4069,-1.4741,-1.5682,-1.6211,-1.6622,-1.6965,-1.7345,-1.7759,-1.8277,-1.9033,-1.9233,-1.8707,-1.8882,-1.9045,-1.9158,-1.9171,-1.9171,-1.9171,-1.9171,-1.9271,-1.9497,-1.9497,-1.9497,-1.9497,-1.9497,-1.9371,-0.3813,0.0,0.0,0.0,0.0,0.0,0.0,0.0,0.0,0.0,0.0,0.0,0.0,0.0,0.0,0.0,0.0,0.0,0.0,0.0,0.0,0.0,0.0,0.0,0.0,0.0,0.0,0.0,0.0,0.0,0.0,0.0,0.0,0.0,0.0,0.0,-0.4631,-0.4721,-0.4857,0.0,-0.5252,-0.5354,-0.5354,-0.5382,-0.5491,-0.565,-0.6017,-0.6251,-0.6387,-0.6387,-0.6806,-0.7521,-0.8576,-0.934,-1.0053,-1.1178,-1.1591,-1.1591,-1.1591,-1.1591,-1.1591,-1.1591,-1.1591,-1.1654,-1.1972,-1.1844,-1.184,-1.2769,-1.3444,-1.4089,-1.4732,-1.5544,-1.6221,-1.6249,-1.6319,-1.6236,-1.5773,-1.5618,-1.5442,-1.5018,-1.4904,-1.4738,-1.4314,-1.4242,-1.4097,-1.373,-1.4093,-1.4724,-1.5621,-1.5383,-1.5486,-1.632,-1.661,-1.6895,-1.7352,-1.8388,-1.8744,-1.8166,-1.8569,-1.8607,-1.8078,-1.8154,-1.8204,-1.8204,-1.8204,-1.8455,-1.8933,-1.8933,-1.8933,-1.8933,-1.8933,-1.8657,0.0,-0.3858,0.0,0.0,0.0,0.0,0.0,0.0,0.0,0.0,0.0,0.0,0.0,0.0,0.0,0.0,0.0,0.0,0.0,0.0,0.0,0.0,0.0,0.0,0.0,0.0,0.0,0.0,0.0,0.0,0.0,0.0,0.0,0.0,0.0,-0.4121,-0.4082,-0.4247,-0.4419,0.0,-0.4758,-0.492,-0.5023,-0.5289,-0.5557,-0.5855,-0.5921,-0.6119,-0.6387,-0.6387,-0.6482,-0.6773,-0.8221,-0.8956,-0.9372,-1.0818,-1.1466,-1.1591,-1.1591,-1.1591,-1.1591,-1.1591,-1.1591,-1.1622,-1.1685,-1.185,-1.2181,-1.3009,-1.3296,-1.3625,-1.4695,-1.4889,-1.4901,-1.5233,-1.5577,-1.5804,-1.5711,-1.5121,-1.4573,-1.448,-1.4159,-1.3879,-1.3776,-1.3741,-1.3854,-1.4174,-1.4337,-1.4603,-1.5188,-1.5486,-1.5892,-1.648,-1.729,-1.7836,-1.8002,-1.8633,-1.8581,-1.7614,-1.7664,-1.7476,-1.6889,-1.7727,-1.8204,-1.8204,-1.8204,-1.8267,-1.8356,-1.8356,-1.8356,-1.8356,-1.8356,-1.8317,0.0,0.0,0.0,0.0,0.0,0.0,0.0,0.0,0.0,0.0,0.0,0.0,0.0,0.0,0.0,0.0,0.0,0.0,0.0,0.0,0.0,0.0,0.0,0.0,0.0,0.0,0.0,0.0,0.0,0.0,0.0,0.0,0.0,0.0,-0.3147,-0.3532,-0.3475,-0.3969,-0.4275,-0.4388,-0.4607,-0.4762,-0.4894,-0.5077,-0.5339,-0.5657,-0.5657,-0.5848,-0.6164,-0.6164,-0.6164,-0.6291,-0.7492,-0.8238,-0.8757,-0.9992,-1.0824,-1.1364,-1.1364,-1.1459,-1.1591,-1.1591,-1.1489,-1.1364,-1.1364,-1.1264,-1.1334,-1.2193,-1.2461,-1.2728,-1.3801,-1.4233,-1.444,-1.4661,-1.504,-1.5297,-1.507,-1.4645,-1.4242,-1.4014,-1.3776,-1.3597,-1.3597,-1.3597,-1.3681,-1.3975,-1.4022,-1.4262,-1.4962,-1.5327,-1.5882,-1.6842,-1.7205,-1.7497,-1.7738,-1.805,-1.7877,-1.7024,-1.7247,-1.7124,-1.6525,-1.7064,-1.74,-1.74,-1.74,-1.7539,-1.7815,-1.7815,-1.7815,-1.7815,-1.7815,-1.7664,0.0,0.0,0.0,0.0,0.0,0.0,0.0,0.0,0.0,0.0,0.0,0.0,0.0,0.0,0.0,0.0,0.0,0.0,0.0,0.0,0.0,0.0,0.0,0.0,0.0,0.0,0.0,0.0,0.0,0.0,0.0,0.0,-0.089,-0.1615,-0.2378,-0.2832,-0.2937,-0.3603,-0.4054,-0.4291,-0.4504,-0.4687,-0.484,-0.484,-0.5017,-0.5373,-0.5404,-0.5586,-0.5858,-0.5888,-0.5888,-0.5975,-0.6862,-0.7601,-0.831,-0.9195,-1.0177,-1.1092,-1.1041,-1.1269,-1.1569,-1.1459,-1.1276,-1.1092,-1.1034,-1.0695,-1.0512,-1.1268,-1.1655,-1.2017,-1.2869,-1.3628,-1.4184,-1.4246,-1.4516,-1.4676,-1.4376,-1.4242,-1.4051,-1.3669,-1.3597,-1.3597,-1.3597,-1.3597,-1.3597,-1.3597,-1.3597,-1.3865,-1.4655,-1.4942,-1.5585,-1.7028,-1.6844,-1.6824,-1.74,-1.7423,-1.7137,-1.6538,-1.6974,-1.7024,-1.6513,-1.65,-1.65,-1.65,-1.65,-1.676,-1.7237,-1.7237,-1.7237,-1.7237,-1.7237,-1.6974,0.0,0.0,0.0,0.0,0.0,0.0,0.0,0.0,0.0,0.0,0.0,0.0,0.0,0.0,0.0,0.0,0.0,0.0,0.0,0.0,0.0,0.0,0.0,0.0,0.0,0.0,0.0,0.0,0.0,0.0,0.0,-0.0031,-0.0486,-0.0591,-0.1418,-0.2158,-0.2746,-0.2858,-0.3224,-0.3873,-0.4132,-0.436,-0.4552,-0.4552,-0.4808,-0.5245,-0.5339,-0.5521,-0.5729,-0.5858,-0.5888,-0.5975,-0.6862,-0.7601,-0.831,-0.9195,-1.0177,-1.1063,-1.0777,-1.1078,-1.1496,-1.0931,-1.0909,-1.1048,-1.0741,-1.0958,-1.1347,-1.1443,-1.1881,-1.2419,-1.2891,-1.3096,-1.3267,-1.3628,-1.3748,-1.3865,-1.4231,-1.3969,-1.3669,-1.3607,-1.3597,-1.3597,-1.3597,-1.3597,-1.3597,-1.3597,-1.3597,-1.3641,-1.3765,-1.4153,-1.5031,-1.6612,-1.6678,-1.7012,-1.8001,-1.7656,-1.7137,-1.6538,-1.6584,-1.6575,-1.65,-1.65,-1.65,-1.65,-1.65,-1.6538,-1.6613,-1.6613,-1.6613,-1.6613,-1.6613,-1.6575,0.0,0.0,0.0,0.0,0.0,0.0,0.0,0.0,0.0,0.0,0.0,0.0,0.0,0.0,0.0,0.0,0.0,0.0,0.0,0.0,0.0,0.0,0.0,0.0,0.0,0.0,0.0,0.0,0.0,0.0,0.0937,0.0468,0.0203,0.0229,-0.0658,-0.1278,-0.1567,-0.2319,-0.3072,-0.3796,-0.4079,-0.4249,-0.4328,-0.4436,-0.4647,-0.4923,-0.5063,-0.5207,-0.5379,-0.5502,-0.5559,-0.5588,-0.5984,-0.6823,-0.7851,-0.8247,-0.9289,-1.0507,-1.0368,-1.0652,-1.0997,-1.0711,-1.0558,-1.0499,-1.0353,-1.0494,-1.0701,-1.0888,-1.1401,-1.1968,-1.2298,-1.2698,-1.304,-1.3218,-1.3443,-1.3648,-1.3845,-1.3765,-1.3597,-1.3597,-1.3597,-1.3597,-1.3597,-1.3597,-1.3597,-1.3597,-1.3597,-1.38,-1.4362,-1.4885,-1.5672,-1.6966,-1.7073,-1.725,-1.7716,-1.7225,-1.6785,-1.6513,-1.65,-1.65,-1.65,-1.65,-1.65,-1.65,-1.65,-1.65,-1.65,-1.65,-1.65,-1.65,-1.65,-1.65,0.0,0.0,0.0,0.0,0.0,0.0,0.0,0.0,0.0,0.0,0.0,0.0,0.0,0.0,0.0,0.0,0.0,0.0,0.0,0.0,0.0,0.0,0.0,0.0,0.0,0.0,0.0,0.0,0.0,0.0,0.0898,0.0807,0.0719,0.0664,-0.0027,-0.0519,-0.0711,-0.1989,-0.2952,-0.3583,-0.3893,-0.4103,-0.4193,-0.4356,-0.4494,-0.466,-0.4794,-0.4932,-0.5069,-0.5183,-0.527,-0.5325,-0.5458,-0.6317,-0.7465,-0.7658,-0.8716,-1.0035,-0.9982,-1.0243,-1.0558,-1.0389,-1.0228,-1.0082,-1.0002,-0.9978,-1.0076,-1.0419,-1.104,-1.1685,-1.1968,-1.2598,-1.316,-1.316,-1.3386,-1.3597,-1.3597,-1.3597,-1.3597,-1.3597,-1.3597,-1.3597,-1.3597,-1.3597,-1.3597,-1.3597,-1.3716,-1.4059,-1.4834,-1.5372,-1.6091,-1.7088,-1.708,-1.71,-1.7363,-1.6861,-1.65,-1.65,-1.65,-1.65,-1.65,-1.65,-1.65,-1.65,-1.65,-1.65,-1.65,-1.65,-1.65,-1.65,-1.65,-1.65,0.0,0.0,0.0,0.0,0.0,0.0,0.0,0.0,0.0,0.0,0.0,0.0,0.0,0.0,0.0,0.0,0.0,0.0,0.0,0.0,0.0,0.0,0.0,0.0,0.0,0.0,0.0,0.0,0.0,0.0,0.0898,0.0898,0.0801,0.0614,0.0439,0.0,-0.0684,-0.1899,-0.2652,-0.2951,-0.3409,-0.3824,-0.4193,-0.4221,-0.4328,-0.4519,-0.466,-0.4794,-0.4928,-0.5042,-0.5183,-0.5352,-0.5941,-0.6637,-0.7396,-0.8096,-0.9025,-0.987,-0.9693,-1.0053,-1.0485,-0.9863,-0.9863,-1.0046,-0.9731,-0.9792,-1.0076,-1.0419,-1.12,-1.2046,-1.2387,-1.3021,-1.3573,-1.3573,-1.3586,-1.3597,-1.3597,-1.3597,-1.3597,-1.3597,-1.3597,-1.3597,-1.3597,-1.3597,-1.3597,-1.3597,-1.4022,-1.4373,-1.4419,-1.4857,-1.5521,-1.6522,-1.6182,-1.6298,-1.7303,-1.6861,-1.65,-1.65,-1.65,-1.65,-1.65,-1.65,-1.65,-1.65,-1.65,-1.65,-1.65,-1.65,-1.65,-1.65,-1.65,-1.65,0.0,0.0,0.0,0.0,0.0,0.0,0.0,0.0,0.0,0.0,0.0,0.0,0.0,0.0,0.0,0.0,0.0,0.0,0.0,0.0,0.0,0.0,0.0,0.0,0.0,0.0,0.0,0.0,0.0,0.0,0.0897,0.0912,0.0843,0.0721,0.0609,0.0126,-0.068,-0.151,-0.2177,-0.2643,-0.321,-0.3593,-0.3825,-0.4045,-0.419,-0.4331,-0.4508,-0.466,-0.4794,-0.5014,-0.5128,-0.5238,-0.5941,-0.6642,-0.7396,-0.8123,-0.8904,-0.959,-0.9606,-0.9768,-0.9921,-0.9687,-0.9694,-0.9768,-0.9624,-0.9777,-1.0025,-1.0154,-1.0753,-1.1484,-1.2039,-1.257,-1.3064,-1.3491,-1.3597,-1.3597,-1.3597,-1.3597,-1.3597,-1.3597,-1.3597,-1.3597,-1.3597,-1.3597,-1.3597,-1.3597,-1.3763,-1.4022,-1.4361,-1.4811,-1.5245,-1.5601,-1.5997,-1.6281,-1.6367,-1.6449,-1.65,-1.65,-1.65,-1.65,-1.65,-1.65,-1.65,-1.65,-1.65,-1.65,-1.65,-1.65,-1.65,-1.65,-1.65,-1.65,0.0,0.0,0.0,0.0,0.0,0.0,0.0,0.0,0.0,0.0,0.0,0.0,0.0,0.0,0.0,0.0,0.0,0.0,0.0,0.0,0.0,0.0,0.0,0.0,0.0,0.0,0.0,0.0,0.0,0.0,0.0917,0.088,0.0809,0.0705,0.0583,0.0243,-0.0389,-0.1163,-0.1756,-0.2202,-0.2916,-0.3359,-0.3552,-0.3818,-0.3988,-0.4075,-0.4301,-0.4501,-0.4715,-0.4932,-0.5069,-0.5179,-0.6127,-0.6804,-0.7343,-0.8262,-0.887,-0.9283,-0.9458,-0.9536,-0.9536,-0.9588,-0.9588,-0.9588,-0.9588,-0.9725,-0.9888,-0.9973,-1.0549,-1.1267,-1.1807,-1.2423,-1.2991,-1.3491,-1.3597,-1.3597,-1.3597,-1.3597,-1.3597,-1.3597,-1.3597,-1.3597,-1.3597,-1.3597,-1.3597,-1.3597,-1.3752,-1.3999,-1.435,-1.4811,-1.5108,-1.5108,-1.5812,-1.6129,-1.5832,-1.6216,-1.65,-1.65,-1.65,-1.65,-1.65,-1.65,-1.65,-1.65,-1.65,-1.65,-1.65,-1.65,-1.65,-1.65,-1.65,-1.65,0.0,0.0,0.0,0.0,0.0,0.0,0.0,0.0,0.0,0.0,0.0,0.0,0.0,0.0,0.0,0.0,0.0,0.0,0.0,0.0,0.0,0.0,0.0,0.0,0.0,0.0,0.0,0.0,0.0,0.055,0.0958,0.0876,0.0703,0.0518,0.045,0.0337,0.0202,-0.0851,-0.1463,-0.1593,-0.2543,-0.3126,-0.3385,-0.3518,-0.3667,-0.3817,-0.4068,-0.4374,-0.4701,-0.4842,-0.4983,-0.5234,-0.6566,-0.7112,-0.7246,-0.8527,-0.9008,-0.9035,-0.9309,-0.9387,-0.9413,-0.9562,-0.9588,-0.9588,-0.9588,-0.9588,-0.9647,-0.9914,-1.066,-1.145,-1.1819,-1.2647,-1.342,-1.3563,-1.3586,-1.3586,-1.3586,-1.3597,-1.3597,-1.3597,-1.3597,-1.3597,-1.3597,-1.3597,-1.3597,-1.3597,-1.4046,-1.4373,-1.4373,-1.4811,-1.5085,-1.5085,-1.5512,-1.581,-1.581,-1.6216,-1.65,-1.65,-1.65,-1.65,-1.65,-1.65,-1.65,-1.65,-1.65,-1.65,-1.65,-1.65,-1.65,-1.65,-1.65,-1.65,-0.4444,0.0,0.0,0.0,0.0,0.0,0.0,0.0,0.0,0.0,0.0,0.0,0.0,0.0,0.0,0.0,0.0,0.0,0.0,0.0,0.0,0.0,0.0,0.0,0.0,0.0,0.0,0.0,-0.0213,0.0052,0.0536,0.0678,0.0705,0.0652,0.0539,0.0427,0.0337,-0.0762,-0.1374,-0.1459,-0.2461,-0.2998,-0.3121,-0.331,-0.3477,-0.3654,-0.3842,-0.4028,-0.4239,-0.4696,-0.4983,-0.5234,-0.6566,-0.7112,-0.7246,-0.8527,-0.9008,-0.9035,-0.9185,-0.9309,-0.9413,-0.9439,-0.951,-0.9588,-0.9588,-0.9588,-0.9614,-0.9699,-1.0182,-1.0897,-1.1884,-1.2686,-1.3266,-1.329,-1.3386,-1.3467,-1.3467,-1.3539,-1.3597,-1.3597,-1.3597,-1.3597,-1.3597,-1.3597,-1.3597,-1.3597,-1.3739,-1.3823,-1.3823,-1.457,-1.4971,-1.4628,-1.5623,-1.6173,-1.5832,-1.6216,-1.65,-1.65,-1.65,-1.65,-1.65,-1.65,-1.65,-1.65,-1.65,-1.65,-1.65,-1.65,-1.65,-1.65,-1.65,-1.65,0.0,0.0,0.0,0.0,0.0,0.0,0.0,0.0,0.0,0.0,0.0,0.0,0.0,0.0,0.0,0.0,0.0,0.0,0.0,0.0,0.0,0.0,0.0,0.0,0.0,0.0,0.0,0.0,-0.0394,-0.0177,0.0374,0.041,0.0494,0.0697,0.0562,0.0472,0.045,-0.0717,-0.1321,-0.1366,-0.2395,-0.2909,-0.2951,-0.3115,-0.3264,-0.3438,-0.3624,-0.3827,-0.4042,-0.444,-0.4744,-0.5054,-0.6261,-0.6864,-0.7219,-0.8176,-0.8712,-0.8929,-0.9054,-0.9211,-0.9335,-0.9387,-0.9484,-0.9588,-0.9588,-0.9588,-0.9588,-0.9588,-1.0156,-1.1032,-1.2264,-1.2876,-1.3166,-1.3194,-1.3266,-1.3314,-1.3314,-1.342,-1.3539,-1.3597,-1.3597,-1.3597,-1.3597,-1.3597,-1.3597,-1.3597,-1.3597,-1.3692,-1.3905,-1.4443,-1.4789,-1.4697,-1.5601,-1.6107,-1.5832,-1.6216,-1.65,-1.65,-1.65,-1.65,-1.65,-1.65,-1.65,-1.65,-1.65,-1.65,-1.65,-1.65,-1.65,-1.65,-1.65,-1.65,0.0,-0.5339,0.0,0.0,0.0,0.0,-0.4768,-0.4474,0.0,0.0,0.0,0.0,0.0,0.0,0.0,0.0,0.0,0.0,0.0,0.0,0.0,0.0,0.0,0.0,0.0,0.0,-0.0742,-0.0371,-0.0383,-0.0193,0.0293,0.0134,0.0247,0.0652,0.0562,0.0517,0.0494,-0.0672,-0.1277,-0.1321,-0.2373,-0.289,-0.2912,-0.297,-0.3059,-0.3198,-0.3441,-0.3705,-0.3949,-0.4108,-0.4401,-0.4808,-0.5784,-0.6541,-0.7166,-0.7711,-0.8282,-0.8804,-0.8929,-0.9061,-0.9211,-0.9335,-0.9465,-0.9588,-0.9588,-0.9588,-0.9614,-0.9744,-1.0507,-1.156,-1.2774,-1.3085,-1.3099,-1.3156,-1.317,-1.3194,-1.3194,-1.329,-1.342,-1.3539,-1.3597,-1.3597,-1.3597,-1.3597,-1.3597,-1.3597,-1.3597,-1.3776,-1.4257,-1.435,-1.4581,-1.504,-1.5512,-1.5832,-1.5876,-1.6272,-1.65,-1.65,-1.65,-1.65,-1.65,-1.65,-1.65,-1.65,-1.65,-1.65,-1.65,-1.65,-1.65,-1.65,-1.65,-1.65,-0.5956,-0.5937,-0.5832,0.0,0.0,0.0,0.0,-0.438,0.0,0.0,0.0,0.0,0.0,0.0,0.0,0.0,0.0,0.0,0.0,0.0,0.0,0.0,0.0,0.0,0.0,0.0,-0.0848,-0.0716,-0.0503,-0.0366,-0.0247,0.0112,0.0359,0.045,0.0584,0.0607,0.0494,-0.0493,-0.1097,-0.1321,-0.2281,-0.2798,-0.289,-0.2912,-0.2973,-0.3059,-0.3197,-0.3369,-0.3539,-0.3899,-0.4369,-0.492,-0.5605,-0.6385,-0.7166,-0.7711,-0.8282,-0.8804,-0.8831,-0.8936,-0.9061,-0.9185,-0.9342,-0.9465,-0.9562,-0.9588,-0.9795,-1.0635,-1.1385,-1.2076,-1.2759,-1.2929,-1.2954,-1.2968,-1.3041,-1.3123,-1.3123,-1.319,-1.329,-1.3409,-1.3515,-1.3597,-1.3597,-1.3597,-1.3597,-1.3597,-1.3597,-1.3644,-1.3729,-1.414,-1.4581,-1.504,-1.5512,-1.5942,-1.6337,-1.6457,-1.65,-1.65,-1.65,-1.65,-1.65,-1.65,-1.65,-1.65,-1.65,-1.65,-1.65,-1.65,-1.65,-1.65,-1.65,-1.65,0.0,0.0,-0.6068,-0.569,0.0,0.0,0.0,0.0,0.0,0.0,0.0,0.0,0.0,0.0,0.0,0.0,0.0,0.0,0.0,0.0,0.0,0.0,0.0,0.0,0.0,0.0,-0.0843,-0.0813,-0.0757,-0.0642,-0.0405,-0.009,0.0202,0.0405,0.0652,0.0742,0.0607,-0.0403,-0.1007,-0.1208,-0.2215,-0.2776,-0.289,-0.289,-0.2929,-0.3012,-0.3078,-0.3214,-0.3423,-0.3611,-0.4004,-0.4498,-0.501,-0.5925,-0.698,-0.7263,-0.7953,-0.8804,-0.8804,-0.8883,-0.9008,-0.9087,-0.9237,-0.9413,-0.9491,-0.9725,-1.0156,-1.0973,-1.1635,-1.2224,-1.2759,-1.2905,-1.2905,-1.2905,-1.2954,-1.3002,-1.3002,-1.3089,-1.3176,-1.3248,-1.3334,-1.3443,-1.3586,-1.3597,-1.3597,-1.3597,-1.3597,-1.3692,-1.3965,-1.4443,-1.4915,-1.54,-1.5866,-1.6238,-1.6466,-1.65,-1.65,-1.65,-1.65,-1.65,-1.65,-1.65,-1.65,-1.65,-1.65,-1.65,-1.65,-1.65,-1.65,-1.65,-1.65,-1.65,0.0,0.0,0.0,0.0,0.0,-0.6,0.0,0.0,0.0,-0.5634,0.0,0.0,0.0,0.0,0.0,0.0,0.0,0.0,0.0,0.0,0.0,0.0,0.0,0.0,0.0,0.0,-0.0783,-0.079,-0.0941,-0.0853,-0.0473,-0.0314,-0.0067,0.0315,0.0629,0.0764,0.0697,-0.0336,-0.094,-0.1074,-0.2148,-0.2732,-0.2868,-0.289,-0.2932,-0.2993,-0.299,-0.3148,-0.3376,-0.3398,-0.3668,-0.4117,-0.4501,-0.551,-0.6764,-0.6892,-0.7733,-0.8804,-0.8804,-0.8883,-0.8962,-0.8982,-0.9185,-0.9413,-0.9413,-0.9932,-1.0651,-1.1082,-1.1719,-1.2348,-1.2783,-1.2905,-1.2905,-1.2905,-1.2905,-1.2905,-1.2905,-1.2988,-1.3061,-1.3085,-1.3152,-1.3252,-1.3491,-1.3539,-1.3563,-1.3563,-1.3658,-1.3905,-1.435,-1.4811,-1.5277,-1.5744,-1.6129,-1.6402,-1.65,-1.65,-1.65,-1.65,-1.65,-1.65,-1.65,-1.65,-1.65,-1.65,-1.65,-1.65,-1.65,-1.65,-1.65,-1.65,-1.65,-1.6543,0.0,0.0,0.0,0.0,-0.6491,0.0,0.0,0.0,-0.5802,-0.5431,0.0,0.0,0.0,0.0,0.0,0.0,0.0,0.0,0.0,0.0,0.0,0.0,0.0,0.0,0.0,0.0,0.0,-0.0787,-0.0759,-0.0716,-0.0673,-0.0472,-0.0247,0.0045,0.0315,0.0539,0.0697,-0.0246,-0.0783,-0.094,-0.2012,-0.2595,-0.2732,-0.2845,-0.2912,-0.2912,-0.297,-0.3078,-0.3236,-0.335,-0.3781,-0.4391,-0.4734,-0.5576,-0.6682,-0.7222,-0.7998,-0.8804,-0.8804,-0.8811,-0.8831,-0.8956,-0.9185,-0.9413,-0.9413,-1.0208,-1.1124,-1.1175,-1.1993,-1.2832,-1.2881,-1.2905,-1.2905,-1.2905,-1.2905,-1.2905,-1.2905,-1.2905,-1.2954,-1.3085,-1.3109,-1.3138,-1.3218,-1.3338,-1.342,-1.342,-1.3928,-1.4326,-1.4396,-1.4811,-1.5277,-1.5744,-1.5854,-1.6064,-1.6457,-1.65,-1.65,-1.65,-1.65,-1.65,-1.65,-1.65,-1.65,-1.65,-1.65,-1.65,-1.65,-1.65,-1.65,-1.65,-1.65,-1.6735,0.0,0.0,0.0,0.0,0.0,0.0,0.0,0.0,-0.6081,0.0,0.0,0.0,0.0,0.0,0.0,0.0,0.0,0.0,0.0,0.0,0.0,0.0,0.0,0.0,0.0,0.0,0.0,0.0,0.0,-0.0709,-0.0695,-0.0427,-0.0314,-0.0403,-0.0112,0.0,-0.0112,-0.0784,-0.1164,-0.1321,-0.2125,-0.2573,-0.2709,-0.2845,-0.289,-0.2912,-0.2932,-0.304,-0.3214,-0.3262,-0.37,-0.4394,-0.4848,-0.5669,-0.6639,-0.6883,-0.7522,-0.8272,-0.8272,-0.841,-0.861,-0.8901,-0.9087,-0.9185,-0.9361,-0.9969,-1.0711,-1.1099,-1.1794,-1.2505,-1.2832,-1.2905,-1.2905,-1.2905,-1.2905,-1.2905,-1.2905,-1.2905,-1.2929,-1.2978,-1.2978,-1.3002,-1.3031,-1.3228,-1.3396,-1.3396,-1.3705,-1.4046,-1.4361,-1.4811,-1.5277,-1.5744,-1.6042,-1.6293,-1.6466,-1.65,-1.65,-1.65,-1.65,-1.65,-1.65,-1.65,-1.65,-1.65,-1.65,-1.65,-1.65,-1.65,-1.65,-1.65,-1.65,-1.6607,-0.6585,0.0,0.0,0.0,0.0,0.0,0.0,0.0,0.0,0.0,0.0,0.0,0.0,0.0,0.0,0.0,0.0,0.0,0.0,0.0,0.0,0.0,0.0,0.0,0.0,0.0,0.0,0.0,0.0,0.0,-0.0695,-0.0472,-0.0427,-0.0605,-0.0381,-0.0381,-0.0626,-0.1074,-0.1389,-0.1547,-0.2192,-0.2551,-0.264,-0.2821,-0.2871,-0.2841,-0.2876,-0.2978,-0.3122,-0.3177,-0.3697,-0.4487,-0.4901,-0.57,-0.66,-0.674,-0.7241,-0.7851,-0.7882,-0.813,-0.8474,-0.8834,-0.8982,-0.9035,-0.9237,-0.9795,-1.0482,-1.099,-1.1685,-1.2357,-1.2783,-1.2905,-1.2905,-1.2905,-1.2905,-1.2905,-1.2905,-1.2905,-1.2905,-1.2905,-1.2929,-1.2954,-1.2954,-1.3152,-1.331,-1.331,-1.3539,-1.3918,-1.4466,-1.496,-1.5423,-1.5932,-1.6293,-1.65,-1.65,-1.65,-1.65,-1.65,-1.65,-1.65,-1.65,-1.65,-1.65,-1.65,-1.65,-1.65,-1.65,-1.65,-1.65,-1.65,-1.65,-1.6565,0.0,0.0,0.0,-0.6292,0.0,0.0,0.0,0.0,-0.6462,0.0,0.0,0.0,0.0,0.0,0.0,0.0,0.0,0.0,0.0,0.0,0.0,0.0,0.0,0.0,0.0,0.0,0.0,0.0,0.0,0.0,-0.0694,-0.0697,-0.0607,-0.0405,-0.0405,-0.0404,-0.0403,-0.0873,-0.1208,-0.1411,-0.2148,-0.2504,-0.2504,-0.2776,-0.2824,-0.2717,-0.2838,-0.2911,-0.2932,-0.3119,-0.3825,-0.4805,-0.494,-0.5615,-0.6569,-0.708,-0.7448,-0.7719,-0.7851,-0.813,-0.8449,-0.8711,-0.8883,-0.9008,-0.9008,-0.9829,-1.0821,-1.0973,-1.1816,-1.27,-1.2856,-1.2905,-1.2905,-1.2905,-1.2905,-1.2905,-1.2905,-1.2905,-1.2905,-1.2905,-1.3002,-1.3085,-1.3085,-1.3109,-1.3109,-1.3109,-1.3621,-1.4212,-1.4812,-1.5287,-1.582,-1.6402,-1.65,-1.65,-1.65,-1.65,-1.65,-1.65,-1.65,-1.65,-1.65,-1.65,-1.65,-1.65,-1.65,-1.65,-1.65,-1.65,-1.65,-1.65,-1.65,-1.6744,0.0,0.0,-0.6793,-0.6243,0.0,0.0,0.0,0.0,0.0,0.0,0.0,0.0,0.0,0.0,0.0,0.0,0.0,0.0,0.0,0.0,0.0,0.0,0.0,0.0,0.0,0.0,0.0,0.0,0.0,0.0,0.0,-0.1031,-0.0986,-0.1054,-0.1054,-0.1142,-0.1321,-0.1658,-0.1861,-0.1928,-0.2328,-0.2446,-0.2378,-0.2639,-0.2701,-0.2566,-0.2607,-0.2733,-0.29,-0.3022,-0.3748,-0.4822,-0.494,-0.5593,-0.648,-0.6795,-0.7015,-0.7207,-0.7533,-0.7822,-0.813,-0.8424,-0.8677,-0.8956,-0.9387,-0.9873,-1.0456,-1.1351,-1.1943,-1.2406,-1.2808,-1.2905,-1.2905,-1.2905,-1.2905,-1.2905,-1.2905,-1.2905,-1.2905,-1.2905,-1.2929,-1.3002,-1.3085,-1.3109,-1.3123,-1.3166,-1.3647,-1.4224,-1.4812,-1.5311,-1.5822,-1.6436,-1.65,-1.65,-1.65,-1.65,-1.65,-1.65,-1.65,-1.65,-1.65,-1.65,-1.65,-1.65,-1.65,-1.65,-1.65,-1.65,-1.65,-1.65,-1.65,-1.6744,-0.6681,-0.6693,0.0,0.0,-0.6688,0.0,-0.6846,0.0,0.0,0.0,0.0,0.0,0.0,0.0,0.0,0.0,0.0,0.0,0.0,0.0,0.0,0.0,0.0,0.0,0.0,0.0,-0.2522,-0.2335,0.0,0.0,0.0,0.0,-0.1231,-0.1299,-0.1366,-0.1478,-0.1658,-0.1928,-0.2109,-0.2201,-0.2339,-0.2371,-0.2303,-0.2514,-0.2535,-0.2425,-0.2484,-0.2564,-0.2708,-0.2894,-0.3626,-0.4683,-0.4863,-0.5534,-0.6416,-0.6623,-0.6787,-0.6989,-0.7368,-0.7618,-0.7829,-0.8268,-0.8529,-0.8794,-0.9577,-0.9961,-1.0372,-1.1543,-1.2042,-1.2348,-1.2783,-1.2905,-1.2905,-1.2905,-1.2905,-1.2905,-1.2905,-1.2905,-1.2905,-1.2905,-1.2929,-1.3002,-1.3085,-1.3123,-1.3214,-1.3457,-1.3789,-1.4271,-1.5051,-1.5411,-1.5844,-1.6436,-1.65,-1.65,-1.65,-1.65,-1.65,-1.65,-1.65,-1.65,-1.65,-1.65,-1.65,-1.65,-1.65,-1.65,-1.65,-1.65,-1.65,-1.65,-1.65,-1.6744]}]]